<?xml version="1.0" encoding="UTF-8" standalone="no" ?>
<gpx xmlns="http://www.topografix.com/GPX/1/1" xmlns:xsi="http://www.w3.org/2001/XMLSchema-instance" xsi:schemaLocation="http://www.topografix.com/GPX/1/1 http://www.topografix.com/GPX/1/1/gpx.xsd" version="1.1" creator="VisuGPX - https://www.visugpx.com">
  <metadata>
    <name>Vabre par le plateau de Combe Ginestouse</name>
    <desc><![CDATA[Grosse montée au départ. beaucoup de sous bois. vue magnifique dans les hauteurs. Attention sylviculture au km 16. En date du 28/08/2019 chemin impraticable sur 300m. En cours d'évacuation du bois coupé.
Circuit très agréable bien sportif sur certaines portions.]]></desc>
  </metadata>
  <trk>
    <name><![CDATA[2019-08-27-01]]></name>
    <trkseg>
      <trkpt lat="43.69409" lon="2.4288">
        <ele>356.5</ele>
        <time>2019-08-27T12:20:57Z</time>
      </trkpt>
      <trkpt lat="43.69409" lon="2.4288">
        <ele>356.5</ele>
        <time>2019-08-27T12:20:58Z</time>
      </trkpt>
      <trkpt lat="43.69417" lon="2.4289">
        <ele>357</ele>
        <time>2019-08-27T12:21:18Z</time>
      </trkpt>
      <trkpt lat="43.69426" lon="2.42903">
        <ele>357.2</ele>
        <time>2019-08-27T12:21:21Z</time>
      </trkpt>
      <trkpt lat="43.69434" lon="2.42919">
        <ele>357.2</ele>
        <time>2019-08-27T12:21:24Z</time>
      </trkpt>
      <trkpt lat="43.6944" lon="2.4293">
        <ele>357.1</ele>
        <time>2019-08-27T12:21:28Z</time>
      </trkpt>
      <trkpt lat="43.69443" lon="2.42945">
        <ele>357</ele>
        <time>2019-08-27T12:21:33Z</time>
      </trkpt>
      <trkpt lat="43.69442" lon="2.42957">
        <ele>356.9</ele>
        <time>2019-08-27T12:21:37Z</time>
      </trkpt>
      <trkpt lat="43.69441" lon="2.4297">
        <ele>356.8</ele>
        <time>2019-08-27T12:21:41Z</time>
      </trkpt>
      <trkpt lat="43.69442" lon="2.42982">
        <ele>356.5</ele>
        <time>2019-08-27T12:21:45Z</time>
      </trkpt>
      <trkpt lat="43.69441" lon="2.42996">
        <ele>355.9</ele>
        <time>2019-08-27T12:21:50Z</time>
      </trkpt>
      <trkpt lat="43.6944" lon="2.43009">
        <ele>355.4</ele>
        <time>2019-08-27T12:21:54Z</time>
      </trkpt>
      <trkpt lat="43.69436" lon="2.43023">
        <ele>354.9</ele>
        <time>2019-08-27T12:22:00Z</time>
      </trkpt>
      <trkpt lat="43.69432" lon="2.43036">
        <ele>354.8</ele>
        <time>2019-08-27T12:22:09Z</time>
      </trkpt>
      <trkpt lat="43.69426" lon="2.43047">
        <ele>354.2</ele>
        <time>2019-08-27T12:22:16Z</time>
      </trkpt>
      <trkpt lat="43.69422" lon="2.43059">
        <ele>353.6</ele>
        <time>2019-08-27T12:22:20Z</time>
      </trkpt>
      <trkpt lat="43.69421" lon="2.43074">
        <ele>352.7</ele>
        <time>2019-08-27T12:22:26Z</time>
      </trkpt>
      <trkpt lat="43.69419" lon="2.43088">
        <ele>351.6</ele>
        <time>2019-08-27T12:22:34Z</time>
      </trkpt>
      <trkpt lat="43.69417" lon="2.431">
        <ele>351.1</ele>
        <time>2019-08-27T12:22:39Z</time>
      </trkpt>
      <trkpt lat="43.69415" lon="2.43113">
        <ele>350.7</ele>
        <time>2019-08-27T12:22:43Z</time>
      </trkpt>
      <trkpt lat="43.69411" lon="2.43124">
        <ele>350.7</ele>
        <time>2019-08-27T12:22:48Z</time>
      </trkpt>
      <trkpt lat="43.69408" lon="2.43137">
        <ele>350.8</ele>
        <time>2019-08-27T12:22:52Z</time>
      </trkpt>
      <trkpt lat="43.69402" lon="2.4315">
        <ele>351.2</ele>
        <time>2019-08-27T12:22:56Z</time>
      </trkpt>
      <trkpt lat="43.69399" lon="2.43164">
        <ele>352</ele>
        <time>2019-08-27T12:23:01Z</time>
      </trkpt>
      <trkpt lat="43.69401" lon="2.43176">
        <ele>352.9</ele>
        <time>2019-08-27T12:23:05Z</time>
      </trkpt>
      <trkpt lat="43.69401" lon="2.43189">
        <ele>353.9</ele>
        <time>2019-08-27T12:23:09Z</time>
      </trkpt>
      <trkpt lat="43.694" lon="2.43203">
        <ele>355</ele>
        <time>2019-08-27T12:23:13Z</time>
      </trkpt>
      <trkpt lat="43.69398" lon="2.43216">
        <ele>356.3</ele>
        <time>2019-08-27T12:23:17Z</time>
      </trkpt>
      <trkpt lat="43.69397" lon="2.4323">
        <ele>358.1</ele>
        <time>2019-08-27T12:23:22Z</time>
      </trkpt>
      <trkpt lat="43.69397" lon="2.43242">
        <ele>359.8</ele>
        <time>2019-08-27T12:23:27Z</time>
      </trkpt>
      <trkpt lat="43.69395" lon="2.43255">
        <ele>360.8</ele>
        <time>2019-08-27T12:23:30Z</time>
      </trkpt>
      <trkpt lat="43.69396" lon="2.43268">
        <ele>361.8</ele>
        <time>2019-08-27T12:23:33Z</time>
      </trkpt>
      <trkpt lat="43.69396" lon="2.4328">
        <ele>362.8</ele>
        <time>2019-08-27T12:23:36Z</time>
      </trkpt>
      <trkpt lat="43.69398" lon="2.43265">
        <ele>366.2</ele>
        <time>2019-08-27T12:23:50Z</time>
      </trkpt>
      <trkpt lat="43.69399" lon="2.43249">
        <ele>366.8</ele>
        <time>2019-08-27T12:23:53Z</time>
      </trkpt>
      <trkpt lat="43.69397" lon="2.43236">
        <ele>367.4</ele>
        <time>2019-08-27T12:23:57Z</time>
      </trkpt>
      <trkpt lat="43.69392" lon="2.43246">
        <ele>367.9</ele>
        <time>2019-08-27T12:24:02Z</time>
      </trkpt>
      <trkpt lat="43.69388" lon="2.43259">
        <ele>368.6</ele>
        <time>2019-08-27T12:24:07Z</time>
      </trkpt>
      <trkpt lat="43.69389" lon="2.43273">
        <ele>369.6</ele>
        <time>2019-08-27T12:24:13Z</time>
      </trkpt>
      <trkpt lat="43.69389" lon="2.43289">
        <ele>370.3</ele>
        <time>2019-08-27T12:24:19Z</time>
      </trkpt>
      <trkpt lat="43.69388" lon="2.43301">
        <ele>371.1</ele>
        <time>2019-08-27T12:24:25Z</time>
      </trkpt>
      <trkpt lat="43.69384" lon="2.43316">
        <ele>371.7</ele>
        <time>2019-08-27T12:24:30Z</time>
      </trkpt>
      <trkpt lat="43.69378" lon="2.43306">
        <ele>374.6</ele>
        <time>2019-08-27T12:24:48Z</time>
      </trkpt>
      <trkpt lat="43.69378" lon="2.43288">
        <ele>376.9</ele>
        <time>2019-08-27T12:24:57Z</time>
      </trkpt>
      <trkpt lat="43.69377" lon="2.43274">
        <ele>378.1</ele>
        <time>2019-08-27T12:25:03Z</time>
      </trkpt>
      <trkpt lat="43.69375" lon="2.43256">
        <ele>380.2</ele>
        <time>2019-08-27T12:25:12Z</time>
      </trkpt>
      <trkpt lat="43.69372" lon="2.43243">
        <ele>381</ele>
        <time>2019-08-27T12:25:16Z</time>
      </trkpt>
      <trkpt lat="43.6937" lon="2.4323">
        <ele>382.1</ele>
        <time>2019-08-27T12:25:21Z</time>
      </trkpt>
      <trkpt lat="43.69372" lon="2.43216">
        <ele>383.7</ele>
        <time>2019-08-27T12:25:29Z</time>
      </trkpt>
      <trkpt lat="43.6937" lon="2.43203">
        <ele>384.5</ele>
        <time>2019-08-27T12:25:34Z</time>
      </trkpt>
      <trkpt lat="43.6937" lon="2.43191">
        <ele>385.1</ele>
        <time>2019-08-27T12:25:38Z</time>
      </trkpt>
      <trkpt lat="43.69372" lon="2.43176">
        <ele>386</ele>
        <time>2019-08-27T12:25:43Z</time>
      </trkpt>
      <trkpt lat="43.69372" lon="2.43162">
        <ele>386.6</ele>
        <time>2019-08-27T12:25:48Z</time>
      </trkpt>
      <trkpt lat="43.69372" lon="2.43149">
        <ele>387.6</ele>
        <time>2019-08-27T12:25:55Z</time>
      </trkpt>
      <trkpt lat="43.6937" lon="2.43136">
        <ele>388.2</ele>
        <time>2019-08-27T12:26:01Z</time>
      </trkpt>
      <trkpt lat="43.69367" lon="2.43121">
        <ele>388.9</ele>
        <time>2019-08-27T12:26:07Z</time>
      </trkpt>
      <trkpt lat="43.69364" lon="2.43106">
        <ele>389.5</ele>
        <time>2019-08-27T12:26:10Z</time>
      </trkpt>
      <trkpt lat="43.69359" lon="2.43094">
        <ele>390.4</ele>
        <time>2019-08-27T12:26:14Z</time>
      </trkpt>
      <trkpt lat="43.69351" lon="2.43102">
        <ele>392.9</ele>
        <time>2019-08-27T12:26:29Z</time>
      </trkpt>
      <trkpt lat="43.69349" lon="2.43115">
        <ele>393.4</ele>
        <time>2019-08-27T12:26:34Z</time>
      </trkpt>
      <trkpt lat="43.69347" lon="2.43128">
        <ele>393.7</ele>
        <time>2019-08-27T12:26:41Z</time>
      </trkpt>
      <trkpt lat="43.69345" lon="2.43143">
        <ele>394.2</ele>
        <time>2019-08-27T12:26:47Z</time>
      </trkpt>
      <trkpt lat="43.69343" lon="2.43157">
        <ele>394.8</ele>
        <time>2019-08-27T12:26:53Z</time>
      </trkpt>
      <trkpt lat="43.69341" lon="2.43171">
        <ele>395.5</ele>
        <time>2019-08-27T12:26:59Z</time>
      </trkpt>
      <trkpt lat="43.69338" lon="2.43186">
        <ele>396.4</ele>
        <time>2019-08-27T12:27:06Z</time>
      </trkpt>
      <trkpt lat="43.69334" lon="2.43199">
        <ele>397.3</ele>
        <time>2019-08-27T12:27:11Z</time>
      </trkpt>
      <trkpt lat="43.6933" lon="2.4321">
        <ele>398.3</ele>
        <time>2019-08-27T12:27:17Z</time>
      </trkpt>
      <trkpt lat="43.69325" lon="2.43222">
        <ele>399.1</ele>
        <time>2019-08-27T12:27:23Z</time>
      </trkpt>
      <trkpt lat="43.69325" lon="2.43234">
        <ele>399.7</ele>
        <time>2019-08-27T12:27:29Z</time>
      </trkpt>
      <trkpt lat="43.69326" lon="2.43248">
        <ele>400.1</ele>
        <time>2019-08-27T12:27:35Z</time>
      </trkpt>
      <trkpt lat="43.69326" lon="2.43262">
        <ele>400</ele>
        <time>2019-08-27T12:27:42Z</time>
      </trkpt>
      <trkpt lat="43.69326" lon="2.43277">
        <ele>400</ele>
        <time>2019-08-27T12:27:48Z</time>
      </trkpt>
      <trkpt lat="43.69325" lon="2.4329">
        <ele>400.1</ele>
        <time>2019-08-27T12:27:53Z</time>
      </trkpt>
      <trkpt lat="43.69325" lon="2.43304">
        <ele>400</ele>
        <time>2019-08-27T12:27:59Z</time>
      </trkpt>
      <trkpt lat="43.69323" lon="2.43317">
        <ele>399.9</ele>
        <time>2019-08-27T12:28:05Z</time>
      </trkpt>
      <trkpt lat="43.69321" lon="2.43332">
        <ele>399.9</ele>
        <time>2019-08-27T12:28:12Z</time>
      </trkpt>
      <trkpt lat="43.69323" lon="2.43345">
        <ele>399.9</ele>
        <time>2019-08-27T12:28:18Z</time>
      </trkpt>
      <trkpt lat="43.69321" lon="2.43358">
        <ele>400</ele>
        <time>2019-08-27T12:28:24Z</time>
      </trkpt>
      <trkpt lat="43.69319" lon="2.43371">
        <ele>400</ele>
        <time>2019-08-27T12:28:29Z</time>
      </trkpt>
      <trkpt lat="43.69317" lon="2.43383">
        <ele>400.1</ele>
        <time>2019-08-27T12:28:35Z</time>
      </trkpt>
      <trkpt lat="43.69316" lon="2.43397">
        <ele>400.2</ele>
        <time>2019-08-27T12:28:42Z</time>
      </trkpt>
      <trkpt lat="43.69314" lon="2.43412">
        <ele>400.7</ele>
        <time>2019-08-27T12:28:46Z</time>
      </trkpt>
      <trkpt lat="43.69314" lon="2.43425">
        <ele>402.4</ele>
        <time>2019-08-27T12:28:51Z</time>
      </trkpt>
      <trkpt lat="43.69315" lon="2.43438">
        <ele>405.2</ele>
        <time>2019-08-27T12:28:58Z</time>
      </trkpt>
      <trkpt lat="43.69316" lon="2.43452">
        <ele>408.1</ele>
        <time>2019-08-27T12:29:05Z</time>
      </trkpt>
      <trkpt lat="43.69315" lon="2.43465">
        <ele>410</ele>
        <time>2019-08-27T12:29:10Z</time>
      </trkpt>
      <trkpt lat="43.69313" lon="2.43478">
        <ele>412.1</ele>
        <time>2019-08-27T12:29:16Z</time>
      </trkpt>
      <trkpt lat="43.69315" lon="2.43492">
        <ele>413.8</ele>
        <time>2019-08-27T12:29:23Z</time>
      </trkpt>
      <trkpt lat="43.69316" lon="2.43507">
        <ele>415.1</ele>
        <time>2019-08-27T12:29:29Z</time>
      </trkpt>
      <trkpt lat="43.69319" lon="2.43521">
        <ele>416.4</ele>
        <time>2019-08-27T12:29:35Z</time>
      </trkpt>
      <trkpt lat="43.69321" lon="2.43534">
        <ele>417.8</ele>
        <time>2019-08-27T12:29:42Z</time>
      </trkpt>
      <trkpt lat="43.6932" lon="2.43548">
        <ele>419.2</ele>
        <time>2019-08-27T12:29:49Z</time>
      </trkpt>
      <trkpt lat="43.69323" lon="2.43561">
        <ele>420.2</ele>
        <time>2019-08-27T12:29:55Z</time>
      </trkpt>
      <trkpt lat="43.69322" lon="2.43574">
        <ele>421.3</ele>
        <time>2019-08-27T12:30:01Z</time>
      </trkpt>
      <trkpt lat="43.69315" lon="2.43563">
        <ele>423.1</ele>
        <time>2019-08-27T12:30:09Z</time>
      </trkpt>
      <trkpt lat="43.69312" lon="2.4355">
        <ele>424.8</ele>
        <time>2019-08-27T12:30:15Z</time>
      </trkpt>
      <trkpt lat="43.69307" lon="2.43538">
        <ele>426.8</ele>
        <time>2019-08-27T12:30:21Z</time>
      </trkpt>
      <trkpt lat="43.69301" lon="2.43527">
        <ele>429.1</ele>
        <time>2019-08-27T12:30:27Z</time>
      </trkpt>
      <trkpt lat="43.69295" lon="2.43517">
        <ele>431.9</ele>
        <time>2019-08-27T12:30:34Z</time>
      </trkpt>
      <trkpt lat="43.6929" lon="2.43505">
        <ele>434.7</ele>
        <time>2019-08-27T12:30:41Z</time>
      </trkpt>
      <trkpt lat="43.69286" lon="2.43491">
        <ele>436.5</ele>
        <time>2019-08-27T12:30:46Z</time>
      </trkpt>
      <trkpt lat="43.69283" lon="2.43478">
        <ele>438.2</ele>
        <time>2019-08-27T12:30:52Z</time>
      </trkpt>
      <trkpt lat="43.6928" lon="2.43465">
        <ele>439</ele>
        <time>2019-08-27T12:30:55Z</time>
      </trkpt>
      <trkpt lat="43.69277" lon="2.43449">
        <ele>440.3</ele>
        <time>2019-08-27T12:30:59Z</time>
      </trkpt>
      <trkpt lat="43.69277" lon="2.43436">
        <ele>441.8</ele>
        <time>2019-08-27T12:31:03Z</time>
      </trkpt>
      <trkpt lat="43.69276" lon="2.43424">
        <ele>443.6</ele>
        <time>2019-08-27T12:31:08Z</time>
      </trkpt>
      <trkpt lat="43.69274" lon="2.43411">
        <ele>445.8</ele>
        <time>2019-08-27T12:31:15Z</time>
      </trkpt>
      <trkpt lat="43.6927" lon="2.43397">
        <ele>447.4</ele>
        <time>2019-08-27T12:31:20Z</time>
      </trkpt>
      <trkpt lat="43.69268" lon="2.43382">
        <ele>448.8</ele>
        <time>2019-08-27T12:31:25Z</time>
      </trkpt>
      <trkpt lat="43.69266" lon="2.43369">
        <ele>450.4</ele>
        <time>2019-08-27T12:31:31Z</time>
      </trkpt>
      <trkpt lat="43.69263" lon="2.43355">
        <ele>451.6</ele>
        <time>2019-08-27T12:31:36Z</time>
      </trkpt>
      <trkpt lat="43.69259" lon="2.43343">
        <ele>452.6</ele>
        <time>2019-08-27T12:31:41Z</time>
      </trkpt>
      <trkpt lat="43.69258" lon="2.4333">
        <ele>453.5</ele>
        <time>2019-08-27T12:31:46Z</time>
      </trkpt>
      <trkpt lat="43.69255" lon="2.43317">
        <ele>455.1</ele>
        <time>2019-08-27T12:31:57Z</time>
      </trkpt>
      <trkpt lat="43.69254" lon="2.43303">
        <ele>455.7</ele>
        <time>2019-08-27T12:32:01Z</time>
      </trkpt>
      <trkpt lat="43.6925" lon="2.43292">
        <ele>456.4</ele>
        <time>2019-08-27T12:32:05Z</time>
      </trkpt>
      <trkpt lat="43.69247" lon="2.4328">
        <ele>457.1</ele>
        <time>2019-08-27T12:32:09Z</time>
      </trkpt>
      <trkpt lat="43.69244" lon="2.43267">
        <ele>457.7</ele>
        <time>2019-08-27T12:32:13Z</time>
      </trkpt>
      <trkpt lat="43.69241" lon="2.43255">
        <ele>458.5</ele>
        <time>2019-08-27T12:32:20Z</time>
      </trkpt>
      <trkpt lat="43.69237" lon="2.4324">
        <ele>459.1</ele>
        <time>2019-08-27T12:32:26Z</time>
      </trkpt>
      <trkpt lat="43.6923" lon="2.43228">
        <ele>459.4</ele>
        <time>2019-08-27T12:32:30Z</time>
      </trkpt>
      <trkpt lat="43.69222" lon="2.43222">
        <ele>459.7</ele>
        <time>2019-08-27T12:32:34Z</time>
      </trkpt>
      <trkpt lat="43.69218" lon="2.43236">
        <ele>460.3</ele>
        <time>2019-08-27T12:32:40Z</time>
      </trkpt>
      <trkpt lat="43.6922" lon="2.43248">
        <ele>460.8</ele>
        <time>2019-08-27T12:32:46Z</time>
      </trkpt>
      <trkpt lat="43.69223" lon="2.43261">
        <ele>461.2</ele>
        <time>2019-08-27T12:32:55Z</time>
      </trkpt>
      <trkpt lat="43.69223" lon="2.43274">
        <ele>461</ele>
        <time>2019-08-27T12:33:04Z</time>
      </trkpt>
      <trkpt lat="43.69221" lon="2.43288">
        <ele>460.8</ele>
        <time>2019-08-27T12:33:10Z</time>
      </trkpt>
      <trkpt lat="43.69222" lon="2.43301">
        <ele>460.4</ele>
        <time>2019-08-27T12:33:15Z</time>
      </trkpt>
      <trkpt lat="43.69222" lon="2.43314">
        <ele>459.7</ele>
        <time>2019-08-27T12:33:21Z</time>
      </trkpt>
      <trkpt lat="43.69221" lon="2.43329">
        <ele>459</ele>
        <time>2019-08-27T12:33:27Z</time>
      </trkpt>
      <trkpt lat="43.69219" lon="2.43341">
        <ele>458.6</ele>
        <time>2019-08-27T12:33:32Z</time>
      </trkpt>
      <trkpt lat="43.69218" lon="2.43355">
        <ele>457.9</ele>
        <time>2019-08-27T12:33:39Z</time>
      </trkpt>
      <trkpt lat="43.69218" lon="2.43368">
        <ele>457.5</ele>
        <time>2019-08-27T12:33:44Z</time>
      </trkpt>
      <trkpt lat="43.69217" lon="2.43382">
        <ele>456.9</ele>
        <time>2019-08-27T12:33:49Z</time>
      </trkpt>
      <trkpt lat="43.69217" lon="2.43395">
        <ele>456.5</ele>
        <time>2019-08-27T12:33:53Z</time>
      </trkpt>
      <trkpt lat="43.69217" lon="2.4341">
        <ele>456.2</ele>
        <time>2019-08-27T12:33:59Z</time>
      </trkpt>
      <trkpt lat="43.69215" lon="2.43422">
        <ele>456.4</ele>
        <time>2019-08-27T12:34:04Z</time>
      </trkpt>
      <trkpt lat="43.69214" lon="2.43435">
        <ele>456.6</ele>
        <time>2019-08-27T12:34:08Z</time>
      </trkpt>
      <trkpt lat="43.69214" lon="2.43449">
        <ele>456.9</ele>
        <time>2019-08-27T12:34:12Z</time>
      </trkpt>
      <trkpt lat="43.69212" lon="2.43463">
        <ele>457.6</ele>
        <time>2019-08-27T12:34:17Z</time>
      </trkpt>
      <trkpt lat="43.69211" lon="2.43476">
        <ele>458.9</ele>
        <time>2019-08-27T12:34:22Z</time>
      </trkpt>
      <trkpt lat="43.6921" lon="2.43489">
        <ele>460.5</ele>
        <time>2019-08-27T12:34:28Z</time>
      </trkpt>
      <trkpt lat="43.69208" lon="2.43502">
        <ele>462</ele>
        <time>2019-08-27T12:34:34Z</time>
      </trkpt>
      <trkpt lat="43.69205" lon="2.43514">
        <ele>463.2</ele>
        <time>2019-08-27T12:34:39Z</time>
      </trkpt>
      <trkpt lat="43.692" lon="2.43527">
        <ele>464.5</ele>
        <time>2019-08-27T12:34:44Z</time>
      </trkpt>
      <trkpt lat="43.69196" lon="2.43538">
        <ele>466.2</ele>
        <time>2019-08-27T12:34:49Z</time>
      </trkpt>
      <trkpt lat="43.69189" lon="2.43548">
        <ele>468</ele>
        <time>2019-08-27T12:34:54Z</time>
      </trkpt>
      <trkpt lat="43.69181" lon="2.43556">
        <ele>469.8</ele>
        <time>2019-08-27T12:34:59Z</time>
      </trkpt>
      <trkpt lat="43.69173" lon="2.43561">
        <ele>471.6</ele>
        <time>2019-08-27T12:35:04Z</time>
      </trkpt>
      <trkpt lat="43.69164" lon="2.43567">
        <ele>474.3</ele>
        <time>2019-08-27T12:35:11Z</time>
      </trkpt>
      <trkpt lat="43.69154" lon="2.43571">
        <ele>477</ele>
        <time>2019-08-27T12:35:18Z</time>
      </trkpt>
      <trkpt lat="43.69144" lon="2.43574">
        <ele>479.5</ele>
        <time>2019-08-27T12:35:24Z</time>
      </trkpt>
      <trkpt lat="43.69135" lon="2.43579">
        <ele>482.2</ele>
        <time>2019-08-27T12:35:31Z</time>
      </trkpt>
      <trkpt lat="43.69125" lon="2.43583">
        <ele>484.4</ele>
        <time>2019-08-27T12:35:37Z</time>
      </trkpt>
      <trkpt lat="43.69116" lon="2.43588">
        <ele>486.4</ele>
        <time>2019-08-27T12:35:43Z</time>
      </trkpt>
      <trkpt lat="43.69107" lon="2.43595">
        <ele>488.5</ele>
        <time>2019-08-27T12:35:49Z</time>
      </trkpt>
      <trkpt lat="43.69098" lon="2.43601">
        <ele>490.5</ele>
        <time>2019-08-27T12:35:55Z</time>
      </trkpt>
      <trkpt lat="43.69088" lon="2.43606">
        <ele>492.5</ele>
        <time>2019-08-27T12:36:02Z</time>
      </trkpt>
      <trkpt lat="43.69079" lon="2.43612">
        <ele>493.8</ele>
        <time>2019-08-27T12:36:07Z</time>
      </trkpt>
      <trkpt lat="43.69071" lon="2.43618">
        <ele>495.2</ele>
        <time>2019-08-27T12:36:13Z</time>
      </trkpt>
      <trkpt lat="43.69062" lon="2.43625">
        <ele>496.3</ele>
        <time>2019-08-27T12:36:19Z</time>
      </trkpt>
      <trkpt lat="43.69054" lon="2.43633">
        <ele>497.1</ele>
        <time>2019-08-27T12:36:25Z</time>
      </trkpt>
      <trkpt lat="43.69047" lon="2.4364">
        <ele>497.5</ele>
        <time>2019-08-27T12:36:31Z</time>
      </trkpt>
      <trkpt lat="43.6904" lon="2.4365">
        <ele>498</ele>
        <time>2019-08-27T12:36:37Z</time>
      </trkpt>
      <trkpt lat="43.69034" lon="2.43661">
        <ele>498.6</ele>
        <time>2019-08-27T12:36:43Z</time>
      </trkpt>
      <trkpt lat="43.69028" lon="2.43671">
        <ele>499.2</ele>
        <time>2019-08-27T12:36:49Z</time>
      </trkpt>
      <trkpt lat="43.69021" lon="2.4368">
        <ele>499.5</ele>
        <time>2019-08-27T12:36:54Z</time>
      </trkpt>
      <trkpt lat="43.69014" lon="2.4369">
        <ele>499.8</ele>
        <time>2019-08-27T12:36:59Z</time>
      </trkpt>
      <trkpt lat="43.69008" lon="2.437">
        <ele>500</ele>
        <time>2019-08-27T12:37:05Z</time>
      </trkpt>
      <trkpt lat="43.69002" lon="2.4371">
        <ele>499.7</ele>
        <time>2019-08-27T12:37:11Z</time>
      </trkpt>
      <trkpt lat="43.68995" lon="2.4372">
        <ele>499.4</ele>
        <time>2019-08-27T12:37:16Z</time>
      </trkpt>
      <trkpt lat="43.68989" lon="2.4373">
        <ele>499.3</ele>
        <time>2019-08-27T12:37:20Z</time>
      </trkpt>
      <trkpt lat="43.68982" lon="2.43742">
        <ele>499.1</ele>
        <time>2019-08-27T12:37:25Z</time>
      </trkpt>
      <trkpt lat="43.68976" lon="2.43753">
        <ele>499.1</ele>
        <time>2019-08-27T12:37:28Z</time>
      </trkpt>
      <trkpt lat="43.68968" lon="2.43761">
        <ele>498.9</ele>
        <time>2019-08-27T12:37:32Z</time>
      </trkpt>
      <trkpt lat="43.68956" lon="2.43769">
        <ele>498.6</ele>
        <time>2019-08-27T12:37:36Z</time>
      </trkpt>
      <trkpt lat="43.68949" lon="2.43778">
        <ele>498.2</ele>
        <time>2019-08-27T12:37:39Z</time>
      </trkpt>
      <trkpt lat="43.6894" lon="2.43783">
        <ele>497.4</ele>
        <time>2019-08-27T12:37:43Z</time>
      </trkpt>
      <trkpt lat="43.68931" lon="2.43793">
        <ele>496.1</ele>
        <time>2019-08-27T12:37:47Z</time>
      </trkpt>
      <trkpt lat="43.68925" lon="2.43801">
        <ele>495.1</ele>
        <time>2019-08-27T12:37:50Z</time>
      </trkpt>
      <trkpt lat="43.68919" lon="2.43812">
        <ele>494</ele>
        <time>2019-08-27T12:37:53Z</time>
      </trkpt>
      <trkpt lat="43.68913" lon="2.43825">
        <ele>492.8</ele>
        <time>2019-08-27T12:37:56Z</time>
      </trkpt>
      <trkpt lat="43.68905" lon="2.43838">
        <ele>491.6</ele>
        <time>2019-08-27T12:37:59Z</time>
      </trkpt>
      <trkpt lat="43.68899" lon="2.43848">
        <ele>490.3</ele>
        <time>2019-08-27T12:38:02Z</time>
      </trkpt>
      <trkpt lat="43.68899" lon="2.43862">
        <ele>488.9</ele>
        <time>2019-08-27T12:38:05Z</time>
      </trkpt>
      <trkpt lat="43.689" lon="2.43875">
        <ele>487.5</ele>
        <time>2019-08-27T12:38:08Z</time>
      </trkpt>
      <trkpt lat="43.68904" lon="2.43888">
        <ele>486.2</ele>
        <time>2019-08-27T12:38:11Z</time>
      </trkpt>
      <trkpt lat="43.68911" lon="2.43902">
        <ele>485.1</ele>
        <time>2019-08-27T12:38:14Z</time>
      </trkpt>
      <trkpt lat="43.68917" lon="2.43916">
        <ele>484.8</ele>
        <time>2019-08-27T12:38:16Z</time>
      </trkpt>
      <trkpt lat="43.68927" lon="2.43926">
        <ele>485.1</ele>
        <time>2019-08-27T12:38:19Z</time>
      </trkpt>
      <trkpt lat="43.68938" lon="2.43932">
        <ele>485.8</ele>
        <time>2019-08-27T12:38:22Z</time>
      </trkpt>
      <trkpt lat="43.68947" lon="2.43938">
        <ele>486.5</ele>
        <time>2019-08-27T12:38:24Z</time>
      </trkpt>
      <trkpt lat="43.68956" lon="2.43942">
        <ele>487.7</ele>
        <time>2019-08-27T12:38:27Z</time>
      </trkpt>
      <trkpt lat="43.68966" lon="2.43945">
        <ele>490.2</ele>
        <time>2019-08-27T12:38:32Z</time>
      </trkpt>
      <trkpt lat="43.68976" lon="2.43944">
        <ele>492.7</ele>
        <time>2019-08-27T12:38:37Z</time>
      </trkpt>
      <trkpt lat="43.68985" lon="2.43944">
        <ele>495.1</ele>
        <time>2019-08-27T12:38:42Z</time>
      </trkpt>
      <trkpt lat="43.68994" lon="2.43944">
        <ele>497.7</ele>
        <time>2019-08-27T12:38:48Z</time>
      </trkpt>
      <trkpt lat="43.69003" lon="2.43945">
        <ele>500.9</ele>
        <time>2019-08-27T12:38:56Z</time>
      </trkpt>
      <trkpt lat="43.69013" lon="2.43947">
        <ele>502.9</ele>
        <time>2019-08-27T12:39:01Z</time>
      </trkpt>
      <trkpt lat="43.69023" lon="2.43949">
        <ele>505.2</ele>
        <time>2019-08-27T12:39:07Z</time>
      </trkpt>
      <trkpt lat="43.69033" lon="2.4395">
        <ele>507.1</ele>
        <time>2019-08-27T12:39:12Z</time>
      </trkpt>
      <trkpt lat="43.69043" lon="2.43955">
        <ele>509</ele>
        <time>2019-08-27T12:39:17Z</time>
      </trkpt>
      <trkpt lat="43.69051" lon="2.43962">
        <ele>510.4</ele>
        <time>2019-08-27T12:39:21Z</time>
      </trkpt>
      <trkpt lat="43.69062" lon="2.43967">
        <ele>512.1</ele>
        <time>2019-08-27T12:39:26Z</time>
      </trkpt>
      <trkpt lat="43.69071" lon="2.43975">
        <ele>514</ele>
        <time>2019-08-27T12:39:32Z</time>
      </trkpt>
      <trkpt lat="43.69079" lon="2.43985">
        <ele>515.6</ele>
        <time>2019-08-27T12:39:37Z</time>
      </trkpt>
      <trkpt lat="43.69087" lon="2.43996">
        <ele>517.2</ele>
        <time>2019-08-27T12:39:42Z</time>
      </trkpt>
      <trkpt lat="43.69092" lon="2.44006">
        <ele>518.6</ele>
        <time>2019-08-27T12:39:47Z</time>
      </trkpt>
      <trkpt lat="43.69098" lon="2.44019">
        <ele>520.5</ele>
        <time>2019-08-27T12:39:54Z</time>
      </trkpt>
      <trkpt lat="43.69101" lon="2.44032">
        <ele>521.9</ele>
        <time>2019-08-27T12:40:00Z</time>
      </trkpt>
      <trkpt lat="43.69103" lon="2.44045">
        <ele>523</ele>
        <time>2019-08-27T12:40:05Z</time>
      </trkpt>
      <trkpt lat="43.69104" lon="2.44059">
        <ele>524.1</ele>
        <time>2019-08-27T12:40:10Z</time>
      </trkpt>
      <trkpt lat="43.69107" lon="2.44071">
        <ele>524.8</ele>
        <time>2019-08-27T12:40:14Z</time>
      </trkpt>
      <trkpt lat="43.69107" lon="2.44085">
        <ele>525.8</ele>
        <time>2019-08-27T12:40:20Z</time>
      </trkpt>
      <trkpt lat="43.69108" lon="2.44098">
        <ele>526.3</ele>
        <time>2019-08-27T12:40:24Z</time>
      </trkpt>
      <trkpt lat="43.69111" lon="2.44111">
        <ele>526.9</ele>
        <time>2019-08-27T12:40:30Z</time>
      </trkpt>
      <trkpt lat="43.69115" lon="2.44125">
        <ele>527.5</ele>
        <time>2019-08-27T12:40:37Z</time>
      </trkpt>
      <trkpt lat="43.69119" lon="2.44137">
        <ele>528</ele>
        <time>2019-08-27T12:40:42Z</time>
      </trkpt>
      <trkpt lat="43.69123" lon="2.4415">
        <ele>528.3</ele>
        <time>2019-08-27T12:40:46Z</time>
      </trkpt>
      <trkpt lat="43.69129" lon="2.44164">
        <ele>528.9</ele>
        <time>2019-08-27T12:40:52Z</time>
      </trkpt>
      <trkpt lat="43.69135" lon="2.44178">
        <ele>529.6</ele>
        <time>2019-08-27T12:40:58Z</time>
      </trkpt>
      <trkpt lat="43.69141" lon="2.4419">
        <ele>530.4</ele>
        <time>2019-08-27T12:41:03Z</time>
      </trkpt>
      <trkpt lat="43.69148" lon="2.44202">
        <ele>531.2</ele>
        <time>2019-08-27T12:41:08Z</time>
      </trkpt>
      <trkpt lat="43.69156" lon="2.44213">
        <ele>532</ele>
        <time>2019-08-27T12:41:12Z</time>
      </trkpt>
      <trkpt lat="43.69163" lon="2.44222">
        <ele>533</ele>
        <time>2019-08-27T12:41:17Z</time>
      </trkpt>
      <trkpt lat="43.69167" lon="2.44233">
        <ele>534.5</ele>
        <time>2019-08-27T12:41:24Z</time>
      </trkpt>
      <trkpt lat="43.69157" lon="2.44235">
        <ele>535.7</ele>
        <time>2019-08-27T12:41:30Z</time>
      </trkpt>
      <trkpt lat="43.69149" lon="2.4423">
        <ele>536.8</ele>
        <time>2019-08-27T12:41:36Z</time>
      </trkpt>
      <trkpt lat="43.69142" lon="2.44222">
        <ele>537.4</ele>
        <time>2019-08-27T12:41:40Z</time>
      </trkpt>
      <trkpt lat="43.69134" lon="2.44215">
        <ele>538.2</ele>
        <time>2019-08-27T12:41:44Z</time>
      </trkpt>
      <trkpt lat="43.69125" lon="2.44207">
        <ele>539.2</ele>
        <time>2019-08-27T12:41:48Z</time>
      </trkpt>
      <trkpt lat="43.69117" lon="2.44203">
        <ele>540.3</ele>
        <time>2019-08-27T12:41:53Z</time>
      </trkpt>
      <trkpt lat="43.69109" lon="2.44195">
        <ele>541.5</ele>
        <time>2019-08-27T12:41:59Z</time>
      </trkpt>
      <trkpt lat="43.69102" lon="2.44186">
        <ele>542.5</ele>
        <time>2019-08-27T12:42:05Z</time>
      </trkpt>
      <trkpt lat="43.69094" lon="2.44176">
        <ele>543.3</ele>
        <time>2019-08-27T12:42:10Z</time>
      </trkpt>
      <trkpt lat="43.69088" lon="2.44164">
        <ele>544.4</ele>
        <time>2019-08-27T12:42:15Z</time>
      </trkpt>
      <trkpt lat="43.69082" lon="2.44153">
        <ele>545.6</ele>
        <time>2019-08-27T12:42:20Z</time>
      </trkpt>
      <trkpt lat="43.69075" lon="2.44143">
        <ele>546.5</ele>
        <time>2019-08-27T12:42:24Z</time>
      </trkpt>
      <trkpt lat="43.69068" lon="2.44133">
        <ele>547.5</ele>
        <time>2019-08-27T12:42:29Z</time>
      </trkpt>
      <trkpt lat="43.69061" lon="2.44121">
        <ele>548.8</ele>
        <time>2019-08-27T12:42:35Z</time>
      </trkpt>
      <trkpt lat="43.69054" lon="2.44112">
        <ele>549.8</ele>
        <time>2019-08-27T12:42:40Z</time>
      </trkpt>
      <trkpt lat="43.69046" lon="2.44104">
        <ele>550.7</ele>
        <time>2019-08-27T12:42:45Z</time>
      </trkpt>
      <trkpt lat="43.69037" lon="2.44096">
        <ele>551.7</ele>
        <time>2019-08-27T12:42:51Z</time>
      </trkpt>
      <trkpt lat="43.69027" lon="2.44089">
        <ele>552.9</ele>
        <time>2019-08-27T12:42:57Z</time>
      </trkpt>
      <trkpt lat="43.69017" lon="2.44083">
        <ele>553.9</ele>
        <time>2019-08-27T12:43:02Z</time>
      </trkpt>
      <trkpt lat="43.69008" lon="2.4408">
        <ele>554.9</ele>
        <time>2019-08-27T12:43:07Z</time>
      </trkpt>
      <trkpt lat="43.68997" lon="2.44081">
        <ele>556.2</ele>
        <time>2019-08-27T12:43:13Z</time>
      </trkpt>
      <trkpt lat="43.68988" lon="2.44081">
        <ele>557.4</ele>
        <time>2019-08-27T12:43:18Z</time>
      </trkpt>
      <trkpt lat="43.68978" lon="2.44084">
        <ele>558.7</ele>
        <time>2019-08-27T12:43:23Z</time>
      </trkpt>
      <trkpt lat="43.68969" lon="2.44087">
        <ele>560</ele>
        <time>2019-08-27T12:43:28Z</time>
      </trkpt>
      <trkpt lat="43.68961" lon="2.44092">
        <ele>561.3</ele>
        <time>2019-08-27T12:43:33Z</time>
      </trkpt>
      <trkpt lat="43.68953" lon="2.441">
        <ele>562.4</ele>
        <time>2019-08-27T12:43:38Z</time>
      </trkpt>
      <trkpt lat="43.68945" lon="2.44108">
        <ele>563.6</ele>
        <time>2019-08-27T12:43:43Z</time>
      </trkpt>
      <trkpt lat="43.68939" lon="2.44118">
        <ele>564.6</ele>
        <time>2019-08-27T12:43:48Z</time>
      </trkpt>
      <trkpt lat="43.68935" lon="2.44132">
        <ele>565.6</ele>
        <time>2019-08-27T12:43:54Z</time>
      </trkpt>
      <trkpt lat="43.6893" lon="2.44144">
        <ele>566.3</ele>
        <time>2019-08-27T12:43:59Z</time>
      </trkpt>
      <trkpt lat="43.68927" lon="2.44157">
        <ele>567.2</ele>
        <time>2019-08-27T12:44:06Z</time>
      </trkpt>
      <trkpt lat="43.68922" lon="2.44169">
        <ele>567.7</ele>
        <time>2019-08-27T12:44:11Z</time>
      </trkpt>
      <trkpt lat="43.68915" lon="2.44179">
        <ele>568.2</ele>
        <time>2019-08-27T12:44:17Z</time>
      </trkpt>
      <trkpt lat="43.68908" lon="2.44188">
        <ele>568.8</ele>
        <time>2019-08-27T12:44:23Z</time>
      </trkpt>
      <trkpt lat="43.68899" lon="2.44191">
        <ele>569.2</ele>
        <time>2019-08-27T12:44:27Z</time>
      </trkpt>
      <trkpt lat="43.68889" lon="2.44188">
        <ele>570.1</ele>
        <time>2019-08-27T12:44:33Z</time>
      </trkpt>
      <trkpt lat="43.68882" lon="2.44179">
        <ele>570.7</ele>
        <time>2019-08-27T12:44:38Z</time>
      </trkpt>
      <trkpt lat="43.68874" lon="2.44171">
        <ele>571.6</ele>
        <time>2019-08-27T12:44:44Z</time>
      </trkpt>
      <trkpt lat="43.68868" lon="2.44162">
        <ele>573.1</ele>
        <time>2019-08-27T12:44:51Z</time>
      </trkpt>
      <trkpt lat="43.68865" lon="2.4415">
        <ele>574.5</ele>
        <time>2019-08-27T12:44:56Z</time>
      </trkpt>
      <trkpt lat="43.68863" lon="2.44137">
        <ele>576.2</ele>
        <time>2019-08-27T12:45:02Z</time>
      </trkpt>
      <trkpt lat="43.6886" lon="2.44125">
        <ele>577.3</ele>
        <time>2019-08-27T12:45:07Z</time>
      </trkpt>
      <trkpt lat="43.68857" lon="2.44113">
        <ele>578.4</ele>
        <time>2019-08-27T12:45:13Z</time>
      </trkpt>
      <trkpt lat="43.68851" lon="2.44101">
        <ele>579.5</ele>
        <time>2019-08-27T12:45:18Z</time>
      </trkpt>
      <trkpt lat="43.68844" lon="2.4409">
        <ele>580.3</ele>
        <time>2019-08-27T12:45:24Z</time>
      </trkpt>
      <trkpt lat="43.68837" lon="2.44081">
        <ele>580.7</ele>
        <time>2019-08-27T12:45:29Z</time>
      </trkpt>
      <trkpt lat="43.68829" lon="2.44073">
        <ele>581.2</ele>
        <time>2019-08-27T12:45:35Z</time>
      </trkpt>
      <trkpt lat="43.6882" lon="2.44067">
        <ele>581.3</ele>
        <time>2019-08-27T12:45:40Z</time>
      </trkpt>
      <trkpt lat="43.68812" lon="2.44062">
        <ele>581.4</ele>
        <time>2019-08-27T12:45:45Z</time>
      </trkpt>
      <trkpt lat="43.68805" lon="2.44053">
        <ele>581.2</ele>
        <time>2019-08-27T12:45:50Z</time>
      </trkpt>
      <trkpt lat="43.68798" lon="2.44044">
        <ele>580.9</ele>
        <time>2019-08-27T12:45:55Z</time>
      </trkpt>
      <trkpt lat="43.6879" lon="2.44034">
        <ele>580.6</ele>
        <time>2019-08-27T12:46:01Z</time>
      </trkpt>
      <trkpt lat="43.68785" lon="2.44024">
        <ele>580.3</ele>
        <time>2019-08-27T12:46:06Z</time>
      </trkpt>
      <trkpt lat="43.68779" lon="2.44014">
        <ele>580.4</ele>
        <time>2019-08-27T12:46:10Z</time>
      </trkpt>
      <trkpt lat="43.68771" lon="2.44006">
        <ele>580.9</ele>
        <time>2019-08-27T12:46:15Z</time>
      </trkpt>
      <trkpt lat="43.68763" lon="2.43999">
        <ele>581.6</ele>
        <time>2019-08-27T12:46:20Z</time>
      </trkpt>
      <trkpt lat="43.68753" lon="2.43994">
        <ele>582.5</ele>
        <time>2019-08-27T12:46:26Z</time>
      </trkpt>
      <trkpt lat="43.68744" lon="2.43996">
        <ele>583.4</ele>
        <time>2019-08-27T12:46:31Z</time>
      </trkpt>
      <trkpt lat="43.68734" lon="2.44">
        <ele>584.7</ele>
        <time>2019-08-27T12:46:37Z</time>
      </trkpt>
      <trkpt lat="43.68725" lon="2.44005">
        <ele>585.9</ele>
        <time>2019-08-27T12:46:42Z</time>
      </trkpt>
      <trkpt lat="43.68715" lon="2.44012">
        <ele>587.1</ele>
        <time>2019-08-27T12:46:47Z</time>
      </trkpt>
      <trkpt lat="43.68706" lon="2.44019">
        <ele>588.3</ele>
        <time>2019-08-27T12:46:52Z</time>
      </trkpt>
      <trkpt lat="43.687" lon="2.44027">
        <ele>589.4</ele>
        <time>2019-08-27T12:46:57Z</time>
      </trkpt>
      <trkpt lat="43.68691" lon="2.44033">
        <ele>590.5</ele>
        <time>2019-08-27T12:47:02Z</time>
      </trkpt>
      <trkpt lat="43.68683" lon="2.44039">
        <ele>591.6</ele>
        <time>2019-08-27T12:47:07Z</time>
      </trkpt>
      <trkpt lat="43.68672" lon="2.44043">
        <ele>592.6</ele>
        <time>2019-08-27T12:47:12Z</time>
      </trkpt>
      <trkpt lat="43.68661" lon="2.44047">
        <ele>593.5</ele>
        <time>2019-08-27T12:47:17Z</time>
      </trkpt>
      <trkpt lat="43.68652" lon="2.44053">
        <ele>594.4</ele>
        <time>2019-08-27T12:47:22Z</time>
      </trkpt>
      <trkpt lat="43.68644" lon="2.44062">
        <ele>595.1</ele>
        <time>2019-08-27T12:47:27Z</time>
      </trkpt>
      <trkpt lat="43.68637" lon="2.44073">
        <ele>595.6</ele>
        <time>2019-08-27T12:47:32Z</time>
      </trkpt>
      <trkpt lat="43.68636" lon="2.44085">
        <ele>596.1</ele>
        <time>2019-08-27T12:47:38Z</time>
      </trkpt>
      <trkpt lat="43.6863" lon="2.44096">
        <ele>596.4</ele>
        <time>2019-08-27T12:47:44Z</time>
      </trkpt>
      <trkpt lat="43.68623" lon="2.44107">
        <ele>596.3</ele>
        <time>2019-08-27T12:47:50Z</time>
      </trkpt>
      <trkpt lat="43.68614" lon="2.44114">
        <ele>596.2</ele>
        <time>2019-08-27T12:47:55Z</time>
      </trkpt>
      <trkpt lat="43.68606" lon="2.44122">
        <ele>596.2</ele>
        <time>2019-08-27T12:47:59Z</time>
      </trkpt>
      <trkpt lat="43.68598" lon="2.4413">
        <ele>596.5</ele>
        <time>2019-08-27T12:48:04Z</time>
      </trkpt>
      <trkpt lat="43.6859" lon="2.44138">
        <ele>596.9</ele>
        <time>2019-08-27T12:48:08Z</time>
      </trkpt>
      <trkpt lat="43.68582" lon="2.44145">
        <ele>597.4</ele>
        <time>2019-08-27T12:48:12Z</time>
      </trkpt>
      <trkpt lat="43.68575" lon="2.44154">
        <ele>598.4</ele>
        <time>2019-08-27T12:48:18Z</time>
      </trkpt>
      <trkpt lat="43.68585" lon="2.44159">
        <ele>598.9</ele>
        <time>2019-08-27T12:48:24Z</time>
      </trkpt>
      <trkpt lat="43.68592" lon="2.4415">
        <ele>599.2</ele>
        <time>2019-08-27T12:48:28Z</time>
      </trkpt>
      <trkpt lat="43.68599" lon="2.44139">
        <ele>599.8</ele>
        <time>2019-08-27T12:48:33Z</time>
      </trkpt>
      <trkpt lat="43.68608" lon="2.44133">
        <ele>600.3</ele>
        <time>2019-08-27T12:48:39Z</time>
      </trkpt>
      <trkpt lat="43.68618" lon="2.4413">
        <ele>600.6</ele>
        <time>2019-08-27T12:48:44Z</time>
      </trkpt>
      <trkpt lat="43.68627" lon="2.44127">
        <ele>601</ele>
        <time>2019-08-27T12:48:48Z</time>
      </trkpt>
      <trkpt lat="43.68639" lon="2.44125">
        <ele>601.2</ele>
        <time>2019-08-27T12:48:54Z</time>
      </trkpt>
      <trkpt lat="43.68648" lon="2.4412">
        <ele>601.3</ele>
        <time>2019-08-27T12:49:00Z</time>
      </trkpt>
      <trkpt lat="43.68658" lon="2.44115">
        <ele>601.5</ele>
        <time>2019-08-27T12:49:05Z</time>
      </trkpt>
      <trkpt lat="43.68669" lon="2.44113">
        <ele>601.9</ele>
        <time>2019-08-27T12:49:10Z</time>
      </trkpt>
      <trkpt lat="43.68679" lon="2.44112">
        <ele>602.5</ele>
        <time>2019-08-27T12:49:15Z</time>
      </trkpt>
      <trkpt lat="43.68687" lon="2.44115">
        <ele>603.4</ele>
        <time>2019-08-27T12:49:21Z</time>
      </trkpt>
      <trkpt lat="43.68696" lon="2.44115">
        <ele>604.3</ele>
        <time>2019-08-27T12:49:26Z</time>
      </trkpt>
      <trkpt lat="43.68706" lon="2.44117">
        <ele>605.7</ele>
        <time>2019-08-27T12:49:32Z</time>
      </trkpt>
      <trkpt lat="43.68715" lon="2.44124">
        <ele>607.1</ele>
        <time>2019-08-27T12:49:38Z</time>
      </trkpt>
      <trkpt lat="43.68724" lon="2.44134">
        <ele>608.3</ele>
        <time>2019-08-27T12:49:43Z</time>
      </trkpt>
      <trkpt lat="43.68729" lon="2.44144">
        <ele>609.4</ele>
        <time>2019-08-27T12:49:47Z</time>
      </trkpt>
      <trkpt lat="43.68733" lon="2.44155">
        <ele>610.8</ele>
        <time>2019-08-27T12:49:52Z</time>
      </trkpt>
      <trkpt lat="43.68734" lon="2.44169">
        <ele>612.2</ele>
        <time>2019-08-27T12:49:57Z</time>
      </trkpt>
      <trkpt lat="43.68738" lon="2.44183">
        <ele>614</ele>
        <time>2019-08-27T12:50:04Z</time>
      </trkpt>
      <trkpt lat="43.68739" lon="2.44195">
        <ele>615</ele>
        <time>2019-08-27T12:50:09Z</time>
      </trkpt>
      <trkpt lat="43.6874" lon="2.44208">
        <ele>615.9</ele>
        <time>2019-08-27T12:50:14Z</time>
      </trkpt>
      <trkpt lat="43.68743" lon="2.44221">
        <ele>616.7</ele>
        <time>2019-08-27T12:50:19Z</time>
      </trkpt>
      <trkpt lat="43.68747" lon="2.44233">
        <ele>617.5</ele>
        <time>2019-08-27T12:50:24Z</time>
      </trkpt>
      <trkpt lat="43.68748" lon="2.44247">
        <ele>618.4</ele>
        <time>2019-08-27T12:50:30Z</time>
      </trkpt>
      <trkpt lat="43.6875" lon="2.44261">
        <ele>619</ele>
        <time>2019-08-27T12:50:35Z</time>
      </trkpt>
      <trkpt lat="43.68754" lon="2.44275">
        <ele>619.7</ele>
        <time>2019-08-27T12:50:41Z</time>
      </trkpt>
      <trkpt lat="43.68757" lon="2.44289">
        <ele>620.3</ele>
        <time>2019-08-27T12:50:46Z</time>
      </trkpt>
      <trkpt lat="43.68758" lon="2.44302">
        <ele>620.9</ele>
        <time>2019-08-27T12:50:51Z</time>
      </trkpt>
      <trkpt lat="43.68756" lon="2.44316">
        <ele>621.5</ele>
        <time>2019-08-27T12:50:56Z</time>
      </trkpt>
      <trkpt lat="43.68754" lon="2.44331">
        <ele>622.3</ele>
        <time>2019-08-27T12:51:02Z</time>
      </trkpt>
      <trkpt lat="43.68752" lon="2.44343">
        <ele>622.9</ele>
        <time>2019-08-27T12:51:08Z</time>
      </trkpt>
      <trkpt lat="43.68751" lon="2.44358">
        <ele>623.4</ele>
        <time>2019-08-27T12:51:15Z</time>
      </trkpt>
      <trkpt lat="43.68746" lon="2.44371">
        <ele>623.6</ele>
        <time>2019-08-27T12:51:20Z</time>
      </trkpt>
      <trkpt lat="43.68742" lon="2.44384">
        <ele>624</ele>
        <time>2019-08-27T12:51:26Z</time>
      </trkpt>
      <trkpt lat="43.6874" lon="2.44397">
        <ele>624.4</ele>
        <time>2019-08-27T12:51:32Z</time>
      </trkpt>
      <trkpt lat="43.68738" lon="2.44411">
        <ele>625</ele>
        <time>2019-08-27T12:51:38Z</time>
      </trkpt>
      <trkpt lat="43.68736" lon="2.44424">
        <ele>625.5</ele>
        <time>2019-08-27T12:51:43Z</time>
      </trkpt>
      <trkpt lat="43.68732" lon="2.44437">
        <ele>626.1</ele>
        <time>2019-08-27T12:51:48Z</time>
      </trkpt>
      <trkpt lat="43.6873" lon="2.4445">
        <ele>626.9</ele>
        <time>2019-08-27T12:51:53Z</time>
      </trkpt>
      <trkpt lat="43.68728" lon="2.44463">
        <ele>627.8</ele>
        <time>2019-08-27T12:51:58Z</time>
      </trkpt>
      <trkpt lat="43.68725" lon="2.44476">
        <ele>628.8</ele>
        <time>2019-08-27T12:52:03Z</time>
      </trkpt>
      <trkpt lat="43.68722" lon="2.44488">
        <ele>629.9</ele>
        <time>2019-08-27T12:52:08Z</time>
      </trkpt>
      <trkpt lat="43.6872" lon="2.44501">
        <ele>631.1</ele>
        <time>2019-08-27T12:52:13Z</time>
      </trkpt>
      <trkpt lat="43.68716" lon="2.44515">
        <ele>632.5</ele>
        <time>2019-08-27T12:52:18Z</time>
      </trkpt>
      <trkpt lat="43.6871" lon="2.44527">
        <ele>633.9</ele>
        <time>2019-08-27T12:52:23Z</time>
      </trkpt>
      <trkpt lat="43.68703" lon="2.44533">
        <ele>635.3</ele>
        <time>2019-08-27T12:52:28Z</time>
      </trkpt>
      <trkpt lat="43.68693" lon="2.44538">
        <ele>636.7</ele>
        <time>2019-08-27T12:52:34Z</time>
      </trkpt>
      <trkpt lat="43.68682" lon="2.44544">
        <ele>637.5</ele>
        <time>2019-08-27T12:52:39Z</time>
      </trkpt>
      <trkpt lat="43.68685" lon="2.44556">
        <ele>639.9</ele>
        <time>2019-08-27T12:52:55Z</time>
      </trkpt>
      <trkpt lat="43.68692" lon="2.44547">
        <ele>640.3</ele>
        <time>2019-08-27T12:52:58Z</time>
      </trkpt>
      <trkpt lat="43.68699" lon="2.44538">
        <ele>640.8</ele>
        <time>2019-08-27T12:53:02Z</time>
      </trkpt>
      <trkpt lat="43.687" lon="2.44551">
        <ele>641.8</ele>
        <time>2019-08-27T12:53:16Z</time>
      </trkpt>
      <trkpt lat="43.68697" lon="2.44563">
        <ele>642</ele>
        <time>2019-08-27T12:53:22Z</time>
      </trkpt>
      <trkpt lat="43.68697" lon="2.44578">
        <ele>642.1</ele>
        <time>2019-08-27T12:53:31Z</time>
      </trkpt>
      <trkpt lat="43.68705" lon="2.44586">
        <ele>646.4</ele>
        <time>2019-08-27T12:55:47Z</time>
      </trkpt>
      <trkpt lat="43.68707" lon="2.44599">
        <ele>646.8</ele>
        <time>2019-08-27T12:55:55Z</time>
      </trkpt>
      <trkpt lat="43.68706" lon="2.44614">
        <ele>646.7</ele>
        <time>2019-08-27T12:56:00Z</time>
      </trkpt>
      <trkpt lat="43.68706" lon="2.44628">
        <ele>646.6</ele>
        <time>2019-08-27T12:56:05Z</time>
      </trkpt>
      <trkpt lat="43.68707" lon="2.44643">
        <ele>646.5</ele>
        <time>2019-08-27T12:56:10Z</time>
      </trkpt>
      <trkpt lat="43.68708" lon="2.44655">
        <ele>646.6</ele>
        <time>2019-08-27T12:56:15Z</time>
      </trkpt>
      <trkpt lat="43.68706" lon="2.44667">
        <ele>651.4</ele>
        <time>2019-08-27T12:57:01Z</time>
      </trkpt>
      <trkpt lat="43.68708" lon="2.44681">
        <ele>652.7</ele>
        <time>2019-08-27T12:57:07Z</time>
      </trkpt>
      <trkpt lat="43.68709" lon="2.44694">
        <ele>653</ele>
        <time>2019-08-27T12:57:11Z</time>
      </trkpt>
      <trkpt lat="43.6871" lon="2.44711">
        <ele>652.9</ele>
        <time>2019-08-27T12:57:15Z</time>
      </trkpt>
      <trkpt lat="43.68708" lon="2.44724">
        <ele>652.7</ele>
        <time>2019-08-27T12:57:18Z</time>
      </trkpt>
      <trkpt lat="43.68706" lon="2.44739">
        <ele>652.3</ele>
        <time>2019-08-27T12:57:20Z</time>
      </trkpt>
      <trkpt lat="43.68704" lon="2.44751">
        <ele>651.4</ele>
        <time>2019-08-27T12:57:23Z</time>
      </trkpt>
      <trkpt lat="43.68702" lon="2.44767">
        <ele>650</ele>
        <time>2019-08-27T12:57:27Z</time>
      </trkpt>
      <trkpt lat="43.68698" lon="2.44782">
        <ele>648.2</ele>
        <time>2019-08-27T12:57:32Z</time>
      </trkpt>
      <trkpt lat="43.687" lon="2.44794">
        <ele>646.9</ele>
        <time>2019-08-27T12:57:35Z</time>
      </trkpt>
      <trkpt lat="43.68705" lon="2.44805">
        <ele>643.7</ele>
        <time>2019-08-27T12:57:37Z</time>
      </trkpt>
      <trkpt lat="43.68712" lon="2.44815">
        <ele>641.5</ele>
        <time>2019-08-27T12:57:39Z</time>
      </trkpt>
      <trkpt lat="43.68718" lon="2.44829">
        <ele>639.8</ele>
        <time>2019-08-27T12:57:42Z</time>
      </trkpt>
      <trkpt lat="43.68724" lon="2.44839">
        <ele>638.9</ele>
        <time>2019-08-27T12:57:44Z</time>
      </trkpt>
      <trkpt lat="43.6873" lon="2.44855">
        <ele>635.3</ele>
        <time>2019-08-27T12:57:47Z</time>
      </trkpt>
      <trkpt lat="43.68734" lon="2.44872">
        <ele>629.6</ele>
        <time>2019-08-27T12:57:49Z</time>
      </trkpt>
      <trkpt lat="43.68731" lon="2.44887">
        <ele>622.9</ele>
        <time>2019-08-27T12:57:52Z</time>
      </trkpt>
      <trkpt lat="43.68728" lon="2.44899">
        <ele>619.3</ele>
        <time>2019-08-27T12:57:54Z</time>
      </trkpt>
      <trkpt lat="43.68725" lon="2.44914">
        <ele>616.8</ele>
        <time>2019-08-27T12:57:56Z</time>
      </trkpt>
      <trkpt lat="43.68724" lon="2.44927">
        <ele>615.8</ele>
        <time>2019-08-27T12:57:59Z</time>
      </trkpt>
      <trkpt lat="43.68719" lon="2.44942">
        <ele>615.5</ele>
        <time>2019-08-27T12:58:03Z</time>
      </trkpt>
      <trkpt lat="43.68711" lon="2.44954">
        <ele>615.3</ele>
        <time>2019-08-27T12:58:06Z</time>
      </trkpt>
      <trkpt lat="43.68704" lon="2.44966">
        <ele>615.7</ele>
        <time>2019-08-27T12:58:08Z</time>
      </trkpt>
      <trkpt lat="43.68696" lon="2.44977">
        <ele>616.6</ele>
        <time>2019-08-27T12:58:10Z</time>
      </trkpt>
      <trkpt lat="43.68687" lon="2.44988">
        <ele>618.2</ele>
        <time>2019-08-27T12:58:12Z</time>
      </trkpt>
      <trkpt lat="43.68678" lon="2.44999">
        <ele>620.4</ele>
        <time>2019-08-27T12:58:14Z</time>
      </trkpt>
      <trkpt lat="43.68668" lon="2.45006">
        <ele>621.6</ele>
        <time>2019-08-27T12:58:17Z</time>
      </trkpt>
      <trkpt lat="43.68663" lon="2.4499">
        <ele>626.9</ele>
        <time>2019-08-27T12:58:21Z</time>
      </trkpt>
      <trkpt lat="43.68663" lon="2.44977">
        <ele>629.2</ele>
        <time>2019-08-27T12:58:23Z</time>
      </trkpt>
      <trkpt lat="43.68662" lon="2.44962">
        <ele>631.2</ele>
        <time>2019-08-27T12:58:25Z</time>
      </trkpt>
      <trkpt lat="43.68663" lon="2.44946">
        <ele>632.9</ele>
        <time>2019-08-27T12:58:27Z</time>
      </trkpt>
      <trkpt lat="43.68662" lon="2.44931">
        <ele>634.6</ele>
        <time>2019-08-27T12:58:29Z</time>
      </trkpt>
      <trkpt lat="43.68663" lon="2.44914">
        <ele>636.1</ele>
        <time>2019-08-27T12:58:31Z</time>
      </trkpt>
      <trkpt lat="43.68662" lon="2.44898">
        <ele>637.1</ele>
        <time>2019-08-27T12:58:33Z</time>
      </trkpt>
      <trkpt lat="43.68662" lon="2.44882">
        <ele>637.9</ele>
        <time>2019-08-27T12:58:35Z</time>
      </trkpt>
      <trkpt lat="43.68662" lon="2.44867">
        <ele>637.7</ele>
        <time>2019-08-27T12:58:37Z</time>
      </trkpt>
      <trkpt lat="43.68662" lon="2.4485">
        <ele>637</ele>
        <time>2019-08-27T12:58:40Z</time>
      </trkpt>
      <trkpt lat="43.68659" lon="2.44834">
        <ele>636.2</ele>
        <time>2019-08-27T12:58:42Z</time>
      </trkpt>
      <trkpt lat="43.68655" lon="2.44817">
        <ele>635.9</ele>
        <time>2019-08-27T12:58:44Z</time>
      </trkpt>
      <trkpt lat="43.68651" lon="2.44799">
        <ele>635.8</ele>
        <time>2019-08-27T12:58:46Z</time>
      </trkpt>
      <trkpt lat="43.68646" lon="2.44782">
        <ele>635.7</ele>
        <time>2019-08-27T12:58:48Z</time>
      </trkpt>
      <trkpt lat="43.68641" lon="2.44765">
        <ele>635.5</ele>
        <time>2019-08-27T12:58:50Z</time>
      </trkpt>
      <trkpt lat="43.68636" lon="2.44749">
        <ele>635.3</ele>
        <time>2019-08-27T12:58:52Z</time>
      </trkpt>
      <trkpt lat="43.68631" lon="2.44734">
        <ele>635</ele>
        <time>2019-08-27T12:58:54Z</time>
      </trkpt>
      <trkpt lat="43.68624" lon="2.44718">
        <ele>634.6</ele>
        <time>2019-08-27T12:58:57Z</time>
      </trkpt>
      <trkpt lat="43.68619" lon="2.44706">
        <ele>634.2</ele>
        <time>2019-08-27T12:58:59Z</time>
      </trkpt>
      <trkpt lat="43.68617" lon="2.44693">
        <ele>633.5</ele>
        <time>2019-08-27T12:59:01Z</time>
      </trkpt>
      <trkpt lat="43.68616" lon="2.44675">
        <ele>632.5</ele>
        <time>2019-08-27T12:59:04Z</time>
      </trkpt>
      <trkpt lat="43.68615" lon="2.44657">
        <ele>631.2</ele>
        <time>2019-08-27T12:59:07Z</time>
      </trkpt>
      <trkpt lat="43.68613" lon="2.4464">
        <ele>630.8</ele>
        <time>2019-08-27T12:59:10Z</time>
      </trkpt>
      <trkpt lat="43.68609" lon="2.44622">
        <ele>630.2</ele>
        <time>2019-08-27T12:59:13Z</time>
      </trkpt>
      <trkpt lat="43.68597" lon="2.4461">
        <ele>629.5</ele>
        <time>2019-08-27T12:59:16Z</time>
      </trkpt>
      <trkpt lat="43.68587" lon="2.44614">
        <ele>629.4</ele>
        <time>2019-08-27T12:59:18Z</time>
      </trkpt>
      <trkpt lat="43.68578" lon="2.44623">
        <ele>629.1</ele>
        <time>2019-08-27T12:59:20Z</time>
      </trkpt>
      <trkpt lat="43.68568" lon="2.44628">
        <ele>628.2</ele>
        <time>2019-08-27T12:59:22Z</time>
      </trkpt>
      <trkpt lat="43.68557" lon="2.44626">
        <ele>627.1</ele>
        <time>2019-08-27T12:59:24Z</time>
      </trkpt>
      <trkpt lat="43.68545" lon="2.4462">
        <ele>626.7</ele>
        <time>2019-08-27T12:59:26Z</time>
      </trkpt>
      <trkpt lat="43.68534" lon="2.44613">
        <ele>626</ele>
        <time>2019-08-27T12:59:29Z</time>
      </trkpt>
      <trkpt lat="43.68524" lon="2.44605">
        <ele>625.5</ele>
        <time>2019-08-27T12:59:32Z</time>
      </trkpt>
      <trkpt lat="43.68514" lon="2.44595">
        <ele>621.4</ele>
        <time>2019-08-27T12:59:35Z</time>
      </trkpt>
      <trkpt lat="43.68507" lon="2.44583">
        <ele>617.4</ele>
        <time>2019-08-27T12:59:37Z</time>
      </trkpt>
      <trkpt lat="43.68501" lon="2.44568">
        <ele>614.5</ele>
        <time>2019-08-27T12:59:39Z</time>
      </trkpt>
      <trkpt lat="43.68496" lon="2.44552">
        <ele>612.5</ele>
        <time>2019-08-27T12:59:41Z</time>
      </trkpt>
      <trkpt lat="43.68492" lon="2.44534">
        <ele>611.1</ele>
        <time>2019-08-27T12:59:43Z</time>
      </trkpt>
      <trkpt lat="43.68488" lon="2.44517">
        <ele>609.9</ele>
        <time>2019-08-27T12:59:45Z</time>
      </trkpt>
      <trkpt lat="43.68484" lon="2.44501">
        <ele>608.7</ele>
        <time>2019-08-27T12:59:47Z</time>
      </trkpt>
      <trkpt lat="43.68482" lon="2.44486">
        <ele>607.4</ele>
        <time>2019-08-27T12:59:49Z</time>
      </trkpt>
      <trkpt lat="43.6848" lon="2.44469">
        <ele>606.3</ele>
        <time>2019-08-27T12:59:51Z</time>
      </trkpt>
      <trkpt lat="43.68475" lon="2.44451">
        <ele>605.5</ele>
        <time>2019-08-27T12:59:53Z</time>
      </trkpt>
      <trkpt lat="43.6847" lon="2.44433">
        <ele>605</ele>
        <time>2019-08-27T12:59:55Z</time>
      </trkpt>
      <trkpt lat="43.68465" lon="2.44414">
        <ele>604.5</ele>
        <time>2019-08-27T12:59:57Z</time>
      </trkpt>
      <trkpt lat="43.68456" lon="2.444">
        <ele>604.1</ele>
        <time>2019-08-27T12:59:59Z</time>
      </trkpt>
      <trkpt lat="43.68447" lon="2.44388">
        <ele>604</ele>
        <time>2019-08-27T13:00:01Z</time>
      </trkpt>
      <trkpt lat="43.68439" lon="2.44376">
        <ele>603.8</ele>
        <time>2019-08-27T13:00:03Z</time>
      </trkpt>
      <trkpt lat="43.68427" lon="2.44362">
        <ele>604.5</ele>
        <time>2019-08-27T13:00:05Z</time>
      </trkpt>
      <trkpt lat="43.68416" lon="2.4435">
        <ele>606.1</ele>
        <time>2019-08-27T13:00:07Z</time>
      </trkpt>
      <trkpt lat="43.68399" lon="2.44338">
        <ele>606.8</ele>
        <time>2019-08-27T13:00:10Z</time>
      </trkpt>
      <trkpt lat="43.68387" lon="2.44333">
        <ele>608.1</ele>
        <time>2019-08-27T13:00:12Z</time>
      </trkpt>
      <trkpt lat="43.68376" lon="2.4433">
        <ele>608.8</ele>
        <time>2019-08-27T13:00:14Z</time>
      </trkpt>
      <trkpt lat="43.68365" lon="2.44328">
        <ele>609</ele>
        <time>2019-08-27T13:00:16Z</time>
      </trkpt>
      <trkpt lat="43.68356" lon="2.44326">
        <ele>609.1</ele>
        <time>2019-08-27T13:00:18Z</time>
      </trkpt>
      <trkpt lat="43.68345" lon="2.4432">
        <ele>609.1</ele>
        <time>2019-08-27T13:00:21Z</time>
      </trkpt>
      <trkpt lat="43.6834" lon="2.44307">
        <ele>609.4</ele>
        <time>2019-08-27T13:00:24Z</time>
      </trkpt>
      <trkpt lat="43.68333" lon="2.44295">
        <ele>609.5</ele>
        <time>2019-08-27T13:00:27Z</time>
      </trkpt>
      <trkpt lat="43.68326" lon="2.44281">
        <ele>609.6</ele>
        <time>2019-08-27T13:00:30Z</time>
      </trkpt>
      <trkpt lat="43.6832" lon="2.44271">
        <ele>610</ele>
        <time>2019-08-27T13:00:33Z</time>
      </trkpt>
      <trkpt lat="43.68312" lon="2.44262">
        <ele>610.6</ele>
        <time>2019-08-27T13:00:37Z</time>
      </trkpt>
      <trkpt lat="43.68303" lon="2.44255">
        <ele>611.4</ele>
        <time>2019-08-27T13:00:41Z</time>
      </trkpt>
      <trkpt lat="43.68295" lon="2.4425">
        <ele>612</ele>
        <time>2019-08-27T13:00:44Z</time>
      </trkpt>
      <trkpt lat="43.68283" lon="2.44252">
        <ele>612.4</ele>
        <time>2019-08-27T13:00:47Z</time>
      </trkpt>
      <trkpt lat="43.68271" lon="2.44254">
        <ele>612.7</ele>
        <time>2019-08-27T13:00:50Z</time>
      </trkpt>
      <trkpt lat="43.68262" lon="2.44257">
        <ele>612.8</ele>
        <time>2019-08-27T13:00:52Z</time>
      </trkpt>
      <trkpt lat="43.68251" lon="2.4426">
        <ele>613.5</ele>
        <time>2019-08-27T13:00:54Z</time>
      </trkpt>
      <trkpt lat="43.68239" lon="2.44263">
        <ele>614.4</ele>
        <time>2019-08-27T13:00:56Z</time>
      </trkpt>
      <trkpt lat="43.68227" lon="2.44266">
        <ele>614.7</ele>
        <time>2019-08-27T13:00:58Z</time>
      </trkpt>
      <trkpt lat="43.68216" lon="2.4427">
        <ele>615.2</ele>
        <time>2019-08-27T13:01:00Z</time>
      </trkpt>
      <trkpt lat="43.68205" lon="2.44273">
        <ele>615.9</ele>
        <time>2019-08-27T13:01:02Z</time>
      </trkpt>
      <trkpt lat="43.68193" lon="2.44277">
        <ele>616.9</ele>
        <time>2019-08-27T13:01:04Z</time>
      </trkpt>
      <trkpt lat="43.68183" lon="2.44282">
        <ele>617.5</ele>
        <time>2019-08-27T13:01:06Z</time>
      </trkpt>
      <trkpt lat="43.6817" lon="2.44286">
        <ele>617.4</ele>
        <time>2019-08-27T13:01:09Z</time>
      </trkpt>
      <trkpt lat="43.6816" lon="2.44284">
        <ele>616.9</ele>
        <time>2019-08-27T13:01:11Z</time>
      </trkpt>
      <trkpt lat="43.6815" lon="2.44275">
        <ele>616.6</ele>
        <time>2019-08-27T13:01:13Z</time>
      </trkpt>
      <trkpt lat="43.68143" lon="2.44265">
        <ele>616.7</ele>
        <time>2019-08-27T13:01:15Z</time>
      </trkpt>
      <trkpt lat="43.68136" lon="2.44255">
        <ele>616.8</ele>
        <time>2019-08-27T13:01:17Z</time>
      </trkpt>
      <trkpt lat="43.6813" lon="2.44245">
        <ele>616.5</ele>
        <time>2019-08-27T13:01:19Z</time>
      </trkpt>
      <trkpt lat="43.68123" lon="2.44235">
        <ele>616.3</ele>
        <time>2019-08-27T13:01:21Z</time>
      </trkpt>
      <trkpt lat="43.68117" lon="2.44225">
        <ele>616.2</ele>
        <time>2019-08-27T13:01:23Z</time>
      </trkpt>
      <trkpt lat="43.6811" lon="2.44213">
        <ele>616.4</ele>
        <time>2019-08-27T13:01:25Z</time>
      </trkpt>
      <trkpt lat="43.68103" lon="2.44202">
        <ele>616.5</ele>
        <time>2019-08-27T13:01:27Z</time>
      </trkpt>
      <trkpt lat="43.68096" lon="2.44193">
        <ele>616.5</ele>
        <time>2019-08-27T13:01:29Z</time>
      </trkpt>
      <trkpt lat="43.68086" lon="2.44184">
        <ele>616.5</ele>
        <time>2019-08-27T13:01:32Z</time>
      </trkpt>
      <trkpt lat="43.68076" lon="2.44178">
        <ele>616.3</ele>
        <time>2019-08-27T13:01:36Z</time>
      </trkpt>
      <trkpt lat="43.68066" lon="2.44173">
        <ele>615.9</ele>
        <time>2019-08-27T13:01:40Z</time>
      </trkpt>
      <trkpt lat="43.68056" lon="2.44172">
        <ele>615.5</ele>
        <time>2019-08-27T13:01:44Z</time>
      </trkpt>
      <trkpt lat="43.68045" lon="2.44172">
        <ele>614.9</ele>
        <time>2019-08-27T13:01:49Z</time>
      </trkpt>
      <trkpt lat="43.68035" lon="2.44171">
        <ele>614.2</ele>
        <time>2019-08-27T13:01:55Z</time>
      </trkpt>
      <trkpt lat="43.68024" lon="2.4417">
        <ele>614.2</ele>
        <time>2019-08-27T13:01:59Z</time>
      </trkpt>
      <trkpt lat="43.68014" lon="2.44171">
        <ele>614.5</ele>
        <time>2019-08-27T13:02:05Z</time>
      </trkpt>
      <trkpt lat="43.68005" lon="2.44171">
        <ele>614.6</ele>
        <time>2019-08-27T13:02:09Z</time>
      </trkpt>
      <trkpt lat="43.67995" lon="2.44173">
        <ele>614.6</ele>
        <time>2019-08-27T13:02:13Z</time>
      </trkpt>
      <trkpt lat="43.67985" lon="2.44175">
        <ele>614.7</ele>
        <time>2019-08-27T13:02:17Z</time>
      </trkpt>
      <trkpt lat="43.67976" lon="2.44179">
        <ele>614.7</ele>
        <time>2019-08-27T13:02:21Z</time>
      </trkpt>
      <trkpt lat="43.67966" lon="2.44187">
        <ele>614.7</ele>
        <time>2019-08-27T13:02:26Z</time>
      </trkpt>
      <trkpt lat="43.67957" lon="2.44191">
        <ele>614.8</ele>
        <time>2019-08-27T13:02:30Z</time>
      </trkpt>
      <trkpt lat="43.67946" lon="2.44195">
        <ele>615.2</ele>
        <time>2019-08-27T13:02:35Z</time>
      </trkpt>
      <trkpt lat="43.67938" lon="2.44199">
        <ele>615.8</ele>
        <time>2019-08-27T13:02:39Z</time>
      </trkpt>
      <trkpt lat="43.67928" lon="2.44207">
        <ele>616.7</ele>
        <time>2019-08-27T13:02:43Z</time>
      </trkpt>
      <trkpt lat="43.67919" lon="2.44213">
        <ele>618.3</ele>
        <time>2019-08-27T13:02:48Z</time>
      </trkpt>
      <trkpt lat="43.67911" lon="2.44222">
        <ele>619.8</ele>
        <time>2019-08-27T13:02:53Z</time>
      </trkpt>
      <trkpt lat="43.67904" lon="2.4423">
        <ele>621.3</ele>
        <time>2019-08-27T13:02:59Z</time>
      </trkpt>
      <trkpt lat="43.67898" lon="2.44241">
        <ele>622.4</ele>
        <time>2019-08-27T13:03:04Z</time>
      </trkpt>
      <trkpt lat="43.67891" lon="2.44251">
        <ele>623.4</ele>
        <time>2019-08-27T13:03:10Z</time>
      </trkpt>
      <trkpt lat="43.67885" lon="2.44264">
        <ele>624.1</ele>
        <time>2019-08-27T13:03:15Z</time>
      </trkpt>
      <trkpt lat="43.67878" lon="2.44274">
        <ele>624.6</ele>
        <time>2019-08-27T13:03:19Z</time>
      </trkpt>
      <trkpt lat="43.67868" lon="2.44283">
        <ele>624.9</ele>
        <time>2019-08-27T13:03:23Z</time>
      </trkpt>
      <trkpt lat="43.67858" lon="2.44291">
        <ele>625.2</ele>
        <time>2019-08-27T13:03:27Z</time>
      </trkpt>
      <trkpt lat="43.67848" lon="2.443">
        <ele>625.5</ele>
        <time>2019-08-27T13:03:31Z</time>
      </trkpt>
      <trkpt lat="43.6784" lon="2.44309">
        <ele>626</ele>
        <time>2019-08-27T13:03:35Z</time>
      </trkpt>
      <trkpt lat="43.67831" lon="2.44314">
        <ele>626.6</ele>
        <time>2019-08-27T13:03:40Z</time>
      </trkpt>
      <trkpt lat="43.67822" lon="2.44317">
        <ele>627</ele>
        <time>2019-08-27T13:03:43Z</time>
      </trkpt>
      <trkpt lat="43.67812" lon="2.44317">
        <ele>627.6</ele>
        <time>2019-08-27T13:03:46Z</time>
      </trkpt>
      <trkpt lat="43.67803" lon="2.44316">
        <ele>628.2</ele>
        <time>2019-08-27T13:03:49Z</time>
      </trkpt>
      <trkpt lat="43.67793" lon="2.44316">
        <ele>629</ele>
        <time>2019-08-27T13:03:53Z</time>
      </trkpt>
      <trkpt lat="43.67783" lon="2.44312">
        <ele>629.6</ele>
        <time>2019-08-27T13:03:57Z</time>
      </trkpt>
      <trkpt lat="43.67775" lon="2.44309">
        <ele>630</ele>
        <time>2019-08-27T13:04:01Z</time>
      </trkpt>
      <trkpt lat="43.67766" lon="2.44304">
        <ele>630.4</ele>
        <time>2019-08-27T13:04:05Z</time>
      </trkpt>
      <trkpt lat="43.67758" lon="2.44297">
        <ele>631</ele>
        <time>2019-08-27T13:04:09Z</time>
      </trkpt>
      <trkpt lat="43.67748" lon="2.44293">
        <ele>632.2</ele>
        <time>2019-08-27T13:04:14Z</time>
      </trkpt>
      <trkpt lat="43.67739" lon="2.44296">
        <ele>634.1</ele>
        <time>2019-08-27T13:04:21Z</time>
      </trkpt>
      <trkpt lat="43.6773" lon="2.44303">
        <ele>635.2</ele>
        <time>2019-08-27T13:04:27Z</time>
      </trkpt>
      <trkpt lat="43.67722" lon="2.44308">
        <ele>635.8</ele>
        <time>2019-08-27T13:04:31Z</time>
      </trkpt>
      <trkpt lat="43.67711" lon="2.44312">
        <ele>636.6</ele>
        <time>2019-08-27T13:04:35Z</time>
      </trkpt>
      <trkpt lat="43.677" lon="2.44318">
        <ele>638.3</ele>
        <time>2019-08-27T13:04:38Z</time>
      </trkpt>
      <trkpt lat="43.67688" lon="2.44325">
        <ele>640.9</ele>
        <time>2019-08-27T13:04:41Z</time>
      </trkpt>
      <trkpt lat="43.67677" lon="2.44334">
        <ele>641.9</ele>
        <time>2019-08-27T13:04:44Z</time>
      </trkpt>
      <trkpt lat="43.67667" lon="2.44344">
        <ele>642.6</ele>
        <time>2019-08-27T13:04:46Z</time>
      </trkpt>
      <trkpt lat="43.67657" lon="2.44359">
        <ele>642.6</ele>
        <time>2019-08-27T13:04:48Z</time>
      </trkpt>
      <trkpt lat="43.67645" lon="2.44378">
        <ele>642.2</ele>
        <time>2019-08-27T13:04:50Z</time>
      </trkpt>
      <trkpt lat="43.67632" lon="2.44394">
        <ele>641.5</ele>
        <time>2019-08-27T13:04:52Z</time>
      </trkpt>
      <trkpt lat="43.67621" lon="2.4441">
        <ele>641.1</ele>
        <time>2019-08-27T13:04:54Z</time>
      </trkpt>
      <trkpt lat="43.67611" lon="2.44423">
        <ele>641</ele>
        <time>2019-08-27T13:04:56Z</time>
      </trkpt>
      <trkpt lat="43.67601" lon="2.44435">
        <ele>641.3</ele>
        <time>2019-08-27T13:04:58Z</time>
      </trkpt>
      <trkpt lat="43.6759" lon="2.44447">
        <ele>642.2</ele>
        <time>2019-08-27T13:05:00Z</time>
      </trkpt>
      <trkpt lat="43.6758" lon="2.44458">
        <ele>643</ele>
        <time>2019-08-27T13:05:02Z</time>
      </trkpt>
      <trkpt lat="43.6757" lon="2.44468">
        <ele>643.6</ele>
        <time>2019-08-27T13:05:04Z</time>
      </trkpt>
      <trkpt lat="43.67561" lon="2.44478">
        <ele>644</ele>
        <time>2019-08-27T13:05:06Z</time>
      </trkpt>
      <trkpt lat="43.67553" lon="2.44489">
        <ele>644</ele>
        <time>2019-08-27T13:05:08Z</time>
      </trkpt>
      <trkpt lat="43.67545" lon="2.445">
        <ele>643.9</ele>
        <time>2019-08-27T13:05:10Z</time>
      </trkpt>
      <trkpt lat="43.67539" lon="2.44511">
        <ele>643.9</ele>
        <time>2019-08-27T13:05:12Z</time>
      </trkpt>
      <trkpt lat="43.67531" lon="2.44526">
        <ele>643.8</ele>
        <time>2019-08-27T13:05:15Z</time>
      </trkpt>
      <trkpt lat="43.67526" lon="2.44537">
        <ele>643.8</ele>
        <time>2019-08-27T13:05:19Z</time>
      </trkpt>
      <trkpt lat="43.67532" lon="2.4455">
        <ele>643.9</ele>
        <time>2019-08-27T13:05:24Z</time>
      </trkpt>
      <trkpt lat="43.67543" lon="2.44557">
        <ele>644</ele>
        <time>2019-08-27T13:05:28Z</time>
      </trkpt>
      <trkpt lat="43.67553" lon="2.44561">
        <ele>644.1</ele>
        <time>2019-08-27T13:05:32Z</time>
      </trkpt>
      <trkpt lat="43.67562" lon="2.44565">
        <ele>644.4</ele>
        <time>2019-08-27T13:05:36Z</time>
      </trkpt>
      <trkpt lat="43.67571" lon="2.44567">
        <ele>644.6</ele>
        <time>2019-08-27T13:05:40Z</time>
      </trkpt>
      <trkpt lat="43.67581" lon="2.44571">
        <ele>644.9</ele>
        <time>2019-08-27T13:05:44Z</time>
      </trkpt>
      <trkpt lat="43.67591" lon="2.44576">
        <ele>645.1</ele>
        <time>2019-08-27T13:05:48Z</time>
      </trkpt>
      <trkpt lat="43.676" lon="2.4458">
        <ele>645.3</ele>
        <time>2019-08-27T13:05:52Z</time>
      </trkpt>
      <trkpt lat="43.67609" lon="2.44584">
        <ele>645.5</ele>
        <time>2019-08-27T13:05:56Z</time>
      </trkpt>
      <trkpt lat="43.67619" lon="2.44585">
        <ele>645.5</ele>
        <time>2019-08-27T13:06:01Z</time>
      </trkpt>
      <trkpt lat="43.67629" lon="2.44589">
        <ele>645.4</ele>
        <time>2019-08-27T13:06:05Z</time>
      </trkpt>
      <trkpt lat="43.67639" lon="2.44593">
        <ele>645.3</ele>
        <time>2019-08-27T13:06:10Z</time>
      </trkpt>
      <trkpt lat="43.6765" lon="2.44597">
        <ele>645.4</ele>
        <time>2019-08-27T13:06:16Z</time>
      </trkpt>
      <trkpt lat="43.67658" lon="2.44604">
        <ele>645.6</ele>
        <time>2019-08-27T13:06:21Z</time>
      </trkpt>
      <trkpt lat="43.67668" lon="2.44608">
        <ele>645.9</ele>
        <time>2019-08-27T13:06:27Z</time>
      </trkpt>
      <trkpt lat="43.67677" lon="2.44614">
        <ele>646.1</ele>
        <time>2019-08-27T13:06:33Z</time>
      </trkpt>
      <trkpt lat="43.67686" lon="2.44621">
        <ele>646.3</ele>
        <time>2019-08-27T13:06:43Z</time>
      </trkpt>
      <trkpt lat="43.67695" lon="2.4463">
        <ele>646.3</ele>
        <time>2019-08-27T13:06:48Z</time>
      </trkpt>
      <trkpt lat="43.67705" lon="2.44635">
        <ele>646.3</ele>
        <time>2019-08-27T13:06:52Z</time>
      </trkpt>
      <trkpt lat="43.67715" lon="2.44637">
        <ele>646.4</ele>
        <time>2019-08-27T13:06:56Z</time>
      </trkpt>
      <trkpt lat="43.67725" lon="2.44643">
        <ele>646.6</ele>
        <time>2019-08-27T13:07:00Z</time>
      </trkpt>
      <trkpt lat="43.67736" lon="2.44648">
        <ele>647</ele>
        <time>2019-08-27T13:07:05Z</time>
      </trkpt>
      <trkpt lat="43.67746" lon="2.44651">
        <ele>647.4</ele>
        <time>2019-08-27T13:07:10Z</time>
      </trkpt>
      <trkpt lat="43.67757" lon="2.44662">
        <ele>647.9</ele>
        <time>2019-08-27T13:07:17Z</time>
      </trkpt>
      <trkpt lat="43.67768" lon="2.44673">
        <ele>648.2</ele>
        <time>2019-08-27T13:07:20Z</time>
      </trkpt>
      <trkpt lat="43.67779" lon="2.4468">
        <ele>648.4</ele>
        <time>2019-08-27T13:07:22Z</time>
      </trkpt>
      <trkpt lat="43.67793" lon="2.44684">
        <ele>648.6</ele>
        <time>2019-08-27T13:07:24Z</time>
      </trkpt>
      <trkpt lat="43.67808" lon="2.44688">
        <ele>648.8</ele>
        <time>2019-08-27T13:07:27Z</time>
      </trkpt>
      <trkpt lat="43.67821" lon="2.44693">
        <ele>649</ele>
        <time>2019-08-27T13:07:30Z</time>
      </trkpt>
      <trkpt lat="43.67831" lon="2.44695">
        <ele>649</ele>
        <time>2019-08-27T13:07:34Z</time>
      </trkpt>
      <trkpt lat="43.6784" lon="2.44708">
        <ele>648.7</ele>
        <time>2019-08-27T13:07:37Z</time>
      </trkpt>
      <trkpt lat="43.67847" lon="2.44721">
        <ele>647.2</ele>
        <time>2019-08-27T13:07:39Z</time>
      </trkpt>
      <trkpt lat="43.6785" lon="2.44735">
        <ele>640.9</ele>
        <time>2019-08-27T13:07:42Z</time>
      </trkpt>
      <trkpt lat="43.67857" lon="2.4475">
        <ele>633.1</ele>
        <time>2019-08-27T13:07:45Z</time>
      </trkpt>
      <trkpt lat="43.67865" lon="2.44764">
        <ele>628.6</ele>
        <time>2019-08-27T13:07:47Z</time>
      </trkpt>
      <trkpt lat="43.6787" lon="2.4478">
        <ele>625.3</ele>
        <time>2019-08-27T13:07:49Z</time>
      </trkpt>
      <trkpt lat="43.67877" lon="2.44797">
        <ele>623.1</ele>
        <time>2019-08-27T13:07:51Z</time>
      </trkpt>
      <trkpt lat="43.67889" lon="2.44819">
        <ele>622.3</ele>
        <time>2019-08-27T13:07:53Z</time>
      </trkpt>
      <trkpt lat="43.67896" lon="2.4483">
        <ele>622.8</ele>
        <time>2019-08-27T13:07:54Z</time>
      </trkpt>
      <trkpt lat="43.67903" lon="2.44849">
        <ele>624.8</ele>
        <time>2019-08-27T13:07:56Z</time>
      </trkpt>
      <trkpt lat="43.6791" lon="2.44869">
        <ele>627.2</ele>
        <time>2019-08-27T13:07:58Z</time>
      </trkpt>
      <trkpt lat="43.67913" lon="2.44888">
        <ele>629.2</ele>
        <time>2019-08-27T13:08:00Z</time>
      </trkpt>
      <trkpt lat="43.67914" lon="2.44906">
        <ele>630.6</ele>
        <time>2019-08-27T13:08:02Z</time>
      </trkpt>
      <trkpt lat="43.67918" lon="2.44925">
        <ele>631.7</ele>
        <time>2019-08-27T13:08:04Z</time>
      </trkpt>
      <trkpt lat="43.67924" lon="2.44946">
        <ele>632.5</ele>
        <time>2019-08-27T13:08:06Z</time>
      </trkpt>
      <trkpt lat="43.67932" lon="2.44966">
        <ele>634.1</ele>
        <time>2019-08-27T13:08:08Z</time>
      </trkpt>
      <trkpt lat="43.67939" lon="2.44981">
        <ele>635.7</ele>
        <time>2019-08-27T13:08:10Z</time>
      </trkpt>
      <trkpt lat="43.6795" lon="2.44993">
        <ele>637.6</ele>
        <time>2019-08-27T13:08:12Z</time>
      </trkpt>
      <trkpt lat="43.6796" lon="2.45002">
        <ele>639.5</ele>
        <time>2019-08-27T13:08:14Z</time>
      </trkpt>
      <trkpt lat="43.67969" lon="2.45011">
        <ele>640.8</ele>
        <time>2019-08-27T13:08:16Z</time>
      </trkpt>
      <trkpt lat="43.67978" lon="2.45021">
        <ele>641.6</ele>
        <time>2019-08-27T13:08:18Z</time>
      </trkpt>
      <trkpt lat="43.67982" lon="2.45035">
        <ele>641.9</ele>
        <time>2019-08-27T13:08:21Z</time>
      </trkpt>
      <trkpt lat="43.67977" lon="2.45047">
        <ele>642</ele>
        <time>2019-08-27T13:08:24Z</time>
      </trkpt>
      <trkpt lat="43.67971" lon="2.45062">
        <ele>642.1</ele>
        <time>2019-08-27T13:08:27Z</time>
      </trkpt>
      <trkpt lat="43.67966" lon="2.45075">
        <ele>642.2</ele>
        <time>2019-08-27T13:08:30Z</time>
      </trkpt>
      <trkpt lat="43.67961" lon="2.45085">
        <ele>642.3</ele>
        <time>2019-08-27T13:08:33Z</time>
      </trkpt>
      <trkpt lat="43.67954" lon="2.45098">
        <ele>642.3</ele>
        <time>2019-08-27T13:08:36Z</time>
      </trkpt>
      <trkpt lat="43.67946" lon="2.4511">
        <ele>642.4</ele>
        <time>2019-08-27T13:08:39Z</time>
      </trkpt>
      <trkpt lat="43.67941" lon="2.45121">
        <ele>642.6</ele>
        <time>2019-08-27T13:08:41Z</time>
      </trkpt>
      <trkpt lat="43.67937" lon="2.45133">
        <ele>642.8</ele>
        <time>2019-08-27T13:08:43Z</time>
      </trkpt>
      <trkpt lat="43.67932" lon="2.45144">
        <ele>643.3</ele>
        <time>2019-08-27T13:08:45Z</time>
      </trkpt>
      <trkpt lat="43.67925" lon="2.45155">
        <ele>643.7</ele>
        <time>2019-08-27T13:08:47Z</time>
      </trkpt>
      <trkpt lat="43.67914" lon="2.45166">
        <ele>643.7</ele>
        <time>2019-08-27T13:08:50Z</time>
      </trkpt>
      <trkpt lat="43.67905" lon="2.4517">
        <ele>642.6</ele>
        <time>2019-08-27T13:08:52Z</time>
      </trkpt>
      <trkpt lat="43.67897" lon="2.4518">
        <ele>641.8</ele>
        <time>2019-08-27T13:08:54Z</time>
      </trkpt>
      <trkpt lat="43.67889" lon="2.45189">
        <ele>640.2</ele>
        <time>2019-08-27T13:08:56Z</time>
      </trkpt>
      <trkpt lat="43.67881" lon="2.45196">
        <ele>639.6</ele>
        <time>2019-08-27T13:08:58Z</time>
      </trkpt>
      <trkpt lat="43.67871" lon="2.45206">
        <ele>636.3</ele>
        <time>2019-08-27T13:09:00Z</time>
      </trkpt>
      <trkpt lat="43.67864" lon="2.45219">
        <ele>633.1</ele>
        <time>2019-08-27T13:09:02Z</time>
      </trkpt>
      <trkpt lat="43.67857" lon="2.45234">
        <ele>630.1</ele>
        <time>2019-08-27T13:09:04Z</time>
      </trkpt>
      <trkpt lat="43.67854" lon="2.45247">
        <ele>627.7</ele>
        <time>2019-08-27T13:09:06Z</time>
      </trkpt>
      <trkpt lat="43.67853" lon="2.45263">
        <ele>624.3</ele>
        <time>2019-08-27T13:09:08Z</time>
      </trkpt>
      <trkpt lat="43.67856" lon="2.45277">
        <ele>621.5</ele>
        <time>2019-08-27T13:09:11Z</time>
      </trkpt>
      <trkpt lat="43.67862" lon="2.45295">
        <ele>619.1</ele>
        <time>2019-08-27T13:09:13Z</time>
      </trkpt>
      <trkpt lat="43.67867" lon="2.45312">
        <ele>617.3</ele>
        <time>2019-08-27T13:09:15Z</time>
      </trkpt>
      <trkpt lat="43.67872" lon="2.45332">
        <ele>616.6</ele>
        <time>2019-08-27T13:09:17Z</time>
      </trkpt>
      <trkpt lat="43.67877" lon="2.45349">
        <ele>616.7</ele>
        <time>2019-08-27T13:09:19Z</time>
      </trkpt>
      <trkpt lat="43.67883" lon="2.45362">
        <ele>616.4</ele>
        <time>2019-08-27T13:09:21Z</time>
      </trkpt>
      <trkpt lat="43.67891" lon="2.45371">
        <ele>615.9</ele>
        <time>2019-08-27T13:09:23Z</time>
      </trkpt>
      <trkpt lat="43.67905" lon="2.4537">
        <ele>615.2</ele>
        <time>2019-08-27T13:09:25Z</time>
      </trkpt>
      <trkpt lat="43.67922" lon="2.45379">
        <ele>614.2</ele>
        <time>2019-08-27T13:09:27Z</time>
      </trkpt>
      <trkpt lat="43.67932" lon="2.45385">
        <ele>613.8</ele>
        <time>2019-08-27T13:09:28Z</time>
      </trkpt>
      <trkpt lat="43.67942" lon="2.45388">
        <ele>613.5</ele>
        <time>2019-08-27T13:09:29Z</time>
      </trkpt>
      <trkpt lat="43.67951" lon="2.45394">
        <ele>613.3</ele>
        <time>2019-08-27T13:09:30Z</time>
      </trkpt>
      <trkpt lat="43.6796" lon="2.45399">
        <ele>613.2</ele>
        <time>2019-08-27T13:09:31Z</time>
      </trkpt>
      <trkpt lat="43.67973" lon="2.45407">
        <ele>613.1</ele>
        <time>2019-08-27T13:09:33Z</time>
      </trkpt>
      <trkpt lat="43.67979" lon="2.45419">
        <ele>613</ele>
        <time>2019-08-27T13:09:35Z</time>
      </trkpt>
      <trkpt lat="43.67975" lon="2.45437">
        <ele>611.5</ele>
        <time>2019-08-27T13:09:38Z</time>
      </trkpt>
      <trkpt lat="43.67967" lon="2.45447">
        <ele>610.1</ele>
        <time>2019-08-27T13:09:40Z</time>
      </trkpt>
      <trkpt lat="43.67956" lon="2.45455">
        <ele>608.5</ele>
        <time>2019-08-27T13:09:42Z</time>
      </trkpt>
      <trkpt lat="43.67944" lon="2.45466">
        <ele>607.2</ele>
        <time>2019-08-27T13:09:44Z</time>
      </trkpt>
      <trkpt lat="43.67933" lon="2.45475">
        <ele>605.8</ele>
        <time>2019-08-27T13:09:46Z</time>
      </trkpt>
      <trkpt lat="43.67922" lon="2.45481">
        <ele>605.2</ele>
        <time>2019-08-27T13:09:48Z</time>
      </trkpt>
      <trkpt lat="43.67913" lon="2.4549">
        <ele>605.2</ele>
        <time>2019-08-27T13:09:50Z</time>
      </trkpt>
      <trkpt lat="43.67905" lon="2.45505">
        <ele>605.6</ele>
        <time>2019-08-27T13:09:52Z</time>
      </trkpt>
      <trkpt lat="43.67896" lon="2.4552">
        <ele>605.9</ele>
        <time>2019-08-27T13:09:54Z</time>
      </trkpt>
      <trkpt lat="43.67886" lon="2.45535">
        <ele>606.1</ele>
        <time>2019-08-27T13:09:56Z</time>
      </trkpt>
      <trkpt lat="43.67874" lon="2.4554">
        <ele>606.5</ele>
        <time>2019-08-27T13:09:58Z</time>
      </trkpt>
      <trkpt lat="43.67861" lon="2.45539">
        <ele>606.9</ele>
        <time>2019-08-27T13:10:00Z</time>
      </trkpt>
      <trkpt lat="43.67848" lon="2.4554">
        <ele>607.7</ele>
        <time>2019-08-27T13:10:02Z</time>
      </trkpt>
      <trkpt lat="43.67833" lon="2.45551">
        <ele>608.5</ele>
        <time>2019-08-27T13:10:04Z</time>
      </trkpt>
      <trkpt lat="43.67817" lon="2.45557">
        <ele>608.4</ele>
        <time>2019-08-27T13:10:06Z</time>
      </trkpt>
      <trkpt lat="43.67803" lon="2.45563">
        <ele>607.4</ele>
        <time>2019-08-27T13:10:08Z</time>
      </trkpt>
      <trkpt lat="43.67788" lon="2.45574">
        <ele>606.3</ele>
        <time>2019-08-27T13:10:10Z</time>
      </trkpt>
      <trkpt lat="43.67777" lon="2.45586">
        <ele>605.3</ele>
        <time>2019-08-27T13:10:12Z</time>
      </trkpt>
      <trkpt lat="43.67766" lon="2.45599">
        <ele>604</ele>
        <time>2019-08-27T13:10:14Z</time>
      </trkpt>
      <trkpt lat="43.67754" lon="2.45609">
        <ele>602.9</ele>
        <time>2019-08-27T13:10:16Z</time>
      </trkpt>
      <trkpt lat="43.67744" lon="2.45618">
        <ele>601.6</ele>
        <time>2019-08-27T13:10:18Z</time>
      </trkpt>
      <trkpt lat="43.67734" lon="2.45631">
        <ele>599.6</ele>
        <time>2019-08-27T13:10:20Z</time>
      </trkpt>
      <trkpt lat="43.67723" lon="2.45645">
        <ele>597.1</ele>
        <time>2019-08-27T13:10:22Z</time>
      </trkpt>
      <trkpt lat="43.67714" lon="2.4566">
        <ele>594.5</ele>
        <time>2019-08-27T13:10:24Z</time>
      </trkpt>
      <trkpt lat="43.67705" lon="2.45675">
        <ele>591.2</ele>
        <time>2019-08-27T13:10:26Z</time>
      </trkpt>
      <trkpt lat="43.67701" lon="2.45692">
        <ele>585.6</ele>
        <time>2019-08-27T13:10:29Z</time>
      </trkpt>
      <trkpt lat="43.67692" lon="2.45702">
        <ele>579.9</ele>
        <time>2019-08-27T13:10:32Z</time>
      </trkpt>
      <trkpt lat="43.67685" lon="2.45715">
        <ele>575</ele>
        <time>2019-08-27T13:10:34Z</time>
      </trkpt>
      <trkpt lat="43.67679" lon="2.4573">
        <ele>570.7</ele>
        <time>2019-08-27T13:10:36Z</time>
      </trkpt>
      <trkpt lat="43.67675" lon="2.45742">
        <ele>568.7</ele>
        <time>2019-08-27T13:10:38Z</time>
      </trkpt>
      <trkpt lat="43.67677" lon="2.45761">
        <ele>568.7</ele>
        <time>2019-08-27T13:10:52Z</time>
      </trkpt>
      <trkpt lat="43.67683" lon="2.45773">
        <ele>577.7</ele>
        <time>2019-08-27T13:12:36Z</time>
      </trkpt>
      <trkpt lat="43.67691" lon="2.45784">
        <ele>579.1</ele>
        <time>2019-08-27T13:12:42Z</time>
      </trkpt>
      <trkpt lat="43.67701" lon="2.4579">
        <ele>579.6</ele>
        <time>2019-08-27T13:12:45Z</time>
      </trkpt>
      <trkpt lat="43.67712" lon="2.458">
        <ele>580.2</ele>
        <time>2019-08-27T13:12:49Z</time>
      </trkpt>
      <trkpt lat="43.67718" lon="2.45813">
        <ele>579.6</ele>
        <time>2019-08-27T13:12:53Z</time>
      </trkpt>
      <trkpt lat="43.67724" lon="2.45826">
        <ele>578.2</ele>
        <time>2019-08-27T13:12:55Z</time>
      </trkpt>
      <trkpt lat="43.67734" lon="2.45843">
        <ele>575.9</ele>
        <time>2019-08-27T13:12:57Z</time>
      </trkpt>
      <trkpt lat="43.67741" lon="2.45865">
        <ele>573.5</ele>
        <time>2019-08-27T13:12:59Z</time>
      </trkpt>
      <trkpt lat="43.67745" lon="2.45879">
        <ele>572.4</ele>
        <time>2019-08-27T13:13:00Z</time>
      </trkpt>
      <trkpt lat="43.67748" lon="2.45893">
        <ele>571.7</ele>
        <time>2019-08-27T13:13:01Z</time>
      </trkpt>
      <trkpt lat="43.6775" lon="2.45906">
        <ele>571.2</ele>
        <time>2019-08-27T13:13:02Z</time>
      </trkpt>
      <trkpt lat="43.67753" lon="2.45928">
        <ele>570.5</ele>
        <time>2019-08-27T13:13:04Z</time>
      </trkpt>
      <trkpt lat="43.67755" lon="2.45949">
        <ele>571.1</ele>
        <time>2019-08-27T13:13:06Z</time>
      </trkpt>
      <trkpt lat="43.6776" lon="2.45967">
        <ele>572</ele>
        <time>2019-08-27T13:13:08Z</time>
      </trkpt>
      <trkpt lat="43.67767" lon="2.45981">
        <ele>571.8</ele>
        <time>2019-08-27T13:13:10Z</time>
      </trkpt>
      <trkpt lat="43.67775" lon="2.45993">
        <ele>571</ele>
        <time>2019-08-27T13:13:12Z</time>
      </trkpt>
      <trkpt lat="43.67784" lon="2.46003">
        <ele>569.8</ele>
        <time>2019-08-27T13:13:14Z</time>
      </trkpt>
      <trkpt lat="43.67795" lon="2.46014">
        <ele>568.5</ele>
        <time>2019-08-27T13:13:16Z</time>
      </trkpt>
      <trkpt lat="43.67801" lon="2.46028">
        <ele>567.8</ele>
        <time>2019-08-27T13:13:18Z</time>
      </trkpt>
      <trkpt lat="43.67796" lon="2.46042">
        <ele>567.5</ele>
        <time>2019-08-27T13:13:20Z</time>
      </trkpt>
      <trkpt lat="43.67786" lon="2.46048">
        <ele>567.2</ele>
        <time>2019-08-27T13:13:22Z</time>
      </trkpt>
      <trkpt lat="43.67779" lon="2.46056">
        <ele>567.2</ele>
        <time>2019-08-27T13:13:24Z</time>
      </trkpt>
      <trkpt lat="43.67773" lon="2.46068">
        <ele>567.3</ele>
        <time>2019-08-27T13:13:27Z</time>
      </trkpt>
      <trkpt lat="43.67768" lon="2.4608">
        <ele>567.6</ele>
        <time>2019-08-27T13:13:30Z</time>
      </trkpt>
      <trkpt lat="43.67765" lon="2.46094">
        <ele>568.3</ele>
        <time>2019-08-27T13:13:34Z</time>
      </trkpt>
      <trkpt lat="43.67763" lon="2.46108">
        <ele>569</ele>
        <time>2019-08-27T13:13:37Z</time>
      </trkpt>
      <trkpt lat="43.6776" lon="2.46121">
        <ele>569.8</ele>
        <time>2019-08-27T13:13:40Z</time>
      </trkpt>
      <trkpt lat="43.67756" lon="2.46135">
        <ele>571.6</ele>
        <time>2019-08-27T13:13:45Z</time>
      </trkpt>
      <trkpt lat="43.67753" lon="2.46149">
        <ele>573.5</ele>
        <time>2019-08-27T13:13:50Z</time>
      </trkpt>
      <trkpt lat="43.67747" lon="2.46161">
        <ele>575.6</ele>
        <time>2019-08-27T13:13:56Z</time>
      </trkpt>
      <trkpt lat="43.67752" lon="2.46172">
        <ele>579.1</ele>
        <time>2019-08-27T13:14:05Z</time>
      </trkpt>
      <trkpt lat="43.67763" lon="2.46172">
        <ele>582.2</ele>
        <time>2019-08-27T13:14:13Z</time>
      </trkpt>
      <trkpt lat="43.67771" lon="2.46178">
        <ele>584.6</ele>
        <time>2019-08-27T13:14:20Z</time>
      </trkpt>
      <trkpt lat="43.67782" lon="2.46167">
        <ele>588</ele>
        <time>2019-08-27T13:14:34Z</time>
      </trkpt>
      <trkpt lat="43.6779" lon="2.4618">
        <ele>593</ele>
        <time>2019-08-27T13:14:55Z</time>
      </trkpt>
      <trkpt lat="43.67799" lon="2.46192">
        <ele>597.5</ele>
        <time>2019-08-27T13:15:17Z</time>
      </trkpt>
      <trkpt lat="43.67804" lon="2.46206">
        <ele>598.8</ele>
        <time>2019-08-27T13:15:27Z</time>
      </trkpt>
      <trkpt lat="43.67805" lon="2.46223">
        <ele>600</ele>
        <time>2019-08-27T13:15:39Z</time>
      </trkpt>
      <trkpt lat="43.67804" lon="2.46237">
        <ele>601.1</ele>
        <time>2019-08-27T13:15:43Z</time>
      </trkpt>
      <trkpt lat="43.678" lon="2.46252">
        <ele>602.7</ele>
        <time>2019-08-27T13:15:50Z</time>
      </trkpt>
      <trkpt lat="43.67799" lon="2.46266">
        <ele>604.3</ele>
        <time>2019-08-27T13:15:59Z</time>
      </trkpt>
      <trkpt lat="43.67795" lon="2.4629">
        <ele>608.4</ele>
        <time>2019-08-27T13:16:13Z</time>
      </trkpt>
      <trkpt lat="43.6779" lon="2.46306">
        <ele>610</ele>
        <time>2019-08-27T13:16:18Z</time>
      </trkpt>
      <trkpt lat="43.67785" lon="2.46317">
        <ele>611.9</ele>
        <time>2019-08-27T13:16:23Z</time>
      </trkpt>
      <trkpt lat="43.67781" lon="2.46328">
        <ele>613.4</ele>
        <time>2019-08-27T13:16:30Z</time>
      </trkpt>
      <trkpt lat="43.67778" lon="2.46343">
        <ele>614.1</ele>
        <time>2019-08-27T13:16:42Z</time>
      </trkpt>
      <trkpt lat="43.67772" lon="2.46356">
        <ele>614.3</ele>
        <time>2019-08-27T13:16:52Z</time>
      </trkpt>
      <trkpt lat="43.67764" lon="2.46366">
        <ele>614.3</ele>
        <time>2019-08-27T13:16:58Z</time>
      </trkpt>
      <trkpt lat="43.67755" lon="2.46374">
        <ele>614.5</ele>
        <time>2019-08-27T13:17:03Z</time>
      </trkpt>
      <trkpt lat="43.67755" lon="2.46387">
        <ele>616.2</ele>
        <time>2019-08-27T13:17:12Z</time>
      </trkpt>
      <trkpt lat="43.67764" lon="2.46386">
        <ele>617.4</ele>
        <time>2019-08-27T13:17:19Z</time>
      </trkpt>
      <trkpt lat="43.67775" lon="2.46384">
        <ele>618.8</ele>
        <time>2019-08-27T13:17:27Z</time>
      </trkpt>
      <trkpt lat="43.67784" lon="2.46382">
        <ele>620.1</ele>
        <time>2019-08-27T13:17:33Z</time>
      </trkpt>
      <trkpt lat="43.67793" lon="2.46378">
        <ele>621</ele>
        <time>2019-08-27T13:17:38Z</time>
      </trkpt>
      <trkpt lat="43.67803" lon="2.46369">
        <ele>622.2</ele>
        <time>2019-08-27T13:17:45Z</time>
      </trkpt>
      <trkpt lat="43.67811" lon="2.4636">
        <ele>623.3</ele>
        <time>2019-08-27T13:17:51Z</time>
      </trkpt>
      <trkpt lat="43.67819" lon="2.46351">
        <ele>624.1</ele>
        <time>2019-08-27T13:17:57Z</time>
      </trkpt>
      <trkpt lat="43.67832" lon="2.46352">
        <ele>623.8</ele>
        <time>2019-08-27T13:18:03Z</time>
      </trkpt>
      <trkpt lat="43.67841" lon="2.4634">
        <ele>621.8</ele>
        <time>2019-08-27T13:18:14Z</time>
      </trkpt>
      <trkpt lat="43.67842" lon="2.46327">
        <ele>621.8</ele>
        <time>2019-08-27T13:18:18Z</time>
      </trkpt>
      <trkpt lat="43.67848" lon="2.46318">
        <ele>622.1</ele>
        <time>2019-08-27T13:18:22Z</time>
      </trkpt>
      <trkpt lat="43.67855" lon="2.4631">
        <ele>622.6</ele>
        <time>2019-08-27T13:18:28Z</time>
      </trkpt>
      <trkpt lat="43.67861" lon="2.46298">
        <ele>623.1</ele>
        <time>2019-08-27T13:18:33Z</time>
      </trkpt>
      <trkpt lat="43.67863" lon="2.46285">
        <ele>623.9</ele>
        <time>2019-08-27T13:18:39Z</time>
      </trkpt>
      <trkpt lat="43.67867" lon="2.46273">
        <ele>625.8</ele>
        <time>2019-08-27T13:18:48Z</time>
      </trkpt>
      <trkpt lat="43.67873" lon="2.46262">
        <ele>627.7</ele>
        <time>2019-08-27T13:18:56Z</time>
      </trkpt>
      <trkpt lat="43.67878" lon="2.46249">
        <ele>628.8</ele>
        <time>2019-08-27T13:19:03Z</time>
      </trkpt>
      <trkpt lat="43.67887" lon="2.4625">
        <ele>630.5</ele>
        <time>2019-08-27T13:19:29Z</time>
      </trkpt>
      <trkpt lat="43.67887" lon="2.46262">
        <ele>631.1</ele>
        <time>2019-08-27T13:20:02Z</time>
      </trkpt>
      <trkpt lat="43.67896" lon="2.46267">
        <ele>636</ele>
        <time>2019-08-27T13:20:24Z</time>
      </trkpt>
      <trkpt lat="43.67904" lon="2.46275">
        <ele>638.8</ele>
        <time>2019-08-27T13:20:38Z</time>
      </trkpt>
      <trkpt lat="43.67913" lon="2.46282">
        <ele>642.6</ele>
        <time>2019-08-27T13:20:57Z</time>
      </trkpt>
      <trkpt lat="43.67921" lon="2.46291">
        <ele>647.5</ele>
        <time>2019-08-27T13:21:04Z</time>
      </trkpt>
      <trkpt lat="43.67921" lon="2.46303">
        <ele>651</ele>
        <time>2019-08-27T13:21:25Z</time>
      </trkpt>
      <trkpt lat="43.67916" lon="2.46314">
        <ele>651.6</ele>
        <time>2019-08-27T13:21:31Z</time>
      </trkpt>
      <trkpt lat="43.67909" lon="2.46324">
        <ele>652.3</ele>
        <time>2019-08-27T13:21:38Z</time>
      </trkpt>
      <trkpt lat="43.67906" lon="2.46336">
        <ele>652.7</ele>
        <time>2019-08-27T13:21:46Z</time>
      </trkpt>
      <trkpt lat="43.67902" lon="2.46347">
        <ele>652.9</ele>
        <time>2019-08-27T13:21:50Z</time>
      </trkpt>
      <trkpt lat="43.679" lon="2.4636">
        <ele>653.2</ele>
        <time>2019-08-27T13:21:56Z</time>
      </trkpt>
      <trkpt lat="43.67898" lon="2.46372">
        <ele>653.7</ele>
        <time>2019-08-27T13:22:03Z</time>
      </trkpt>
      <trkpt lat="43.67893" lon="2.46386">
        <ele>653.8</ele>
        <time>2019-08-27T13:22:10Z</time>
      </trkpt>
      <trkpt lat="43.67889" lon="2.46399">
        <ele>654.2</ele>
        <time>2019-08-27T13:22:15Z</time>
      </trkpt>
      <trkpt lat="43.67886" lon="2.46411">
        <ele>654.8</ele>
        <time>2019-08-27T13:22:20Z</time>
      </trkpt>
      <trkpt lat="43.67885" lon="2.46424">
        <ele>656</ele>
        <time>2019-08-27T13:22:26Z</time>
      </trkpt>
      <trkpt lat="43.67887" lon="2.46439">
        <ele>657.5</ele>
        <time>2019-08-27T13:22:32Z</time>
      </trkpt>
      <trkpt lat="43.6789" lon="2.46452">
        <ele>659.1</ele>
        <time>2019-08-27T13:22:38Z</time>
      </trkpt>
      <trkpt lat="43.67895" lon="2.46464">
        <ele>661.6</ele>
        <time>2019-08-27T13:22:47Z</time>
      </trkpt>
      <trkpt lat="43.67898" lon="2.46476">
        <ele>663.1</ele>
        <time>2019-08-27T13:22:54Z</time>
      </trkpt>
      <trkpt lat="43.67901" lon="2.46489">
        <ele>664.4</ele>
        <time>2019-08-27T13:23:01Z</time>
      </trkpt>
      <trkpt lat="43.67903" lon="2.46502">
        <ele>665.6</ele>
        <time>2019-08-27T13:23:07Z</time>
      </trkpt>
      <trkpt lat="43.67905" lon="2.46514">
        <ele>666.9</ele>
        <time>2019-08-27T13:23:13Z</time>
      </trkpt>
      <trkpt lat="43.67904" lon="2.46527">
        <ele>668.4</ele>
        <time>2019-08-27T13:23:20Z</time>
      </trkpt>
      <trkpt lat="43.67906" lon="2.46539">
        <ele>671</ele>
        <time>2019-08-27T13:23:36Z</time>
      </trkpt>
      <trkpt lat="43.67913" lon="2.46549">
        <ele>672.1</ele>
        <time>2019-08-27T13:23:44Z</time>
      </trkpt>
      <trkpt lat="43.67913" lon="2.46562">
        <ele>672.4</ele>
        <time>2019-08-27T13:23:51Z</time>
      </trkpt>
      <trkpt lat="43.67912" lon="2.46576">
        <ele>672.2</ele>
        <time>2019-08-27T13:23:55Z</time>
      </trkpt>
      <trkpt lat="43.67911" lon="2.46588">
        <ele>671.8</ele>
        <time>2019-08-27T13:24:00Z</time>
      </trkpt>
      <trkpt lat="43.67901" lon="2.46595">
        <ele>673</ele>
        <time>2019-08-27T13:24:40Z</time>
      </trkpt>
      <trkpt lat="43.67896" lon="2.46608">
        <ele>673.5</ele>
        <time>2019-08-27T13:24:44Z</time>
      </trkpt>
      <trkpt lat="43.67896" lon="2.46626">
        <ele>675.4</ele>
        <time>2019-08-27T13:24:47Z</time>
      </trkpt>
      <trkpt lat="43.67899" lon="2.46642">
        <ele>676.1</ele>
        <time>2019-08-27T13:24:49Z</time>
      </trkpt>
      <trkpt lat="43.679" lon="2.46657">
        <ele>676.5</ele>
        <time>2019-08-27T13:24:51Z</time>
      </trkpt>
      <trkpt lat="43.679" lon="2.46671">
        <ele>676.9</ele>
        <time>2019-08-27T13:24:53Z</time>
      </trkpt>
      <trkpt lat="43.67901" lon="2.46691">
        <ele>677.8</ele>
        <time>2019-08-27T13:24:56Z</time>
      </trkpt>
      <trkpt lat="43.67901" lon="2.46705">
        <ele>679</ele>
        <time>2019-08-27T13:24:58Z</time>
      </trkpt>
      <trkpt lat="43.67902" lon="2.46722">
        <ele>680.7</ele>
        <time>2019-08-27T13:25:01Z</time>
      </trkpt>
      <trkpt lat="43.67903" lon="2.46739">
        <ele>681.6</ele>
        <time>2019-08-27T13:25:04Z</time>
      </trkpt>
      <trkpt lat="43.67904" lon="2.46752">
        <ele>682</ele>
        <time>2019-08-27T13:25:06Z</time>
      </trkpt>
      <trkpt lat="43.67903" lon="2.46769">
        <ele>682.4</ele>
        <time>2019-08-27T13:25:09Z</time>
      </trkpt>
      <trkpt lat="43.67902" lon="2.46785">
        <ele>682.6</ele>
        <time>2019-08-27T13:25:13Z</time>
      </trkpt>
      <trkpt lat="43.67901" lon="2.468">
        <ele>682.6</ele>
        <time>2019-08-27T13:25:17Z</time>
      </trkpt>
      <trkpt lat="43.67898" lon="2.46812">
        <ele>682.7</ele>
        <time>2019-08-27T13:25:21Z</time>
      </trkpt>
      <trkpt lat="43.67889" lon="2.46819">
        <ele>683</ele>
        <time>2019-08-27T13:25:26Z</time>
      </trkpt>
      <trkpt lat="43.67878" lon="2.46822">
        <ele>683.2</ele>
        <time>2019-08-27T13:25:30Z</time>
      </trkpt>
      <trkpt lat="43.67867" lon="2.46821">
        <ele>683.5</ele>
        <time>2019-08-27T13:25:34Z</time>
      </trkpt>
      <trkpt lat="43.67857" lon="2.46821">
        <ele>684.2</ele>
        <time>2019-08-27T13:25:40Z</time>
      </trkpt>
      <trkpt lat="43.67849" lon="2.46816">
        <ele>685.1</ele>
        <time>2019-08-27T13:25:48Z</time>
      </trkpt>
      <trkpt lat="43.67839" lon="2.46814">
        <ele>685.4</ele>
        <time>2019-08-27T13:25:54Z</time>
      </trkpt>
      <trkpt lat="43.67829" lon="2.46817">
        <ele>685.5</ele>
        <time>2019-08-27T13:25:58Z</time>
      </trkpt>
      <trkpt lat="43.67821" lon="2.46823">
        <ele>685.8</ele>
        <time>2019-08-27T13:26:02Z</time>
      </trkpt>
      <trkpt lat="43.67811" lon="2.46827">
        <ele>686.2</ele>
        <time>2019-08-27T13:26:08Z</time>
      </trkpt>
      <trkpt lat="43.67802" lon="2.46833">
        <ele>686.5</ele>
        <time>2019-08-27T13:26:13Z</time>
      </trkpt>
      <trkpt lat="43.67794" lon="2.46836">
        <ele>686.8</ele>
        <time>2019-08-27T13:26:18Z</time>
      </trkpt>
      <trkpt lat="43.67784" lon="2.46836">
        <ele>687.4</ele>
        <time>2019-08-27T13:26:23Z</time>
      </trkpt>
      <trkpt lat="43.67775" lon="2.46842">
        <ele>688.2</ele>
        <time>2019-08-27T13:26:28Z</time>
      </trkpt>
      <trkpt lat="43.67766" lon="2.46848">
        <ele>689.5</ele>
        <time>2019-08-27T13:26:35Z</time>
      </trkpt>
      <trkpt lat="43.67757" lon="2.46856">
        <ele>690.3</ele>
        <time>2019-08-27T13:26:40Z</time>
      </trkpt>
      <trkpt lat="43.6775" lon="2.46865">
        <ele>691</ele>
        <time>2019-08-27T13:26:45Z</time>
      </trkpt>
      <trkpt lat="43.67741" lon="2.46874">
        <ele>691.8</ele>
        <time>2019-08-27T13:26:50Z</time>
      </trkpt>
      <trkpt lat="43.67731" lon="2.46881">
        <ele>692.4</ele>
        <time>2019-08-27T13:26:56Z</time>
      </trkpt>
      <trkpt lat="43.67725" lon="2.46891">
        <ele>693.1</ele>
        <time>2019-08-27T13:27:03Z</time>
      </trkpt>
      <trkpt lat="43.6772" lon="2.46902">
        <ele>693.6</ele>
        <time>2019-08-27T13:27:08Z</time>
      </trkpt>
      <trkpt lat="43.67713" lon="2.46911">
        <ele>694.1</ele>
        <time>2019-08-27T13:27:15Z</time>
      </trkpt>
      <trkpt lat="43.67703" lon="2.46915">
        <ele>694.7</ele>
        <time>2019-08-27T13:27:22Z</time>
      </trkpt>
      <trkpt lat="43.67694" lon="2.46913">
        <ele>695.5</ele>
        <time>2019-08-27T13:27:28Z</time>
      </trkpt>
      <trkpt lat="43.67686" lon="2.46905">
        <ele>697</ele>
        <time>2019-08-27T13:27:36Z</time>
      </trkpt>
      <trkpt lat="43.67676" lon="2.46899">
        <ele>698</ele>
        <time>2019-08-27T13:27:44Z</time>
      </trkpt>
      <trkpt lat="43.67667" lon="2.46905">
        <ele>699.3</ele>
        <time>2019-08-27T13:27:51Z</time>
      </trkpt>
      <trkpt lat="43.67658" lon="2.46907">
        <ele>700.7</ele>
        <time>2019-08-27T13:28:05Z</time>
      </trkpt>
      <trkpt lat="43.6765" lon="2.46915">
        <ele>701.5</ele>
        <time>2019-08-27T13:28:16Z</time>
      </trkpt>
      <trkpt lat="43.67642" lon="2.46921">
        <ele>703.5</ele>
        <time>2019-08-27T13:28:25Z</time>
      </trkpt>
      <trkpt lat="43.67635" lon="2.4693">
        <ele>706</ele>
        <time>2019-08-27T13:28:34Z</time>
      </trkpt>
      <trkpt lat="43.67628" lon="2.46938">
        <ele>708.8</ele>
        <time>2019-08-27T13:28:43Z</time>
      </trkpt>
      <trkpt lat="43.67624" lon="2.46949">
        <ele>711.6</ele>
        <time>2019-08-27T13:28:52Z</time>
      </trkpt>
      <trkpt lat="43.67616" lon="2.46957">
        <ele>713.8</ele>
        <time>2019-08-27T13:29:03Z</time>
      </trkpt>
      <trkpt lat="43.67609" lon="2.46965">
        <ele>715.5</ele>
        <time>2019-08-27T13:29:12Z</time>
      </trkpt>
      <trkpt lat="43.67599" lon="2.46972">
        <ele>716.6</ele>
        <time>2019-08-27T13:29:19Z</time>
      </trkpt>
      <trkpt lat="43.67592" lon="2.46979">
        <ele>717.7</ele>
        <time>2019-08-27T13:29:24Z</time>
      </trkpt>
      <trkpt lat="43.67583" lon="2.46986">
        <ele>719.9</ele>
        <time>2019-08-27T13:29:32Z</time>
      </trkpt>
      <trkpt lat="43.67576" lon="2.46996">
        <ele>721.2</ele>
        <time>2019-08-27T13:29:38Z</time>
      </trkpt>
      <trkpt lat="43.67569" lon="2.47005">
        <ele>722.4</ele>
        <time>2019-08-27T13:29:45Z</time>
      </trkpt>
      <trkpt lat="43.67563" lon="2.47015">
        <ele>723.1</ele>
        <time>2019-08-27T13:29:50Z</time>
      </trkpt>
      <trkpt lat="43.67557" lon="2.47024">
        <ele>724.1</ele>
        <time>2019-08-27T13:29:55Z</time>
      </trkpt>
      <trkpt lat="43.6755" lon="2.47033">
        <ele>725.1</ele>
        <time>2019-08-27T13:30:01Z</time>
      </trkpt>
      <trkpt lat="43.67543" lon="2.47042">
        <ele>725.8</ele>
        <time>2019-08-27T13:30:07Z</time>
      </trkpt>
      <trkpt lat="43.67536" lon="2.47052">
        <ele>726.2</ele>
        <time>2019-08-27T13:30:11Z</time>
      </trkpt>
      <trkpt lat="43.6753" lon="2.47063">
        <ele>726.7</ele>
        <time>2019-08-27T13:30:15Z</time>
      </trkpt>
      <trkpt lat="43.67523" lon="2.47076">
        <ele>727.2</ele>
        <time>2019-08-27T13:30:19Z</time>
      </trkpt>
      <trkpt lat="43.67517" lon="2.47088">
        <ele>727.7</ele>
        <time>2019-08-27T13:30:23Z</time>
      </trkpt>
      <trkpt lat="43.6751" lon="2.471">
        <ele>728.1</ele>
        <time>2019-08-27T13:30:27Z</time>
      </trkpt>
      <trkpt lat="43.67504" lon="2.47111">
        <ele>728.5</ele>
        <time>2019-08-27T13:30:30Z</time>
      </trkpt>
      <trkpt lat="43.67497" lon="2.47121">
        <ele>728.9</ele>
        <time>2019-08-27T13:30:33Z</time>
      </trkpt>
      <trkpt lat="43.6749" lon="2.47134">
        <ele>729.4</ele>
        <time>2019-08-27T13:30:37Z</time>
      </trkpt>
      <trkpt lat="43.67484" lon="2.47144">
        <ele>729.6</ele>
        <time>2019-08-27T13:30:41Z</time>
      </trkpt>
      <trkpt lat="43.67478" lon="2.47153">
        <ele>729.7</ele>
        <time>2019-08-27T13:30:44Z</time>
      </trkpt>
      <trkpt lat="43.67471" lon="2.47161">
        <ele>729.8</ele>
        <time>2019-08-27T13:30:47Z</time>
      </trkpt>
      <trkpt lat="43.67464" lon="2.47171">
        <ele>730</ele>
        <time>2019-08-27T13:30:51Z</time>
      </trkpt>
      <trkpt lat="43.67456" lon="2.47179">
        <ele>730.1</ele>
        <time>2019-08-27T13:30:54Z</time>
      </trkpt>
      <trkpt lat="43.67447" lon="2.47188">
        <ele>730.2</ele>
        <time>2019-08-27T13:30:57Z</time>
      </trkpt>
      <trkpt lat="43.67436" lon="2.47196">
        <ele>730.4</ele>
        <time>2019-08-27T13:31:00Z</time>
      </trkpt>
      <trkpt lat="43.67429" lon="2.47204">
        <ele>730.6</ele>
        <time>2019-08-27T13:31:03Z</time>
      </trkpt>
      <trkpt lat="43.67421" lon="2.47212">
        <ele>730.8</ele>
        <time>2019-08-27T13:31:06Z</time>
      </trkpt>
      <trkpt lat="43.67415" lon="2.47221">
        <ele>731</ele>
        <time>2019-08-27T13:31:09Z</time>
      </trkpt>
      <trkpt lat="43.6741" lon="2.47231">
        <ele>731.2</ele>
        <time>2019-08-27T13:31:12Z</time>
      </trkpt>
      <trkpt lat="43.67403" lon="2.47244">
        <ele>731.4</ele>
        <time>2019-08-27T13:31:16Z</time>
      </trkpt>
      <trkpt lat="43.674" lon="2.47256">
        <ele>731.6</ele>
        <time>2019-08-27T13:31:19Z</time>
      </trkpt>
      <trkpt lat="43.67397" lon="2.47269">
        <ele>731.7</ele>
        <time>2019-08-27T13:31:22Z</time>
      </trkpt>
      <trkpt lat="43.67394" lon="2.47281">
        <ele>731.9</ele>
        <time>2019-08-27T13:31:25Z</time>
      </trkpt>
      <trkpt lat="43.67392" lon="2.47294">
        <ele>732.2</ele>
        <time>2019-08-27T13:31:28Z</time>
      </trkpt>
      <trkpt lat="43.6739" lon="2.47309">
        <ele>732.5</ele>
        <time>2019-08-27T13:31:32Z</time>
      </trkpt>
      <trkpt lat="43.67388" lon="2.47321">
        <ele>732.8</ele>
        <time>2019-08-27T13:31:35Z</time>
      </trkpt>
      <trkpt lat="43.67387" lon="2.47334">
        <ele>733.1</ele>
        <time>2019-08-27T13:31:38Z</time>
      </trkpt>
      <trkpt lat="43.67387" lon="2.47347">
        <ele>733.3</ele>
        <time>2019-08-27T13:31:41Z</time>
      </trkpt>
      <trkpt lat="43.67388" lon="2.47363">
        <ele>733.7</ele>
        <time>2019-08-27T13:31:45Z</time>
      </trkpt>
      <trkpt lat="43.6739" lon="2.47377">
        <ele>734</ele>
        <time>2019-08-27T13:31:49Z</time>
      </trkpt>
      <trkpt lat="43.6739" lon="2.4739">
        <ele>734.1</ele>
        <time>2019-08-27T13:31:55Z</time>
      </trkpt>
      <trkpt lat="43.67382" lon="2.47385">
        <ele>734.1</ele>
        <time>2019-08-27T13:31:58Z</time>
      </trkpt>
      <trkpt lat="43.6737" lon="2.47377">
        <ele>733.7</ele>
        <time>2019-08-27T13:32:01Z</time>
      </trkpt>
      <trkpt lat="43.67361" lon="2.47371">
        <ele>732.2</ele>
        <time>2019-08-27T13:32:03Z</time>
      </trkpt>
      <trkpt lat="43.6735" lon="2.47365">
        <ele>730.4</ele>
        <time>2019-08-27T13:32:05Z</time>
      </trkpt>
      <trkpt lat="43.67336" lon="2.47361">
        <ele>729.4</ele>
        <time>2019-08-27T13:32:07Z</time>
      </trkpt>
      <trkpt lat="43.6732" lon="2.47356">
        <ele>729</ele>
        <time>2019-08-27T13:32:09Z</time>
      </trkpt>
      <trkpt lat="43.67304" lon="2.47353">
        <ele>728.6</ele>
        <time>2019-08-27T13:32:11Z</time>
      </trkpt>
      <trkpt lat="43.6729" lon="2.4735">
        <ele>728</ele>
        <time>2019-08-27T13:32:13Z</time>
      </trkpt>
      <trkpt lat="43.67276" lon="2.47345">
        <ele>727.5</ele>
        <time>2019-08-27T13:32:15Z</time>
      </trkpt>
      <trkpt lat="43.67257" lon="2.47332">
        <ele>726.9</ele>
        <time>2019-08-27T13:32:18Z</time>
      </trkpt>
      <trkpt lat="43.67244" lon="2.47323">
        <ele>726.5</ele>
        <time>2019-08-27T13:32:20Z</time>
      </trkpt>
      <trkpt lat="43.67234" lon="2.47314">
        <ele>726.2</ele>
        <time>2019-08-27T13:32:22Z</time>
      </trkpt>
      <trkpt lat="43.67223" lon="2.47306">
        <ele>726.1</ele>
        <time>2019-08-27T13:32:24Z</time>
      </trkpt>
      <trkpt lat="43.67211" lon="2.473">
        <ele>726</ele>
        <time>2019-08-27T13:32:26Z</time>
      </trkpt>
      <trkpt lat="43.67203" lon="2.47293">
        <ele>725.7</ele>
        <time>2019-08-27T13:32:28Z</time>
      </trkpt>
      <trkpt lat="43.67195" lon="2.47281">
        <ele>725.6</ele>
        <time>2019-08-27T13:32:31Z</time>
      </trkpt>
      <trkpt lat="43.67186" lon="2.47269">
        <ele>725.3</ele>
        <time>2019-08-27T13:32:34Z</time>
      </trkpt>
      <trkpt lat="43.67179" lon="2.47261">
        <ele>725.2</ele>
        <time>2019-08-27T13:32:36Z</time>
      </trkpt>
      <trkpt lat="43.67171" lon="2.47253">
        <ele>725</ele>
        <time>2019-08-27T13:32:38Z</time>
      </trkpt>
      <trkpt lat="43.67162" lon="2.47243">
        <ele>724.7</ele>
        <time>2019-08-27T13:32:40Z</time>
      </trkpt>
      <trkpt lat="43.67153" lon="2.47232">
        <ele>724.4</ele>
        <time>2019-08-27T13:32:42Z</time>
      </trkpt>
      <trkpt lat="43.67145" lon="2.47221">
        <ele>724</ele>
        <time>2019-08-27T13:32:44Z</time>
      </trkpt>
      <trkpt lat="43.67135" lon="2.47211">
        <ele>723.6</ele>
        <time>2019-08-27T13:32:46Z</time>
      </trkpt>
      <trkpt lat="43.67125" lon="2.47202">
        <ele>723.1</ele>
        <time>2019-08-27T13:32:48Z</time>
      </trkpt>
      <trkpt lat="43.67114" lon="2.47192">
        <ele>722.6</ele>
        <time>2019-08-27T13:32:50Z</time>
      </trkpt>
      <trkpt lat="43.67102" lon="2.47183">
        <ele>722.2</ele>
        <time>2019-08-27T13:32:52Z</time>
      </trkpt>
      <trkpt lat="43.67091" lon="2.47173">
        <ele>721.7</ele>
        <time>2019-08-27T13:32:54Z</time>
      </trkpt>
      <trkpt lat="43.6708" lon="2.47166">
        <ele>721.2</ele>
        <time>2019-08-27T13:32:56Z</time>
      </trkpt>
      <trkpt lat="43.67069" lon="2.47157">
        <ele>720.8</ele>
        <time>2019-08-27T13:32:58Z</time>
      </trkpt>
      <trkpt lat="43.67058" lon="2.47148">
        <ele>720.4</ele>
        <time>2019-08-27T13:33:00Z</time>
      </trkpt>
      <trkpt lat="43.67048" lon="2.47138">
        <ele>719.9</ele>
        <time>2019-08-27T13:33:02Z</time>
      </trkpt>
      <trkpt lat="43.67037" lon="2.47128">
        <ele>719.5</ele>
        <time>2019-08-27T13:33:04Z</time>
      </trkpt>
      <trkpt lat="43.67026" lon="2.47121">
        <ele>719.2</ele>
        <time>2019-08-27T13:33:06Z</time>
      </trkpt>
      <trkpt lat="43.67016" lon="2.47113">
        <ele>719</ele>
        <time>2019-08-27T13:33:08Z</time>
      </trkpt>
      <trkpt lat="43.67007" lon="2.47106">
        <ele>718.8</ele>
        <time>2019-08-27T13:33:10Z</time>
      </trkpt>
      <trkpt lat="43.66999" lon="2.47102">
        <ele>718.6</ele>
        <time>2019-08-27T13:33:12Z</time>
      </trkpt>
      <trkpt lat="43.66987" lon="2.47096">
        <ele>718.6</ele>
        <time>2019-08-27T13:33:15Z</time>
      </trkpt>
      <trkpt lat="43.66977" lon="2.47094">
        <ele>718.4</ele>
        <time>2019-08-27T13:33:17Z</time>
      </trkpt>
      <trkpt lat="43.66968" lon="2.47092">
        <ele>718.3</ele>
        <time>2019-08-27T13:33:19Z</time>
      </trkpt>
      <trkpt lat="43.66955" lon="2.47089">
        <ele>718.2</ele>
        <time>2019-08-27T13:33:22Z</time>
      </trkpt>
      <trkpt lat="43.66943" lon="2.4709">
        <ele>718.2</ele>
        <time>2019-08-27T13:33:25Z</time>
      </trkpt>
      <trkpt lat="43.66934" lon="2.47087">
        <ele>718.2</ele>
        <time>2019-08-27T13:33:28Z</time>
      </trkpt>
      <trkpt lat="43.66925" lon="2.47087">
        <ele>718.2</ele>
        <time>2019-08-27T13:33:31Z</time>
      </trkpt>
      <trkpt lat="43.66916" lon="2.47089">
        <ele>718.2</ele>
        <time>2019-08-27T13:33:34Z</time>
      </trkpt>
      <trkpt lat="43.66906" lon="2.47088">
        <ele>718.1</ele>
        <time>2019-08-27T13:33:37Z</time>
      </trkpt>
      <trkpt lat="43.66896" lon="2.47091">
        <ele>718</ele>
        <time>2019-08-27T13:33:40Z</time>
      </trkpt>
      <trkpt lat="43.66887" lon="2.47093">
        <ele>717.9</ele>
        <time>2019-08-27T13:33:43Z</time>
      </trkpt>
      <trkpt lat="43.66876" lon="2.47096">
        <ele>717.8</ele>
        <time>2019-08-27T13:33:47Z</time>
      </trkpt>
      <trkpt lat="43.66867" lon="2.47099">
        <ele>717.7</ele>
        <time>2019-08-27T13:33:50Z</time>
      </trkpt>
      <trkpt lat="43.66857" lon="2.47102">
        <ele>717.6</ele>
        <time>2019-08-27T13:33:53Z</time>
      </trkpt>
      <trkpt lat="43.66848" lon="2.47106">
        <ele>717.5</ele>
        <time>2019-08-27T13:33:56Z</time>
      </trkpt>
      <trkpt lat="43.66837" lon="2.47111">
        <ele>717.3</ele>
        <time>2019-08-27T13:34:00Z</time>
      </trkpt>
      <trkpt lat="43.66827" lon="2.47115">
        <ele>717.3</ele>
        <time>2019-08-27T13:34:03Z</time>
      </trkpt>
      <trkpt lat="43.66816" lon="2.47119">
        <ele>717</ele>
        <time>2019-08-27T13:34:06Z</time>
      </trkpt>
      <trkpt lat="43.66805" lon="2.47121">
        <ele>716.7</ele>
        <time>2019-08-27T13:34:09Z</time>
      </trkpt>
      <trkpt lat="43.66794" lon="2.47121">
        <ele>716.6</ele>
        <time>2019-08-27T13:34:12Z</time>
      </trkpt>
      <trkpt lat="43.66783" lon="2.47122">
        <ele>716.5</ele>
        <time>2019-08-27T13:34:15Z</time>
      </trkpt>
      <trkpt lat="43.66772" lon="2.47122">
        <ele>716.1</ele>
        <time>2019-08-27T13:34:18Z</time>
      </trkpt>
      <trkpt lat="43.6676" lon="2.47121">
        <ele>715.8</ele>
        <time>2019-08-27T13:34:21Z</time>
      </trkpt>
      <trkpt lat="43.66748" lon="2.47118">
        <ele>715.7</ele>
        <time>2019-08-27T13:34:24Z</time>
      </trkpt>
      <trkpt lat="43.66735" lon="2.47114">
        <ele>715.7</ele>
        <time>2019-08-27T13:34:27Z</time>
      </trkpt>
      <trkpt lat="43.66725" lon="2.47112">
        <ele>715.9</ele>
        <time>2019-08-27T13:34:29Z</time>
      </trkpt>
      <trkpt lat="43.66715" lon="2.47108">
        <ele>716.1</ele>
        <time>2019-08-27T13:34:31Z</time>
      </trkpt>
      <trkpt lat="43.66705" lon="2.47107">
        <ele>716.3</ele>
        <time>2019-08-27T13:34:33Z</time>
      </trkpt>
      <trkpt lat="43.66695" lon="2.4711">
        <ele>716.3</ele>
        <time>2019-08-27T13:34:35Z</time>
      </trkpt>
      <trkpt lat="43.66685" lon="2.47109">
        <ele>716.3</ele>
        <time>2019-08-27T13:34:37Z</time>
      </trkpt>
      <trkpt lat="43.66673" lon="2.47107">
        <ele>716.2</ele>
        <time>2019-08-27T13:34:39Z</time>
      </trkpt>
      <trkpt lat="43.6666" lon="2.47101">
        <ele>716</ele>
        <time>2019-08-27T13:34:41Z</time>
      </trkpt>
      <trkpt lat="43.66645" lon="2.47098">
        <ele>715.9</ele>
        <time>2019-08-27T13:34:43Z</time>
      </trkpt>
      <trkpt lat="43.6663" lon="2.47095">
        <ele>715.7</ele>
        <time>2019-08-27T13:34:45Z</time>
      </trkpt>
      <trkpt lat="43.66613" lon="2.47091">
        <ele>715.3</ele>
        <time>2019-08-27T13:34:47Z</time>
      </trkpt>
      <trkpt lat="43.66595" lon="2.4709">
        <ele>714.8</ele>
        <time>2019-08-27T13:34:49Z</time>
      </trkpt>
      <trkpt lat="43.66577" lon="2.47092">
        <ele>714.3</ele>
        <time>2019-08-27T13:34:51Z</time>
      </trkpt>
      <trkpt lat="43.6656" lon="2.47092">
        <ele>713.7</ele>
        <time>2019-08-27T13:34:53Z</time>
      </trkpt>
      <trkpt lat="43.66545" lon="2.47092">
        <ele>713.2</ele>
        <time>2019-08-27T13:34:55Z</time>
      </trkpt>
      <trkpt lat="43.66531" lon="2.47093">
        <ele>712.6</ele>
        <time>2019-08-27T13:34:57Z</time>
      </trkpt>
      <trkpt lat="43.66518" lon="2.47092">
        <ele>712</ele>
        <time>2019-08-27T13:34:59Z</time>
      </trkpt>
      <trkpt lat="43.66506" lon="2.47091">
        <ele>711.5</ele>
        <time>2019-08-27T13:35:01Z</time>
      </trkpt>
      <trkpt lat="43.66494" lon="2.47092">
        <ele>711</ele>
        <time>2019-08-27T13:35:03Z</time>
      </trkpt>
      <trkpt lat="43.66482" lon="2.47094">
        <ele>710.6</ele>
        <time>2019-08-27T13:35:05Z</time>
      </trkpt>
      <trkpt lat="43.6647" lon="2.47092">
        <ele>710.4</ele>
        <time>2019-08-27T13:35:07Z</time>
      </trkpt>
      <trkpt lat="43.66458" lon="2.47093">
        <ele>710.3</ele>
        <time>2019-08-27T13:35:09Z</time>
      </trkpt>
      <trkpt lat="43.66446" lon="2.47092">
        <ele>710.2</ele>
        <time>2019-08-27T13:35:11Z</time>
      </trkpt>
      <trkpt lat="43.66436" lon="2.47087">
        <ele>710.2</ele>
        <time>2019-08-27T13:35:13Z</time>
      </trkpt>
      <trkpt lat="43.66426" lon="2.4708">
        <ele>710.2</ele>
        <time>2019-08-27T13:35:15Z</time>
      </trkpt>
      <trkpt lat="43.66415" lon="2.47074">
        <ele>710.1</ele>
        <time>2019-08-27T13:35:17Z</time>
      </trkpt>
      <trkpt lat="43.66406" lon="2.47068">
        <ele>710.1</ele>
        <time>2019-08-27T13:35:19Z</time>
      </trkpt>
      <trkpt lat="43.66397" lon="2.47063">
        <ele>710.1</ele>
        <time>2019-08-27T13:35:21Z</time>
      </trkpt>
      <trkpt lat="43.66385" lon="2.47053">
        <ele>710.2</ele>
        <time>2019-08-27T13:35:24Z</time>
      </trkpt>
      <trkpt lat="43.66376" lon="2.47043">
        <ele>710.2</ele>
        <time>2019-08-27T13:35:27Z</time>
      </trkpt>
      <trkpt lat="43.6638" lon="2.47027">
        <ele>709.8</ele>
        <time>2019-08-27T13:35:30Z</time>
      </trkpt>
      <trkpt lat="43.66387" lon="2.47011">
        <ele>709.4</ele>
        <time>2019-08-27T13:35:33Z</time>
      </trkpt>
      <trkpt lat="43.66393" lon="2.46998">
        <ele>709.2</ele>
        <time>2019-08-27T13:35:35Z</time>
      </trkpt>
      <trkpt lat="43.66398" lon="2.46982">
        <ele>708.9</ele>
        <time>2019-08-27T13:35:37Z</time>
      </trkpt>
      <trkpt lat="43.66402" lon="2.4697">
        <ele>708.5</ele>
        <time>2019-08-27T13:35:39Z</time>
      </trkpt>
      <trkpt lat="43.66409" lon="2.4696">
        <ele>707.9</ele>
        <time>2019-08-27T13:35:41Z</time>
      </trkpt>
      <trkpt lat="43.66417" lon="2.46948">
        <ele>707.2</ele>
        <time>2019-08-27T13:35:43Z</time>
      </trkpt>
      <trkpt lat="43.66423" lon="2.46932">
        <ele>706.5</ele>
        <time>2019-08-27T13:35:45Z</time>
      </trkpt>
      <trkpt lat="43.66427" lon="2.46914">
        <ele>705.9</ele>
        <time>2019-08-27T13:35:47Z</time>
      </trkpt>
      <trkpt lat="43.66432" lon="2.46896">
        <ele>705.5</ele>
        <time>2019-08-27T13:35:49Z</time>
      </trkpt>
      <trkpt lat="43.66435" lon="2.46876">
        <ele>705.2</ele>
        <time>2019-08-27T13:35:51Z</time>
      </trkpt>
      <trkpt lat="43.66434" lon="2.46856">
        <ele>704.6</ele>
        <time>2019-08-27T13:35:53Z</time>
      </trkpt>
      <trkpt lat="43.66435" lon="2.46836">
        <ele>703.9</ele>
        <time>2019-08-27T13:35:55Z</time>
      </trkpt>
      <trkpt lat="43.66437" lon="2.46816">
        <ele>703.2</ele>
        <time>2019-08-27T13:35:57Z</time>
      </trkpt>
      <trkpt lat="43.6644" lon="2.46799">
        <ele>702.6</ele>
        <time>2019-08-27T13:35:59Z</time>
      </trkpt>
      <trkpt lat="43.66444" lon="2.46782">
        <ele>702.1</ele>
        <time>2019-08-27T13:36:01Z</time>
      </trkpt>
      <trkpt lat="43.66449" lon="2.46766">
        <ele>701.6</ele>
        <time>2019-08-27T13:36:03Z</time>
      </trkpt>
      <trkpt lat="43.66455" lon="2.4675">
        <ele>701.1</ele>
        <time>2019-08-27T13:36:05Z</time>
      </trkpt>
      <trkpt lat="43.6646" lon="2.46734">
        <ele>700.5</ele>
        <time>2019-08-27T13:36:07Z</time>
      </trkpt>
      <trkpt lat="43.66466" lon="2.46718">
        <ele>699.9</ele>
        <time>2019-08-27T13:36:09Z</time>
      </trkpt>
      <trkpt lat="43.6647" lon="2.46703">
        <ele>699.2</ele>
        <time>2019-08-27T13:36:11Z</time>
      </trkpt>
      <trkpt lat="43.66476" lon="2.46688">
        <ele>698.2</ele>
        <time>2019-08-27T13:36:14Z</time>
      </trkpt>
      <trkpt lat="43.66481" lon="2.46671">
        <ele>697.3</ele>
        <time>2019-08-27T13:36:17Z</time>
      </trkpt>
      <trkpt lat="43.66481" lon="2.46656">
        <ele>696.8</ele>
        <time>2019-08-27T13:36:19Z</time>
      </trkpt>
      <trkpt lat="43.66479" lon="2.4664">
        <ele>696.4</ele>
        <time>2019-08-27T13:36:21Z</time>
      </trkpt>
      <trkpt lat="43.66476" lon="2.46628">
        <ele>696</ele>
        <time>2019-08-27T13:36:23Z</time>
      </trkpt>
      <trkpt lat="43.66477" lon="2.46612">
        <ele>695.4</ele>
        <time>2019-08-27T13:36:26Z</time>
      </trkpt>
      <trkpt lat="43.66486" lon="2.46603">
        <ele>694.8</ele>
        <time>2019-08-27T13:36:28Z</time>
      </trkpt>
      <trkpt lat="43.66495" lon="2.46595">
        <ele>694.1</ele>
        <time>2019-08-27T13:36:30Z</time>
      </trkpt>
      <trkpt lat="43.66504" lon="2.46585">
        <ele>693.5</ele>
        <time>2019-08-27T13:36:32Z</time>
      </trkpt>
      <trkpt lat="43.66513" lon="2.46576">
        <ele>693.1</ele>
        <time>2019-08-27T13:36:34Z</time>
      </trkpt>
      <trkpt lat="43.66521" lon="2.46566">
        <ele>692.5</ele>
        <time>2019-08-27T13:36:36Z</time>
      </trkpt>
      <trkpt lat="43.66531" lon="2.46559">
        <ele>691.7</ele>
        <time>2019-08-27T13:36:38Z</time>
      </trkpt>
      <trkpt lat="43.6654" lon="2.46551">
        <ele>690.8</ele>
        <time>2019-08-27T13:36:40Z</time>
      </trkpt>
      <trkpt lat="43.66548" lon="2.46542">
        <ele>689.8</ele>
        <time>2019-08-27T13:36:42Z</time>
      </trkpt>
      <trkpt lat="43.66557" lon="2.46534">
        <ele>688.6</ele>
        <time>2019-08-27T13:36:44Z</time>
      </trkpt>
      <trkpt lat="43.66565" lon="2.46526">
        <ele>687.5</ele>
        <time>2019-08-27T13:36:46Z</time>
      </trkpt>
      <trkpt lat="43.66574" lon="2.46514">
        <ele>686.1</ele>
        <time>2019-08-27T13:36:49Z</time>
      </trkpt>
      <trkpt lat="43.66581" lon="2.46503">
        <ele>684.7</ele>
        <time>2019-08-27T13:36:51Z</time>
      </trkpt>
      <trkpt lat="43.66588" lon="2.46492">
        <ele>683.3</ele>
        <time>2019-08-27T13:36:53Z</time>
      </trkpt>
      <trkpt lat="43.66596" lon="2.46481">
        <ele>682</ele>
        <time>2019-08-27T13:36:55Z</time>
      </trkpt>
      <trkpt lat="43.66602" lon="2.4647">
        <ele>680.7</ele>
        <time>2019-08-27T13:36:57Z</time>
      </trkpt>
      <trkpt lat="43.66612" lon="2.4646">
        <ele>678.7</ele>
        <time>2019-08-27T13:37:00Z</time>
      </trkpt>
      <trkpt lat="43.66619" lon="2.46446">
        <ele>676.7</ele>
        <time>2019-08-27T13:37:03Z</time>
      </trkpt>
      <trkpt lat="43.66625" lon="2.46436">
        <ele>676.1</ele>
        <time>2019-08-27T13:37:06Z</time>
      </trkpt>
      <trkpt lat="43.66632" lon="2.46428">
        <ele>675.5</ele>
        <time>2019-08-27T13:37:10Z</time>
      </trkpt>
      <trkpt lat="43.66641" lon="2.46434">
        <ele>674.2</ele>
        <time>2019-08-27T13:37:13Z</time>
      </trkpt>
      <trkpt lat="43.66646" lon="2.4645">
        <ele>671.4</ele>
        <time>2019-08-27T13:37:16Z</time>
      </trkpt>
      <trkpt lat="43.66655" lon="2.46445">
        <ele>669.9</ele>
        <time>2019-08-27T13:37:24Z</time>
      </trkpt>
      <trkpt lat="43.66656" lon="2.4643">
        <ele>669.3</ele>
        <time>2019-08-27T13:37:27Z</time>
      </trkpt>
      <trkpt lat="43.66655" lon="2.46414">
        <ele>668.5</ele>
        <time>2019-08-27T13:37:30Z</time>
      </trkpt>
      <trkpt lat="43.66655" lon="2.46399">
        <ele>667.6</ele>
        <time>2019-08-27T13:37:33Z</time>
      </trkpt>
      <trkpt lat="43.66657" lon="2.46383">
        <ele>663.4</ele>
        <time>2019-08-27T13:37:35Z</time>
      </trkpt>
      <trkpt lat="43.66659" lon="2.46368">
        <ele>660.1</ele>
        <time>2019-08-27T13:37:37Z</time>
      </trkpt>
      <trkpt lat="43.6667" lon="2.4636">
        <ele>653.6</ele>
        <time>2019-08-27T13:37:51Z</time>
      </trkpt>
      <trkpt lat="43.66682" lon="2.46349">
        <ele>649.1</ele>
        <time>2019-08-27T13:37:53Z</time>
      </trkpt>
      <trkpt lat="43.66692" lon="2.46331">
        <ele>645.8</ele>
        <time>2019-08-27T13:37:55Z</time>
      </trkpt>
      <trkpt lat="43.66699" lon="2.46314">
        <ele>642.5</ele>
        <time>2019-08-27T13:37:57Z</time>
      </trkpt>
      <trkpt lat="43.66707" lon="2.46298">
        <ele>639.8</ele>
        <time>2019-08-27T13:37:59Z</time>
      </trkpt>
      <trkpt lat="43.66717" lon="2.46284">
        <ele>637.8</ele>
        <time>2019-08-27T13:38:01Z</time>
      </trkpt>
      <trkpt lat="43.66727" lon="2.46273">
        <ele>636</ele>
        <time>2019-08-27T13:38:03Z</time>
      </trkpt>
      <trkpt lat="43.66737" lon="2.46259">
        <ele>634.6</ele>
        <time>2019-08-27T13:38:05Z</time>
      </trkpt>
      <trkpt lat="43.66748" lon="2.46248">
        <ele>633.3</ele>
        <time>2019-08-27T13:38:07Z</time>
      </trkpt>
      <trkpt lat="43.66759" lon="2.46237">
        <ele>632.1</ele>
        <time>2019-08-27T13:38:09Z</time>
      </trkpt>
      <trkpt lat="43.66772" lon="2.46228">
        <ele>630.9</ele>
        <time>2019-08-27T13:38:11Z</time>
      </trkpt>
      <trkpt lat="43.66784" lon="2.4622">
        <ele>629.8</ele>
        <time>2019-08-27T13:38:13Z</time>
      </trkpt>
      <trkpt lat="43.66796" lon="2.46213">
        <ele>628.8</ele>
        <time>2019-08-27T13:38:15Z</time>
      </trkpt>
      <trkpt lat="43.66808" lon="2.46204">
        <ele>627.9</ele>
        <time>2019-08-27T13:38:17Z</time>
      </trkpt>
      <trkpt lat="43.66819" lon="2.46191">
        <ele>627.3</ele>
        <time>2019-08-27T13:38:19Z</time>
      </trkpt>
      <trkpt lat="43.66832" lon="2.46185">
        <ele>626.7</ele>
        <time>2019-08-27T13:38:21Z</time>
      </trkpt>
      <trkpt lat="43.66845" lon="2.46184">
        <ele>626</ele>
        <time>2019-08-27T13:38:23Z</time>
      </trkpt>
      <trkpt lat="43.66856" lon="2.46182">
        <ele>625.5</ele>
        <time>2019-08-27T13:38:25Z</time>
      </trkpt>
      <trkpt lat="43.66864" lon="2.46179">
        <ele>625</ele>
        <time>2019-08-27T13:38:27Z</time>
      </trkpt>
      <trkpt lat="43.66875" lon="2.46177">
        <ele>624.5</ele>
        <time>2019-08-27T13:38:29Z</time>
      </trkpt>
      <trkpt lat="43.66886" lon="2.46178">
        <ele>623.8</ele>
        <time>2019-08-27T13:38:31Z</time>
      </trkpt>
      <trkpt lat="43.66898" lon="2.46181">
        <ele>623.1</ele>
        <time>2019-08-27T13:38:33Z</time>
      </trkpt>
      <trkpt lat="43.66908" lon="2.4618">
        <ele>622.5</ele>
        <time>2019-08-27T13:38:35Z</time>
      </trkpt>
      <trkpt lat="43.66918" lon="2.4618">
        <ele>621.6</ele>
        <time>2019-08-27T13:38:37Z</time>
      </trkpt>
      <trkpt lat="43.66928" lon="2.46176">
        <ele>621.1</ele>
        <time>2019-08-27T13:38:39Z</time>
      </trkpt>
      <trkpt lat="43.66939" lon="2.46172">
        <ele>620.7</ele>
        <time>2019-08-27T13:38:42Z</time>
      </trkpt>
      <trkpt lat="43.66953" lon="2.46168">
        <ele>619.5</ele>
        <time>2019-08-27T13:38:45Z</time>
      </trkpt>
      <trkpt lat="43.66962" lon="2.46161">
        <ele>618.4</ele>
        <time>2019-08-27T13:38:47Z</time>
      </trkpt>
      <trkpt lat="43.66971" lon="2.46153">
        <ele>617.3</ele>
        <time>2019-08-27T13:38:49Z</time>
      </trkpt>
      <trkpt lat="43.66981" lon="2.46145">
        <ele>616.3</ele>
        <time>2019-08-27T13:38:51Z</time>
      </trkpt>
      <trkpt lat="43.66988" lon="2.46134">
        <ele>615.8</ele>
        <time>2019-08-27T13:38:54Z</time>
      </trkpt>
      <trkpt lat="43.66989" lon="2.46117">
        <ele>614.9</ele>
        <time>2019-08-27T13:38:56Z</time>
      </trkpt>
      <trkpt lat="43.66987" lon="2.46096">
        <ele>613.7</ele>
        <time>2019-08-27T13:38:58Z</time>
      </trkpt>
      <trkpt lat="43.66984" lon="2.46077">
        <ele>612.7</ele>
        <time>2019-08-27T13:39:00Z</time>
      </trkpt>
      <trkpt lat="43.66981" lon="2.46062">
        <ele>611.4</ele>
        <time>2019-08-27T13:39:02Z</time>
      </trkpt>
      <trkpt lat="43.66976" lon="2.46049">
        <ele>609.5</ele>
        <time>2019-08-27T13:39:04Z</time>
      </trkpt>
      <trkpt lat="43.66968" lon="2.46042">
        <ele>607.2</ele>
        <time>2019-08-27T13:39:06Z</time>
      </trkpt>
      <trkpt lat="43.66955" lon="2.46039">
        <ele>604</ele>
        <time>2019-08-27T13:39:09Z</time>
      </trkpt>
      <trkpt lat="43.6695" lon="2.46029">
        <ele>602.9</ele>
        <time>2019-08-27T13:39:13Z</time>
      </trkpt>
      <trkpt lat="43.66952" lon="2.46016">
        <ele>602.3</ele>
        <time>2019-08-27T13:39:16Z</time>
      </trkpt>
      <trkpt lat="43.66961" lon="2.4601">
        <ele>600.1</ele>
        <time>2019-08-27T13:39:18Z</time>
      </trkpt>
      <trkpt lat="43.66968" lon="2.45998">
        <ele>597.9</ele>
        <time>2019-08-27T13:39:21Z</time>
      </trkpt>
      <trkpt lat="43.66967" lon="2.45983">
        <ele>596.9</ele>
        <time>2019-08-27T13:39:27Z</time>
      </trkpt>
      <trkpt lat="43.66964" lon="2.4597">
        <ele>595.9</ele>
        <time>2019-08-27T13:39:32Z</time>
      </trkpt>
      <trkpt lat="43.6696" lon="2.45955">
        <ele>594.9</ele>
        <time>2019-08-27T13:39:36Z</time>
      </trkpt>
      <trkpt lat="43.66956" lon="2.45944">
        <ele>593.5</ele>
        <time>2019-08-27T13:39:41Z</time>
      </trkpt>
      <trkpt lat="43.6695" lon="2.45934">
        <ele>592.3</ele>
        <time>2019-08-27T13:39:45Z</time>
      </trkpt>
      <trkpt lat="43.66941" lon="2.45928">
        <ele>591</ele>
        <time>2019-08-27T13:39:49Z</time>
      </trkpt>
      <trkpt lat="43.66934" lon="2.4592">
        <ele>589.9</ele>
        <time>2019-08-27T13:39:52Z</time>
      </trkpt>
      <trkpt lat="43.6693" lon="2.45909">
        <ele>588.4</ele>
        <time>2019-08-27T13:39:56Z</time>
      </trkpt>
      <trkpt lat="43.66932" lon="2.45896">
        <ele>587.2</ele>
        <time>2019-08-27T13:39:59Z</time>
      </trkpt>
      <trkpt lat="43.66937" lon="2.45885">
        <ele>586.1</ele>
        <time>2019-08-27T13:40:02Z</time>
      </trkpt>
      <trkpt lat="43.66943" lon="2.45872">
        <ele>584.9</ele>
        <time>2019-08-27T13:40:05Z</time>
      </trkpt>
      <trkpt lat="43.66949" lon="2.45863">
        <ele>583.7</ele>
        <time>2019-08-27T13:40:08Z</time>
      </trkpt>
      <trkpt lat="43.66958" lon="2.45857">
        <ele>582.1</ele>
        <time>2019-08-27T13:40:12Z</time>
      </trkpt>
      <trkpt lat="43.66967" lon="2.45848">
        <ele>580.6</ele>
        <time>2019-08-27T13:40:16Z</time>
      </trkpt>
      <trkpt lat="43.66977" lon="2.45839">
        <ele>579.2</ele>
        <time>2019-08-27T13:40:20Z</time>
      </trkpt>
      <trkpt lat="43.66984" lon="2.45826">
        <ele>578.2</ele>
        <time>2019-08-27T13:40:23Z</time>
      </trkpt>
      <trkpt lat="43.6699" lon="2.45816">
        <ele>577.3</ele>
        <time>2019-08-27T13:40:26Z</time>
      </trkpt>
      <trkpt lat="43.66997" lon="2.45807">
        <ele>575.2</ele>
        <time>2019-08-27T13:40:32Z</time>
      </trkpt>
      <trkpt lat="43.67003" lon="2.45797">
        <ele>573.7</ele>
        <time>2019-08-27T13:40:36Z</time>
      </trkpt>
      <trkpt lat="43.6701" lon="2.45785">
        <ele>572.6</ele>
        <time>2019-08-27T13:40:39Z</time>
      </trkpt>
      <trkpt lat="43.67019" lon="2.45776">
        <ele>570.4</ele>
        <time>2019-08-27T13:40:44Z</time>
      </trkpt>
      <trkpt lat="43.67027" lon="2.45763">
        <ele>566.7</ele>
        <time>2019-08-27T13:40:56Z</time>
      </trkpt>
      <trkpt lat="43.67035" lon="2.45755">
        <ele>563.7</ele>
        <time>2019-08-27T13:41:04Z</time>
      </trkpt>
      <trkpt lat="43.67047" lon="2.45751">
        <ele>561.8</ele>
        <time>2019-08-27T13:41:08Z</time>
      </trkpt>
      <trkpt lat="43.67056" lon="2.45748">
        <ele>560</ele>
        <time>2019-08-27T13:41:12Z</time>
      </trkpt>
      <trkpt lat="43.67061" lon="2.45737">
        <ele>558.1</ele>
        <time>2019-08-27T13:41:16Z</time>
      </trkpt>
      <trkpt lat="43.67061" lon="2.45723">
        <ele>556.7</ele>
        <time>2019-08-27T13:41:19Z</time>
      </trkpt>
      <trkpt lat="43.6706" lon="2.45707">
        <ele>553.1</ele>
        <time>2019-08-27T13:41:22Z</time>
      </trkpt>
      <trkpt lat="43.67059" lon="2.45689">
        <ele>544.3</ele>
        <time>2019-08-27T13:41:25Z</time>
      </trkpt>
      <trkpt lat="43.67059" lon="2.45675">
        <ele>540.2</ele>
        <time>2019-08-27T13:41:27Z</time>
      </trkpt>
      <trkpt lat="43.67058" lon="2.45659">
        <ele>537.3</ele>
        <time>2019-08-27T13:41:30Z</time>
      </trkpt>
      <trkpt lat="43.67052" lon="2.45648">
        <ele>536.5</ele>
        <time>2019-08-27T13:41:33Z</time>
      </trkpt>
      <trkpt lat="43.67059" lon="2.45638">
        <ele>534.3</ele>
        <time>2019-08-27T13:41:51Z</time>
      </trkpt>
      <trkpt lat="43.67069" lon="2.45636">
        <ele>533.7</ele>
        <time>2019-08-27T13:42:01Z</time>
      </trkpt>
      <trkpt lat="43.67078" lon="2.4563">
        <ele>533.5</ele>
        <time>2019-08-27T13:42:06Z</time>
      </trkpt>
      <trkpt lat="43.67087" lon="2.45626">
        <ele>533.2</ele>
        <time>2019-08-27T13:42:11Z</time>
      </trkpt>
      <trkpt lat="43.67096" lon="2.45623">
        <ele>533.2</ele>
        <time>2019-08-27T13:42:15Z</time>
      </trkpt>
      <trkpt lat="43.67105" lon="2.45616">
        <ele>533.3</ele>
        <time>2019-08-27T13:42:19Z</time>
      </trkpt>
      <trkpt lat="43.67114" lon="2.45608">
        <ele>533.4</ele>
        <time>2019-08-27T13:42:23Z</time>
      </trkpt>
      <trkpt lat="43.67123" lon="2.45602">
        <ele>533.5</ele>
        <time>2019-08-27T13:42:27Z</time>
      </trkpt>
      <trkpt lat="43.67132" lon="2.45596">
        <ele>533.6</ele>
        <time>2019-08-27T13:42:32Z</time>
      </trkpt>
      <trkpt lat="43.67142" lon="2.45594">
        <ele>533.8</ele>
        <time>2019-08-27T13:42:36Z</time>
      </trkpt>
      <trkpt lat="43.67151" lon="2.45591">
        <ele>534</ele>
        <time>2019-08-27T13:42:40Z</time>
      </trkpt>
      <trkpt lat="43.67161" lon="2.45588">
        <ele>534.5</ele>
        <time>2019-08-27T13:42:45Z</time>
      </trkpt>
      <trkpt lat="43.67171" lon="2.45583">
        <ele>535.3</ele>
        <time>2019-08-27T13:42:51Z</time>
      </trkpt>
      <trkpt lat="43.67179" lon="2.45574">
        <ele>536.1</ele>
        <time>2019-08-27T13:42:58Z</time>
      </trkpt>
      <trkpt lat="43.67172" lon="2.45564">
        <ele>537.3</ele>
        <time>2019-08-27T13:43:08Z</time>
      </trkpt>
      <trkpt lat="43.67163" lon="2.45561">
        <ele>538</ele>
        <time>2019-08-27T13:43:15Z</time>
      </trkpt>
      <trkpt lat="43.67154" lon="2.4556">
        <ele>538.7</ele>
        <time>2019-08-27T13:43:21Z</time>
      </trkpt>
      <trkpt lat="43.67144" lon="2.45557">
        <ele>539.5</ele>
        <time>2019-08-27T13:43:28Z</time>
      </trkpt>
      <trkpt lat="43.67136" lon="2.4555">
        <ele>540.5</ele>
        <time>2019-08-27T13:43:35Z</time>
      </trkpt>
      <trkpt lat="43.67129" lon="2.4554">
        <ele>541.5</ele>
        <time>2019-08-27T13:43:43Z</time>
      </trkpt>
      <trkpt lat="43.67122" lon="2.45531">
        <ele>542.5</ele>
        <time>2019-08-27T13:43:50Z</time>
      </trkpt>
      <trkpt lat="43.67114" lon="2.45524">
        <ele>543.6</ele>
        <time>2019-08-27T13:43:57Z</time>
      </trkpt>
      <trkpt lat="43.67108" lon="2.45514">
        <ele>544.9</ele>
        <time>2019-08-27T13:44:04Z</time>
      </trkpt>
      <trkpt lat="43.67101" lon="2.45502">
        <ele>546.3</ele>
        <time>2019-08-27T13:44:11Z</time>
      </trkpt>
      <trkpt lat="43.67096" lon="2.45491">
        <ele>547.2</ele>
        <time>2019-08-27T13:44:16Z</time>
      </trkpt>
      <trkpt lat="43.67092" lon="2.45479">
        <ele>548.2</ele>
        <time>2019-08-27T13:44:21Z</time>
      </trkpt>
      <trkpt lat="43.6709" lon="2.45464">
        <ele>549.1</ele>
        <time>2019-08-27T13:44:27Z</time>
      </trkpt>
      <trkpt lat="43.67084" lon="2.4545">
        <ele>549.6</ele>
        <time>2019-08-27T13:44:32Z</time>
      </trkpt>
      <trkpt lat="43.67084" lon="2.45437">
        <ele>550.2</ele>
        <time>2019-08-27T13:44:37Z</time>
      </trkpt>
      <trkpt lat="43.6709" lon="2.45427">
        <ele>551.2</ele>
        <time>2019-08-27T13:44:42Z</time>
      </trkpt>
      <trkpt lat="43.67098" lon="2.45421">
        <ele>552.4</ele>
        <time>2019-08-27T13:44:47Z</time>
      </trkpt>
      <trkpt lat="43.67107" lon="2.45413">
        <ele>553.5</ele>
        <time>2019-08-27T13:44:52Z</time>
      </trkpt>
      <trkpt lat="43.67115" lon="2.45404">
        <ele>554.5</ele>
        <time>2019-08-27T13:44:57Z</time>
      </trkpt>
      <trkpt lat="43.67123" lon="2.45396">
        <ele>555.2</ele>
        <time>2019-08-27T13:45:01Z</time>
      </trkpt>
      <trkpt lat="43.67131" lon="2.45386">
        <ele>556</ele>
        <time>2019-08-27T13:45:05Z</time>
      </trkpt>
      <trkpt lat="43.67138" lon="2.45378">
        <ele>556.5</ele>
        <time>2019-08-27T13:45:08Z</time>
      </trkpt>
      <trkpt lat="43.67146" lon="2.45369">
        <ele>557</ele>
        <time>2019-08-27T13:45:12Z</time>
      </trkpt>
      <trkpt lat="43.67154" lon="2.4536">
        <ele>557.6</ele>
        <time>2019-08-27T13:45:16Z</time>
      </trkpt>
      <trkpt lat="43.67162" lon="2.45347">
        <ele>558.1</ele>
        <time>2019-08-27T13:45:20Z</time>
      </trkpt>
      <trkpt lat="43.67169" lon="2.45335">
        <ele>558.7</ele>
        <time>2019-08-27T13:45:24Z</time>
      </trkpt>
      <trkpt lat="43.67174" lon="2.45323">
        <ele>559.4</ele>
        <time>2019-08-27T13:45:28Z</time>
      </trkpt>
      <trkpt lat="43.67177" lon="2.45312">
        <ele>560</ele>
        <time>2019-08-27T13:45:32Z</time>
      </trkpt>
      <trkpt lat="43.67178" lon="2.45296">
        <ele>560.7</ele>
        <time>2019-08-27T13:45:36Z</time>
      </trkpt>
      <trkpt lat="43.6718" lon="2.45282">
        <ele>561.4</ele>
        <time>2019-08-27T13:45:40Z</time>
      </trkpt>
      <trkpt lat="43.67183" lon="2.45269">
        <ele>562.6</ele>
        <time>2019-08-27T13:45:46Z</time>
      </trkpt>
      <trkpt lat="43.67188" lon="2.45257">
        <ele>563.8</ele>
        <time>2019-08-27T13:45:53Z</time>
      </trkpt>
      <trkpt lat="43.67194" lon="2.45247">
        <ele>564.8</ele>
        <time>2019-08-27T13:45:59Z</time>
      </trkpt>
      <trkpt lat="43.67201" lon="2.45236">
        <ele>566</ele>
        <time>2019-08-27T13:46:06Z</time>
      </trkpt>
      <trkpt lat="43.67208" lon="2.45227">
        <ele>567.1</ele>
        <time>2019-08-27T13:46:12Z</time>
      </trkpt>
      <trkpt lat="43.6721" lon="2.45215">
        <ele>568</ele>
        <time>2019-08-27T13:46:17Z</time>
      </trkpt>
      <trkpt lat="43.67205" lon="2.45202">
        <ele>568.3</ele>
        <time>2019-08-27T13:46:20Z</time>
      </trkpt>
      <trkpt lat="43.67204" lon="2.45189">
        <ele>568.3</ele>
        <time>2019-08-27T13:46:25Z</time>
      </trkpt>
      <trkpt lat="43.67199" lon="2.45179">
        <ele>568.9</ele>
        <time>2019-08-27T13:46:30Z</time>
      </trkpt>
      <trkpt lat="43.67192" lon="2.45166">
        <ele>568.8</ele>
        <time>2019-08-27T13:47:13Z</time>
      </trkpt>
      <trkpt lat="43.67187" lon="2.45154">
        <ele>568.8</ele>
        <time>2019-08-27T13:47:17Z</time>
      </trkpt>
      <trkpt lat="43.67179" lon="2.45144">
        <ele>568.9</ele>
        <time>2019-08-27T13:47:21Z</time>
      </trkpt>
      <trkpt lat="43.67171" lon="2.45137">
        <ele>569</ele>
        <time>2019-08-27T13:47:24Z</time>
      </trkpt>
      <trkpt lat="43.67164" lon="2.45129">
        <ele>568.9</ele>
        <time>2019-08-27T13:47:27Z</time>
      </trkpt>
      <trkpt lat="43.67154" lon="2.45121">
        <ele>568.6</ele>
        <time>2019-08-27T13:47:30Z</time>
      </trkpt>
      <trkpt lat="43.67144" lon="2.45114">
        <ele>568</ele>
        <time>2019-08-27T13:47:34Z</time>
      </trkpt>
      <trkpt lat="43.67136" lon="2.45104">
        <ele>566.8</ele>
        <time>2019-08-27T13:47:38Z</time>
      </trkpt>
      <trkpt lat="43.67124" lon="2.45095">
        <ele>565.8</ele>
        <time>2019-08-27T13:47:41Z</time>
      </trkpt>
      <trkpt lat="43.67115" lon="2.45089">
        <ele>564.8</ele>
        <time>2019-08-27T13:47:44Z</time>
      </trkpt>
      <trkpt lat="43.67106" lon="2.4508">
        <ele>563.6</ele>
        <time>2019-08-27T13:47:48Z</time>
      </trkpt>
      <trkpt lat="43.67098" lon="2.4507">
        <ele>561.6</ele>
        <time>2019-08-27T13:47:51Z</time>
      </trkpt>
      <trkpt lat="43.67095" lon="2.45056">
        <ele>559.1</ele>
        <time>2019-08-27T13:47:54Z</time>
      </trkpt>
      <trkpt lat="43.67086" lon="2.45041">
        <ele>555.4</ele>
        <time>2019-08-27T13:47:57Z</time>
      </trkpt>
      <trkpt lat="43.67077" lon="2.45028">
        <ele>553.6</ele>
        <time>2019-08-27T13:47:59Z</time>
      </trkpt>
      <trkpt lat="43.67068" lon="2.45015">
        <ele>552.8</ele>
        <time>2019-08-27T13:48:01Z</time>
      </trkpt>
      <trkpt lat="43.67057" lon="2.45003">
        <ele>552.2</ele>
        <time>2019-08-27T13:48:03Z</time>
      </trkpt>
      <trkpt lat="43.67044" lon="2.44991">
        <ele>552.7</ele>
        <time>2019-08-27T13:48:05Z</time>
      </trkpt>
      <trkpt lat="43.67031" lon="2.4498">
        <ele>553.6</ele>
        <time>2019-08-27T13:48:07Z</time>
      </trkpt>
      <trkpt lat="43.67017" lon="2.44973">
        <ele>555.1</ele>
        <time>2019-08-27T13:48:09Z</time>
      </trkpt>
      <trkpt lat="43.67004" lon="2.44969">
        <ele>557.2</ele>
        <time>2019-08-27T13:48:11Z</time>
      </trkpt>
      <trkpt lat="43.66991" lon="2.44969">
        <ele>559.5</ele>
        <time>2019-08-27T13:48:13Z</time>
      </trkpt>
      <trkpt lat="43.6698" lon="2.44966">
        <ele>561.7</ele>
        <time>2019-08-27T13:48:15Z</time>
      </trkpt>
      <trkpt lat="43.66971" lon="2.44959">
        <ele>563.3</ele>
        <time>2019-08-27T13:48:17Z</time>
      </trkpt>
      <trkpt lat="43.66966" lon="2.44948">
        <ele>564.6</ele>
        <time>2019-08-27T13:48:19Z</time>
      </trkpt>
      <trkpt lat="43.6696" lon="2.44937">
        <ele>565.3</ele>
        <time>2019-08-27T13:48:21Z</time>
      </trkpt>
      <trkpt lat="43.66953" lon="2.44925">
        <ele>565.6</ele>
        <time>2019-08-27T13:48:23Z</time>
      </trkpt>
      <trkpt lat="43.66946" lon="2.44911">
        <ele>565.8</ele>
        <time>2019-08-27T13:48:25Z</time>
      </trkpt>
      <trkpt lat="43.66938" lon="2.44899">
        <ele>565.9</ele>
        <time>2019-08-27T13:48:27Z</time>
      </trkpt>
      <trkpt lat="43.6693" lon="2.44888">
        <ele>565.8</ele>
        <time>2019-08-27T13:48:29Z</time>
      </trkpt>
      <trkpt lat="43.66922" lon="2.44879">
        <ele>565.7</ele>
        <time>2019-08-27T13:48:31Z</time>
      </trkpt>
      <trkpt lat="43.66913" lon="2.44867">
        <ele>566.1</ele>
        <time>2019-08-27T13:48:34Z</time>
      </trkpt>
      <trkpt lat="43.66905" lon="2.44859">
        <ele>566.3</ele>
        <time>2019-08-27T13:48:37Z</time>
      </trkpt>
      <trkpt lat="43.66897" lon="2.44849">
        <ele>566.6</ele>
        <time>2019-08-27T13:48:42Z</time>
      </trkpt>
      <trkpt lat="43.6689" lon="2.4484">
        <ele>566.8</ele>
        <time>2019-08-27T13:48:47Z</time>
      </trkpt>
      <trkpt lat="43.66882" lon="2.44832">
        <ele>567.2</ele>
        <time>2019-08-27T13:48:52Z</time>
      </trkpt>
      <trkpt lat="43.66874" lon="2.44823">
        <ele>567.6</ele>
        <time>2019-08-27T13:48:57Z</time>
      </trkpt>
      <trkpt lat="43.66867" lon="2.44813">
        <ele>568.2</ele>
        <time>2019-08-27T13:49:03Z</time>
      </trkpt>
      <trkpt lat="43.66864" lon="2.448">
        <ele>568.7</ele>
        <time>2019-08-27T13:49:08Z</time>
      </trkpt>
      <trkpt lat="43.66859" lon="2.44788">
        <ele>569.4</ele>
        <time>2019-08-27T13:49:14Z</time>
      </trkpt>
      <trkpt lat="43.66855" lon="2.44774">
        <ele>570.2</ele>
        <time>2019-08-27T13:49:20Z</time>
      </trkpt>
      <trkpt lat="43.66849" lon="2.44762">
        <ele>570.9</ele>
        <time>2019-08-27T13:49:25Z</time>
      </trkpt>
      <trkpt lat="43.6684" lon="2.4475">
        <ele>571.4</ele>
        <time>2019-08-27T13:49:29Z</time>
      </trkpt>
      <trkpt lat="43.66833" lon="2.44741">
        <ele>571.8</ele>
        <time>2019-08-27T13:49:32Z</time>
      </trkpt>
      <trkpt lat="43.66827" lon="2.44727">
        <ele>573.2</ele>
        <time>2019-08-27T13:49:35Z</time>
      </trkpt>
      <trkpt lat="43.66824" lon="2.44714">
        <ele>574.5</ele>
        <time>2019-08-27T13:49:37Z</time>
      </trkpt>
      <trkpt lat="43.66822" lon="2.447">
        <ele>575.4</ele>
        <time>2019-08-27T13:49:39Z</time>
      </trkpt>
      <trkpt lat="43.6682" lon="2.44685">
        <ele>576.1</ele>
        <time>2019-08-27T13:49:41Z</time>
      </trkpt>
      <trkpt lat="43.6682" lon="2.44671">
        <ele>576.6</ele>
        <time>2019-08-27T13:49:43Z</time>
      </trkpt>
      <trkpt lat="43.66821" lon="2.44658">
        <ele>576.9</ele>
        <time>2019-08-27T13:49:45Z</time>
      </trkpt>
      <trkpt lat="43.66823" lon="2.44644">
        <ele>577.1</ele>
        <time>2019-08-27T13:49:47Z</time>
      </trkpt>
      <trkpt lat="43.66828" lon="2.44629">
        <ele>577.2</ele>
        <time>2019-08-27T13:49:49Z</time>
      </trkpt>
      <trkpt lat="43.66835" lon="2.44615">
        <ele>577.6</ele>
        <time>2019-08-27T13:49:51Z</time>
      </trkpt>
      <trkpt lat="43.66843" lon="2.44602">
        <ele>578.2</ele>
        <time>2019-08-27T13:49:53Z</time>
      </trkpt>
      <trkpt lat="43.66849" lon="2.44589">
        <ele>578.4</ele>
        <time>2019-08-27T13:49:55Z</time>
      </trkpt>
      <trkpt lat="43.66852" lon="2.44573">
        <ele>578.4</ele>
        <time>2019-08-27T13:49:57Z</time>
      </trkpt>
      <trkpt lat="43.6685" lon="2.44556">
        <ele>578.5</ele>
        <time>2019-08-27T13:49:59Z</time>
      </trkpt>
      <trkpt lat="43.66848" lon="2.4454">
        <ele>578.4</ele>
        <time>2019-08-27T13:50:02Z</time>
      </trkpt>
      <trkpt lat="43.66844" lon="2.44526">
        <ele>578.3</ele>
        <time>2019-08-27T13:50:06Z</time>
      </trkpt>
      <trkpt lat="43.66841" lon="2.44513">
        <ele>578.2</ele>
        <time>2019-08-27T13:50:11Z</time>
      </trkpt>
      <trkpt lat="43.66837" lon="2.44501">
        <ele>578</ele>
        <time>2019-08-27T13:50:16Z</time>
      </trkpt>
      <trkpt lat="43.66832" lon="2.44488">
        <ele>577.9</ele>
        <time>2019-08-27T13:50:21Z</time>
      </trkpt>
      <trkpt lat="43.66823" lon="2.44483">
        <ele>577.8</ele>
        <time>2019-08-27T13:50:26Z</time>
      </trkpt>
      <trkpt lat="43.66813" lon="2.44481">
        <ele>577.7</ele>
        <time>2019-08-27T13:50:32Z</time>
      </trkpt>
      <trkpt lat="43.66804" lon="2.44475">
        <ele>577.8</ele>
        <time>2019-08-27T13:50:39Z</time>
      </trkpt>
      <trkpt lat="43.66795" lon="2.44472">
        <ele>578</ele>
        <time>2019-08-27T13:50:45Z</time>
      </trkpt>
      <trkpt lat="43.66785" lon="2.44472">
        <ele>578.4</ele>
        <time>2019-08-27T13:50:50Z</time>
      </trkpt>
      <trkpt lat="43.66775" lon="2.4447">
        <ele>578.7</ele>
        <time>2019-08-27T13:50:55Z</time>
      </trkpt>
      <trkpt lat="43.66767" lon="2.44465">
        <ele>578.9</ele>
        <time>2019-08-27T13:50:59Z</time>
      </trkpt>
      <trkpt lat="43.66757" lon="2.44466">
        <ele>579.1</ele>
        <time>2019-08-27T13:51:03Z</time>
      </trkpt>
      <trkpt lat="43.66747" lon="2.44463">
        <ele>579.2</ele>
        <time>2019-08-27T13:51:07Z</time>
      </trkpt>
      <trkpt lat="43.66736" lon="2.44465">
        <ele>579.3</ele>
        <time>2019-08-27T13:51:12Z</time>
      </trkpt>
      <trkpt lat="43.66726" lon="2.44469">
        <ele>579.3</ele>
        <time>2019-08-27T13:51:17Z</time>
      </trkpt>
      <trkpt lat="43.66717" lon="2.44477">
        <ele>579</ele>
        <time>2019-08-27T13:51:22Z</time>
      </trkpt>
      <trkpt lat="43.66707" lon="2.44475">
        <ele>578.6</ele>
        <time>2019-08-27T13:51:26Z</time>
      </trkpt>
      <trkpt lat="43.66697" lon="2.44482">
        <ele>578.1</ele>
        <time>2019-08-27T13:51:30Z</time>
      </trkpt>
      <trkpt lat="43.66686" lon="2.44485">
        <ele>577.5</ele>
        <time>2019-08-27T13:51:34Z</time>
      </trkpt>
      <trkpt lat="43.66675" lon="2.44489">
        <ele>576.9</ele>
        <time>2019-08-27T13:51:38Z</time>
      </trkpt>
      <trkpt lat="43.66665" lon="2.44487">
        <ele>576.1</ele>
        <time>2019-08-27T13:51:42Z</time>
      </trkpt>
      <trkpt lat="43.66656" lon="2.44481">
        <ele>575.2</ele>
        <time>2019-08-27T13:51:46Z</time>
      </trkpt>
      <trkpt lat="43.6665" lon="2.4447">
        <ele>573.5</ele>
        <time>2019-08-27T13:51:50Z</time>
      </trkpt>
      <trkpt lat="43.66639" lon="2.44462">
        <ele>571</ele>
        <time>2019-08-27T13:51:58Z</time>
      </trkpt>
      <trkpt lat="43.66629" lon="2.44458">
        <ele>571</ele>
        <time>2019-08-27T13:52:02Z</time>
      </trkpt>
      <trkpt lat="43.66616" lon="2.44455">
        <ele>570.7</ele>
        <time>2019-08-27T13:52:06Z</time>
      </trkpt>
      <trkpt lat="43.66606" lon="2.44457">
        <ele>570.7</ele>
        <time>2019-08-27T13:52:09Z</time>
      </trkpt>
      <trkpt lat="43.66596" lon="2.4445">
        <ele>571.2</ele>
        <time>2019-08-27T13:52:12Z</time>
      </trkpt>
      <trkpt lat="43.6659" lon="2.4444">
        <ele>572.1</ele>
        <time>2019-08-27T13:52:15Z</time>
      </trkpt>
      <trkpt lat="43.66583" lon="2.44427">
        <ele>573.3</ele>
        <time>2019-08-27T13:52:19Z</time>
      </trkpt>
      <trkpt lat="43.66576" lon="2.44416">
        <ele>574.3</ele>
        <time>2019-08-27T13:52:22Z</time>
      </trkpt>
      <trkpt lat="43.66572" lon="2.44404">
        <ele>575.3</ele>
        <time>2019-08-27T13:52:25Z</time>
      </trkpt>
      <trkpt lat="43.66565" lon="2.4439">
        <ele>579.9</ele>
        <time>2019-08-27T13:52:28Z</time>
      </trkpt>
      <trkpt lat="43.66556" lon="2.44378">
        <ele>585.4</ele>
        <time>2019-08-27T13:52:31Z</time>
      </trkpt>
      <trkpt lat="43.66549" lon="2.44368">
        <ele>587.8</ele>
        <time>2019-08-27T13:52:33Z</time>
      </trkpt>
      <trkpt lat="43.66542" lon="2.44356">
        <ele>589.4</ele>
        <time>2019-08-27T13:52:35Z</time>
      </trkpt>
      <trkpt lat="43.66535" lon="2.44343">
        <ele>590.2</ele>
        <time>2019-08-27T13:52:37Z</time>
      </trkpt>
      <trkpt lat="43.66528" lon="2.44329">
        <ele>590.6</ele>
        <time>2019-08-27T13:52:39Z</time>
      </trkpt>
      <trkpt lat="43.66521" lon="2.44315">
        <ele>590.8</ele>
        <time>2019-08-27T13:52:41Z</time>
      </trkpt>
      <trkpt lat="43.66517" lon="2.44301">
        <ele>590.5</ele>
        <time>2019-08-27T13:52:43Z</time>
      </trkpt>
      <trkpt lat="43.66514" lon="2.44289">
        <ele>589.9</ele>
        <time>2019-08-27T13:52:45Z</time>
      </trkpt>
      <trkpt lat="43.66508" lon="2.4428">
        <ele>589.2</ele>
        <time>2019-08-27T13:52:47Z</time>
      </trkpt>
      <trkpt lat="43.66495" lon="2.44272">
        <ele>588.4</ele>
        <time>2019-08-27T13:52:49Z</time>
      </trkpt>
      <trkpt lat="43.66485" lon="2.44257">
        <ele>587.8</ele>
        <time>2019-08-27T13:52:51Z</time>
      </trkpt>
      <trkpt lat="43.66474" lon="2.44245">
        <ele>587</ele>
        <time>2019-08-27T13:52:53Z</time>
      </trkpt>
      <trkpt lat="43.66463" lon="2.44237">
        <ele>585.9</ele>
        <time>2019-08-27T13:52:55Z</time>
      </trkpt>
      <trkpt lat="43.66451" lon="2.44228">
        <ele>584.6</ele>
        <time>2019-08-27T13:52:57Z</time>
      </trkpt>
      <trkpt lat="43.6644" lon="2.44219">
        <ele>583.1</ele>
        <time>2019-08-27T13:52:59Z</time>
      </trkpt>
      <trkpt lat="43.6643" lon="2.44209">
        <ele>581.8</ele>
        <time>2019-08-27T13:53:01Z</time>
      </trkpt>
      <trkpt lat="43.6642" lon="2.44198">
        <ele>580.6</ele>
        <time>2019-08-27T13:53:03Z</time>
      </trkpt>
      <trkpt lat="43.66411" lon="2.44188">
        <ele>579.8</ele>
        <time>2019-08-27T13:53:05Z</time>
      </trkpt>
      <trkpt lat="43.66401" lon="2.44185">
        <ele>578.8</ele>
        <time>2019-08-27T13:53:07Z</time>
      </trkpt>
      <trkpt lat="43.66386" lon="2.44191">
        <ele>577.5</ele>
        <time>2019-08-27T13:53:09Z</time>
      </trkpt>
      <trkpt lat="43.6637" lon="2.44198">
        <ele>576</ele>
        <time>2019-08-27T13:53:11Z</time>
      </trkpt>
      <trkpt lat="43.66356" lon="2.44203">
        <ele>574.6</ele>
        <time>2019-08-27T13:53:13Z</time>
      </trkpt>
      <trkpt lat="43.66343" lon="2.44211">
        <ele>573.1</ele>
        <time>2019-08-27T13:53:15Z</time>
      </trkpt>
      <trkpt lat="43.66331" lon="2.44222">
        <ele>571.7</ele>
        <time>2019-08-27T13:53:17Z</time>
      </trkpt>
      <trkpt lat="43.66323" lon="2.44238">
        <ele>570.3</ele>
        <time>2019-08-27T13:53:19Z</time>
      </trkpt>
      <trkpt lat="43.66317" lon="2.44253">
        <ele>569.1</ele>
        <time>2019-08-27T13:53:21Z</time>
      </trkpt>
      <trkpt lat="43.66308" lon="2.44264">
        <ele>567.9</ele>
        <time>2019-08-27T13:53:23Z</time>
      </trkpt>
      <trkpt lat="43.66293" lon="2.44267">
        <ele>566.5</ele>
        <time>2019-08-27T13:53:25Z</time>
      </trkpt>
      <trkpt lat="43.66279" lon="2.44261">
        <ele>565.2</ele>
        <time>2019-08-27T13:53:27Z</time>
      </trkpt>
      <trkpt lat="43.66265" lon="2.44259">
        <ele>564</ele>
        <time>2019-08-27T13:53:29Z</time>
      </trkpt>
      <trkpt lat="43.6625" lon="2.44263">
        <ele>563.2</ele>
        <time>2019-08-27T13:53:31Z</time>
      </trkpt>
      <trkpt lat="43.66237" lon="2.44275">
        <ele>562.9</ele>
        <time>2019-08-27T13:53:33Z</time>
      </trkpt>
      <trkpt lat="43.66232" lon="2.44294">
        <ele>562.6</ele>
        <time>2019-08-27T13:53:35Z</time>
      </trkpt>
      <trkpt lat="43.66235" lon="2.44314">
        <ele>562.1</ele>
        <time>2019-08-27T13:53:37Z</time>
      </trkpt>
      <trkpt lat="43.66245" lon="2.44328">
        <ele>560.7</ele>
        <time>2019-08-27T13:53:39Z</time>
      </trkpt>
      <trkpt lat="43.66256" lon="2.44328">
        <ele>559.3</ele>
        <time>2019-08-27T13:53:41Z</time>
      </trkpt>
      <trkpt lat="43.66249" lon="2.44318">
        <ele>556.8</ele>
        <time>2019-08-27T13:53:57Z</time>
      </trkpt>
      <trkpt lat="43.66243" lon="2.44306">
        <ele>555</ele>
        <time>2019-08-27T13:54:01Z</time>
      </trkpt>
      <trkpt lat="43.66243" lon="2.4429">
        <ele>553.9</ele>
        <time>2019-08-27T13:54:05Z</time>
      </trkpt>
      <trkpt lat="43.66247" lon="2.44278">
        <ele>551.3</ele>
        <time>2019-08-27T13:54:09Z</time>
      </trkpt>
      <trkpt lat="43.66239" lon="2.44287">
        <ele>550.1</ele>
        <time>2019-08-27T13:54:36Z</time>
      </trkpt>
      <trkpt lat="43.66233" lon="2.44276">
        <ele>549.3</ele>
        <time>2019-08-27T13:54:43Z</time>
      </trkpt>
      <trkpt lat="43.66229" lon="2.44264">
        <ele>547.6</ele>
        <time>2019-08-27T13:54:47Z</time>
      </trkpt>
      <trkpt lat="43.66218" lon="2.4426">
        <ele>546.6</ele>
        <time>2019-08-27T13:54:50Z</time>
      </trkpt>
      <trkpt lat="43.66209" lon="2.44259">
        <ele>546.3</ele>
        <time>2019-08-27T13:54:52Z</time>
      </trkpt>
      <trkpt lat="43.662" lon="2.44262">
        <ele>546.1</ele>
        <time>2019-08-27T13:54:54Z</time>
      </trkpt>
      <trkpt lat="43.66187" lon="2.44263">
        <ele>545.8</ele>
        <time>2019-08-27T13:54:57Z</time>
      </trkpt>
      <trkpt lat="43.66176" lon="2.44263">
        <ele>545.5</ele>
        <time>2019-08-27T13:55:00Z</time>
      </trkpt>
      <trkpt lat="43.66166" lon="2.44263">
        <ele>545.1</ele>
        <time>2019-08-27T13:55:07Z</time>
      </trkpt>
      <trkpt lat="43.66157" lon="2.44267">
        <ele>542.4</ele>
        <time>2019-08-27T13:55:13Z</time>
      </trkpt>
      <trkpt lat="43.66148" lon="2.44271">
        <ele>540.6</ele>
        <time>2019-08-27T13:55:33Z</time>
      </trkpt>
      <trkpt lat="43.66148" lon="2.44283">
        <ele>531.8</ele>
        <time>2019-08-27T13:56:14Z</time>
      </trkpt>
      <trkpt lat="43.66139" lon="2.44283">
        <ele>528.2</ele>
        <time>2019-08-27T13:56:35Z</time>
      </trkpt>
      <trkpt lat="43.66128" lon="2.44276">
        <ele>526.3</ele>
        <time>2019-08-27T13:56:42Z</time>
      </trkpt>
      <trkpt lat="43.66118" lon="2.44272">
        <ele>525.3</ele>
        <time>2019-08-27T13:56:45Z</time>
      </trkpt>
      <trkpt lat="43.66106" lon="2.44272">
        <ele>524.3</ele>
        <time>2019-08-27T13:56:48Z</time>
      </trkpt>
      <trkpt lat="43.66096" lon="2.44271">
        <ele>521.9</ele>
        <time>2019-08-27T13:56:55Z</time>
      </trkpt>
      <trkpt lat="43.66086" lon="2.44267">
        <ele>520.5</ele>
        <time>2019-08-27T13:56:59Z</time>
      </trkpt>
      <trkpt lat="43.66077" lon="2.44268">
        <ele>518.8</ele>
        <time>2019-08-27T13:57:03Z</time>
      </trkpt>
      <trkpt lat="43.66068" lon="2.44269">
        <ele>517</ele>
        <time>2019-08-27T13:57:07Z</time>
      </trkpt>
      <trkpt lat="43.66053" lon="2.44276">
        <ele>512.6</ele>
        <time>2019-08-27T13:57:16Z</time>
      </trkpt>
      <trkpt lat="43.66044" lon="2.44276">
        <ele>510.4</ele>
        <time>2019-08-27T13:57:25Z</time>
      </trkpt>
      <trkpt lat="43.66035" lon="2.44272">
        <ele>510.4</ele>
        <time>2019-08-27T13:57:35Z</time>
      </trkpt>
      <trkpt lat="43.66026" lon="2.44277">
        <ele>510.2</ele>
        <time>2019-08-27T13:57:40Z</time>
      </trkpt>
      <trkpt lat="43.66018" lon="2.44287">
        <ele>510</ele>
        <time>2019-08-27T13:57:44Z</time>
      </trkpt>
      <trkpt lat="43.66012" lon="2.443">
        <ele>509.6</ele>
        <time>2019-08-27T13:57:48Z</time>
      </trkpt>
      <trkpt lat="43.66012" lon="2.44313">
        <ele>508.9</ele>
        <time>2019-08-27T13:57:53Z</time>
      </trkpt>
      <trkpt lat="43.66002" lon="2.44309">
        <ele>508.1</ele>
        <time>2019-08-27T13:57:59Z</time>
      </trkpt>
      <trkpt lat="43.65995" lon="2.44301">
        <ele>507.5</ele>
        <time>2019-08-27T13:58:05Z</time>
      </trkpt>
      <trkpt lat="43.66" lon="2.44311">
        <ele>506.4</ele>
        <time>2019-08-27T13:58:26Z</time>
      </trkpt>
      <trkpt lat="43.6601" lon="2.44312">
        <ele>506.1</ele>
        <time>2019-08-27T13:58:33Z</time>
      </trkpt>
      <trkpt lat="43.66016" lon="2.44323">
        <ele>506</ele>
        <time>2019-08-27T13:58:42Z</time>
      </trkpt>
      <trkpt lat="43.66007" lon="2.44327">
        <ele>505.7</ele>
        <time>2019-08-27T13:58:47Z</time>
      </trkpt>
      <trkpt lat="43.65999" lon="2.4432">
        <ele>504.8</ele>
        <time>2019-08-27T13:58:56Z</time>
      </trkpt>
      <trkpt lat="43.65988" lon="2.44314">
        <ele>503.8</ele>
        <time>2019-08-27T13:59:00Z</time>
      </trkpt>
      <trkpt lat="43.65985" lon="2.44301">
        <ele>503</ele>
        <time>2019-08-27T13:59:03Z</time>
      </trkpt>
      <trkpt lat="43.65986" lon="2.44288">
        <ele>502.3</ele>
        <time>2019-08-27T13:59:06Z</time>
      </trkpt>
      <trkpt lat="43.65985" lon="2.44275">
        <ele>501.5</ele>
        <time>2019-08-27T13:59:10Z</time>
      </trkpt>
      <trkpt lat="43.65984" lon="2.44258">
        <ele>500.8</ele>
        <time>2019-08-27T13:59:14Z</time>
      </trkpt>
      <trkpt lat="43.65984" lon="2.44242">
        <ele>500.1</ele>
        <time>2019-08-27T13:59:18Z</time>
      </trkpt>
      <trkpt lat="43.65976" lon="2.4423">
        <ele>499.1</ele>
        <time>2019-08-27T13:59:23Z</time>
      </trkpt>
      <trkpt lat="43.65966" lon="2.44224">
        <ele>498.4</ele>
        <time>2019-08-27T13:59:27Z</time>
      </trkpt>
      <trkpt lat="43.65957" lon="2.44218">
        <ele>497.6</ele>
        <time>2019-08-27T13:59:32Z</time>
      </trkpt>
      <trkpt lat="43.65954" lon="2.44206">
        <ele>495.6</ele>
        <time>2019-08-27T13:59:56Z</time>
      </trkpt>
      <trkpt lat="43.65961" lon="2.44195">
        <ele>493.8</ele>
        <time>2019-08-27T14:00:04Z</time>
      </trkpt>
      <trkpt lat="43.6596" lon="2.44182">
        <ele>492.8</ele>
        <time>2019-08-27T14:00:11Z</time>
      </trkpt>
      <trkpt lat="43.65962" lon="2.4417">
        <ele>491.6</ele>
        <time>2019-08-27T14:00:21Z</time>
      </trkpt>
      <trkpt lat="43.65964" lon="2.44157">
        <ele>491</ele>
        <time>2019-08-27T14:00:31Z</time>
      </trkpt>
      <trkpt lat="43.65961" lon="2.44144">
        <ele>491.1</ele>
        <time>2019-08-27T14:00:37Z</time>
      </trkpt>
      <trkpt lat="43.6596" lon="2.44131">
        <ele>490.6</ele>
        <time>2019-08-27T14:00:48Z</time>
      </trkpt>
      <trkpt lat="43.65963" lon="2.4412">
        <ele>490.9</ele>
        <time>2019-08-27T14:01:00Z</time>
      </trkpt>
      <trkpt lat="43.65972" lon="2.44114">
        <ele>491.4</ele>
        <time>2019-08-27T14:01:23Z</time>
      </trkpt>
      <trkpt lat="43.65979" lon="2.44105">
        <ele>491.7</ele>
        <time>2019-08-27T14:01:36Z</time>
      </trkpt>
      <trkpt lat="43.65978" lon="2.44092">
        <ele>491.6</ele>
        <time>2019-08-27T14:01:42Z</time>
      </trkpt>
      <trkpt lat="43.65979" lon="2.44079">
        <ele>491.8</ele>
        <time>2019-08-27T14:01:56Z</time>
      </trkpt>
      <trkpt lat="43.6598" lon="2.44067">
        <ele>492</ele>
        <time>2019-08-27T14:02:07Z</time>
      </trkpt>
      <trkpt lat="43.65986" lon="2.44056">
        <ele>491.9</ele>
        <time>2019-08-27T14:02:18Z</time>
      </trkpt>
      <trkpt lat="43.65993" lon="2.44049">
        <ele>491.6</ele>
        <time>2019-08-27T14:03:06Z</time>
      </trkpt>
      <trkpt lat="43.66" lon="2.4404">
        <ele>488.7</ele>
        <time>2019-08-27T14:03:46Z</time>
      </trkpt>
      <trkpt lat="43.66003" lon="2.44028">
        <ele>488.7</ele>
        <time>2019-08-27T14:03:57Z</time>
      </trkpt>
      <trkpt lat="43.6601" lon="2.4402">
        <ele>489</ele>
        <time>2019-08-27T14:04:08Z</time>
      </trkpt>
      <trkpt lat="43.66009" lon="2.44007">
        <ele>489.4</ele>
        <time>2019-08-27T14:04:33Z</time>
      </trkpt>
      <trkpt lat="43.66009" lon="2.43995">
        <ele>489</ele>
        <time>2019-08-27T14:04:55Z</time>
      </trkpt>
      <trkpt lat="43.66016" lon="2.43986">
        <ele>487.9</ele>
        <time>2019-08-27T14:05:11Z</time>
      </trkpt>
      <trkpt lat="43.6602" lon="2.43975">
        <ele>487.3</ele>
        <time>2019-08-27T14:05:26Z</time>
      </trkpt>
      <trkpt lat="43.66027" lon="2.43967">
        <ele>485.2</ele>
        <time>2019-08-27T14:06:01Z</time>
      </trkpt>
      <trkpt lat="43.66032" lon="2.43956">
        <ele>485.4</ele>
        <time>2019-08-27T14:06:20Z</time>
      </trkpt>
      <trkpt lat="43.66031" lon="2.43942">
        <ele>485.5</ele>
        <time>2019-08-27T14:06:29Z</time>
      </trkpt>
      <trkpt lat="43.66031" lon="2.43929">
        <ele>483.4</ele>
        <time>2019-08-27T14:06:59Z</time>
      </trkpt>
      <trkpt lat="43.66034" lon="2.43917">
        <ele>482.6</ele>
        <time>2019-08-27T14:07:09Z</time>
      </trkpt>
      <trkpt lat="43.66036" lon="2.43902">
        <ele>481.5</ele>
        <time>2019-08-27T14:07:15Z</time>
      </trkpt>
      <trkpt lat="43.66038" lon="2.43889">
        <ele>480.4</ele>
        <time>2019-08-27T14:07:22Z</time>
      </trkpt>
      <trkpt lat="43.6604" lon="2.43876">
        <ele>480.1</ele>
        <time>2019-08-27T14:07:26Z</time>
      </trkpt>
      <trkpt lat="43.66046" lon="2.43866">
        <ele>479.8</ele>
        <time>2019-08-27T14:07:31Z</time>
      </trkpt>
      <trkpt lat="43.66051" lon="2.43855">
        <ele>479.4</ele>
        <time>2019-08-27T14:07:37Z</time>
      </trkpt>
      <trkpt lat="43.66058" lon="2.43846">
        <ele>478.7</ele>
        <time>2019-08-27T14:07:45Z</time>
      </trkpt>
      <trkpt lat="43.66061" lon="2.4383">
        <ele>478.2</ele>
        <time>2019-08-27T14:07:51Z</time>
      </trkpt>
      <trkpt lat="43.66066" lon="2.43817">
        <ele>477.8</ele>
        <time>2019-08-27T14:07:55Z</time>
      </trkpt>
      <trkpt lat="43.6607" lon="2.43804">
        <ele>477.3</ele>
        <time>2019-08-27T14:07:59Z</time>
      </trkpt>
      <trkpt lat="43.66073" lon="2.43792">
        <ele>475.8</ele>
        <time>2019-08-27T14:08:11Z</time>
      </trkpt>
      <trkpt lat="43.66075" lon="2.43779">
        <ele>475.3</ele>
        <time>2019-08-27T14:08:14Z</time>
      </trkpt>
      <trkpt lat="43.66076" lon="2.43765">
        <ele>474.4</ele>
        <time>2019-08-27T14:08:20Z</time>
      </trkpt>
      <trkpt lat="43.66081" lon="2.43753">
        <ele>474.1</ele>
        <time>2019-08-27T14:08:40Z</time>
      </trkpt>
      <trkpt lat="43.66084" lon="2.4374">
        <ele>473.9</ele>
        <time>2019-08-27T14:08:51Z</time>
      </trkpt>
      <trkpt lat="43.66083" lon="2.43727">
        <ele>473.5</ele>
        <time>2019-08-27T14:08:57Z</time>
      </trkpt>
      <trkpt lat="43.6608" lon="2.43713">
        <ele>472.7</ele>
        <time>2019-08-27T14:09:03Z</time>
      </trkpt>
      <trkpt lat="43.66077" lon="2.43699">
        <ele>472.4</ele>
        <time>2019-08-27T14:09:07Z</time>
      </trkpt>
      <trkpt lat="43.66073" lon="2.43685">
        <ele>471.4</ele>
        <time>2019-08-27T14:09:14Z</time>
      </trkpt>
      <trkpt lat="43.66066" lon="2.43675">
        <ele>469.9</ele>
        <time>2019-08-27T14:09:20Z</time>
      </trkpt>
      <trkpt lat="43.66066" lon="2.4366">
        <ele>468.6</ele>
        <time>2019-08-27T14:09:25Z</time>
      </trkpt>
      <trkpt lat="43.66065" lon="2.43645">
        <ele>467.8</ele>
        <time>2019-08-27T14:09:29Z</time>
      </trkpt>
      <trkpt lat="43.66061" lon="2.43632">
        <ele>467.3</ele>
        <time>2019-08-27T14:09:33Z</time>
      </trkpt>
      <trkpt lat="43.66054" lon="2.43624">
        <ele>465.6</ele>
        <time>2019-08-27T14:09:45Z</time>
      </trkpt>
      <trkpt lat="43.66052" lon="2.43611">
        <ele>463.4</ele>
        <time>2019-08-27T14:09:50Z</time>
      </trkpt>
      <trkpt lat="43.66045" lon="2.43601">
        <ele>462.6</ele>
        <time>2019-08-27T14:09:55Z</time>
      </trkpt>
      <trkpt lat="43.66042" lon="2.43589">
        <ele>461.5</ele>
        <time>2019-08-27T14:10:02Z</time>
      </trkpt>
      <trkpt lat="43.66037" lon="2.43579">
        <ele>460.3</ele>
        <time>2019-08-27T14:10:09Z</time>
      </trkpt>
      <trkpt lat="43.66034" lon="2.43566">
        <ele>459.7</ele>
        <time>2019-08-27T14:10:14Z</time>
      </trkpt>
      <trkpt lat="43.66035" lon="2.43552">
        <ele>459.6</ele>
        <time>2019-08-27T14:10:32Z</time>
      </trkpt>
      <trkpt lat="43.66033" lon="2.4354">
        <ele>459.1</ele>
        <time>2019-08-27T14:10:41Z</time>
      </trkpt>
      <trkpt lat="43.66032" lon="2.43526">
        <ele>457.5</ele>
        <time>2019-08-27T14:10:53Z</time>
      </trkpt>
      <trkpt lat="43.66027" lon="2.43516">
        <ele>454.6</ele>
        <time>2019-08-27T14:11:13Z</time>
      </trkpt>
      <trkpt lat="43.66024" lon="2.43503">
        <ele>452.8</ele>
        <time>2019-08-27T14:11:22Z</time>
      </trkpt>
      <trkpt lat="43.66018" lon="2.43494">
        <ele>451</ele>
        <time>2019-08-27T14:11:56Z</time>
      </trkpt>
      <trkpt lat="43.66012" lon="2.43483">
        <ele>450</ele>
        <time>2019-08-27T14:12:07Z</time>
      </trkpt>
      <trkpt lat="43.66008" lon="2.4347">
        <ele>449.2</ele>
        <time>2019-08-27T14:12:14Z</time>
      </trkpt>
      <trkpt lat="43.66006" lon="2.43458">
        <ele>448.9</ele>
        <time>2019-08-27T14:12:21Z</time>
      </trkpt>
      <trkpt lat="43.66015" lon="2.4346">
        <ele>450</ele>
        <time>2019-08-27T14:12:59Z</time>
      </trkpt>
      <trkpt lat="43.66017" lon="2.43447">
        <ele>451.7</ele>
        <time>2019-08-27T14:13:53Z</time>
      </trkpt>
      <trkpt lat="43.66015" lon="2.43435">
        <ele>451.9</ele>
        <time>2019-08-27T14:14:36Z</time>
      </trkpt>
      <trkpt lat="43.66015" lon="2.43421">
        <ele>449.8</ele>
        <time>2019-08-27T14:14:53Z</time>
      </trkpt>
      <trkpt lat="43.66014" lon="2.43408">
        <ele>448</ele>
        <time>2019-08-27T14:15:07Z</time>
      </trkpt>
      <trkpt lat="43.66013" lon="2.43395">
        <ele>444</ele>
        <time>2019-08-27T14:15:32Z</time>
      </trkpt>
      <trkpt lat="43.66021" lon="2.43404">
        <ele>441.8</ele>
        <time>2019-08-27T14:15:43Z</time>
      </trkpt>
      <trkpt lat="43.66027" lon="2.43415">
        <ele>440.5</ele>
        <time>2019-08-27T14:15:49Z</time>
      </trkpt>
      <trkpt lat="43.66032" lon="2.43426">
        <ele>439.6</ele>
        <time>2019-08-27T14:15:53Z</time>
      </trkpt>
      <trkpt lat="43.66037" lon="2.4344">
        <ele>438.7</ele>
        <time>2019-08-27T14:15:57Z</time>
      </trkpt>
      <trkpt lat="43.66041" lon="2.43452">
        <ele>438.1</ele>
        <time>2019-08-27T14:16:00Z</time>
      </trkpt>
      <trkpt lat="43.66045" lon="2.43466">
        <ele>437.3</ele>
        <time>2019-08-27T14:16:04Z</time>
      </trkpt>
      <trkpt lat="43.66049" lon="2.43477">
        <ele>436.7</ele>
        <time>2019-08-27T14:16:07Z</time>
      </trkpt>
      <trkpt lat="43.66053" lon="2.43489">
        <ele>435.9</ele>
        <time>2019-08-27T14:16:11Z</time>
      </trkpt>
      <trkpt lat="43.6606" lon="2.43501">
        <ele>435.3</ele>
        <time>2019-08-27T14:16:14Z</time>
      </trkpt>
      <trkpt lat="43.66066" lon="2.43512">
        <ele>434.6</ele>
        <time>2019-08-27T14:16:17Z</time>
      </trkpt>
      <trkpt lat="43.66068" lon="2.43525">
        <ele>433.6</ele>
        <time>2019-08-27T14:16:22Z</time>
      </trkpt>
      <trkpt lat="43.66073" lon="2.43536">
        <ele>433</ele>
        <time>2019-08-27T14:16:25Z</time>
      </trkpt>
      <trkpt lat="43.66079" lon="2.43551">
        <ele>432.6</ele>
        <time>2019-08-27T14:16:28Z</time>
      </trkpt>
      <trkpt lat="43.66085" lon="2.43564">
        <ele>432</ele>
        <time>2019-08-27T14:16:31Z</time>
      </trkpt>
      <trkpt lat="43.66093" lon="2.43579">
        <ele>429.8</ele>
        <time>2019-08-27T14:16:34Z</time>
      </trkpt>
      <trkpt lat="43.66097" lon="2.43595">
        <ele>426.3</ele>
        <time>2019-08-27T14:16:38Z</time>
      </trkpt>
      <trkpt lat="43.66104" lon="2.43621">
        <ele>422.6</ele>
        <time>2019-08-27T14:16:43Z</time>
      </trkpt>
      <trkpt lat="43.66108" lon="2.43634">
        <ele>420.6</ele>
        <time>2019-08-27T14:16:46Z</time>
      </trkpt>
      <trkpt lat="43.66115" lon="2.43644">
        <ele>418.7</ele>
        <time>2019-08-27T14:16:48Z</time>
      </trkpt>
      <trkpt lat="43.66121" lon="2.43656">
        <ele>418</ele>
        <time>2019-08-27T14:16:51Z</time>
      </trkpt>
      <trkpt lat="43.66129" lon="2.43669">
        <ele>417.7</ele>
        <time>2019-08-27T14:16:54Z</time>
      </trkpt>
      <trkpt lat="43.66134" lon="2.4368">
        <ele>417.5</ele>
        <time>2019-08-27T14:16:57Z</time>
      </trkpt>
      <trkpt lat="43.66139" lon="2.43693">
        <ele>417.2</ele>
        <time>2019-08-27T14:17:01Z</time>
      </trkpt>
      <trkpt lat="43.66145" lon="2.43703">
        <ele>417</ele>
        <time>2019-08-27T14:17:06Z</time>
      </trkpt>
      <trkpt lat="43.66151" lon="2.43716">
        <ele>417</ele>
        <time>2019-08-27T14:17:10Z</time>
      </trkpt>
      <trkpt lat="43.66158" lon="2.43727">
        <ele>417</ele>
        <time>2019-08-27T14:17:13Z</time>
      </trkpt>
      <trkpt lat="43.66162" lon="2.43739">
        <ele>416.9</ele>
        <time>2019-08-27T14:17:16Z</time>
      </trkpt>
      <trkpt lat="43.66169" lon="2.43748">
        <ele>416.8</ele>
        <time>2019-08-27T14:17:19Z</time>
      </trkpt>
      <trkpt lat="43.66176" lon="2.4376">
        <ele>416.4</ele>
        <time>2019-08-27T14:17:23Z</time>
      </trkpt>
      <trkpt lat="43.66183" lon="2.43769">
        <ele>416</ele>
        <time>2019-08-27T14:17:26Z</time>
      </trkpt>
      <trkpt lat="43.66192" lon="2.43777">
        <ele>415.5</ele>
        <time>2019-08-27T14:17:29Z</time>
      </trkpt>
      <trkpt lat="43.662" lon="2.43784">
        <ele>414.9</ele>
        <time>2019-08-27T14:17:32Z</time>
      </trkpt>
      <trkpt lat="43.6621" lon="2.43787">
        <ele>414.2</ele>
        <time>2019-08-27T14:17:35Z</time>
      </trkpt>
      <trkpt lat="43.6622" lon="2.43788">
        <ele>413.7</ele>
        <time>2019-08-27T14:17:37Z</time>
      </trkpt>
      <trkpt lat="43.66234" lon="2.4379">
        <ele>413.4</ele>
        <time>2019-08-27T14:17:39Z</time>
      </trkpt>
      <trkpt lat="43.66246" lon="2.43791">
        <ele>413.2</ele>
        <time>2019-08-27T14:17:41Z</time>
      </trkpt>
      <trkpt lat="43.66257" lon="2.43791">
        <ele>413.1</ele>
        <time>2019-08-27T14:17:43Z</time>
      </trkpt>
      <trkpt lat="43.66268" lon="2.43792">
        <ele>412.4</ele>
        <time>2019-08-27T14:17:46Z</time>
      </trkpt>
      <trkpt lat="43.6628" lon="2.43787">
        <ele>412</ele>
        <time>2019-08-27T14:17:49Z</time>
      </trkpt>
      <trkpt lat="43.66291" lon="2.43781">
        <ele>411.5</ele>
        <time>2019-08-27T14:17:52Z</time>
      </trkpt>
      <trkpt lat="43.663" lon="2.43775">
        <ele>411</ele>
        <time>2019-08-27T14:17:55Z</time>
      </trkpt>
      <trkpt lat="43.66306" lon="2.43767">
        <ele>410.6</ele>
        <time>2019-08-27T14:17:57Z</time>
      </trkpt>
      <trkpt lat="43.66313" lon="2.43755">
        <ele>410</ele>
        <time>2019-08-27T14:18:00Z</time>
      </trkpt>
      <trkpt lat="43.66319" lon="2.43743">
        <ele>409.4</ele>
        <time>2019-08-27T14:18:03Z</time>
      </trkpt>
      <trkpt lat="43.66323" lon="2.4373">
        <ele>407.5</ele>
        <time>2019-08-27T14:18:06Z</time>
      </trkpt>
      <trkpt lat="43.66323" lon="2.43716">
        <ele>406.2</ele>
        <time>2019-08-27T14:18:09Z</time>
      </trkpt>
      <trkpt lat="43.66326" lon="2.43702">
        <ele>405.5</ele>
        <time>2019-08-27T14:18:12Z</time>
      </trkpt>
      <trkpt lat="43.66328" lon="2.43686">
        <ele>403.3</ele>
        <time>2019-08-27T14:18:15Z</time>
      </trkpt>
      <trkpt lat="43.66331" lon="2.43668">
        <ele>402.7</ele>
        <time>2019-08-27T14:18:18Z</time>
      </trkpt>
      <trkpt lat="43.66332" lon="2.43655">
        <ele>402.1</ele>
        <time>2019-08-27T14:18:20Z</time>
      </trkpt>
      <trkpt lat="43.66332" lon="2.43641">
        <ele>402</ele>
        <time>2019-08-27T14:18:22Z</time>
      </trkpt>
      <trkpt lat="43.66332" lon="2.43628">
        <ele>402.2</ele>
        <time>2019-08-27T14:18:24Z</time>
      </trkpt>
      <trkpt lat="43.66332" lon="2.43614">
        <ele>403</ele>
        <time>2019-08-27T14:18:26Z</time>
      </trkpt>
      <trkpt lat="43.66333" lon="2.43598">
        <ele>404.6</ele>
        <time>2019-08-27T14:18:28Z</time>
      </trkpt>
      <trkpt lat="43.66334" lon="2.43581">
        <ele>405.8</ele>
        <time>2019-08-27T14:18:31Z</time>
      </trkpt>
      <trkpt lat="43.66333" lon="2.43567">
        <ele>407.5</ele>
        <time>2019-08-27T14:18:33Z</time>
      </trkpt>
      <trkpt lat="43.66332" lon="2.43551">
        <ele>409</ele>
        <time>2019-08-27T14:18:35Z</time>
      </trkpt>
      <trkpt lat="43.66332" lon="2.43536">
        <ele>410.1</ele>
        <time>2019-08-27T14:18:37Z</time>
      </trkpt>
      <trkpt lat="43.66332" lon="2.43519">
        <ele>410.6</ele>
        <time>2019-08-27T14:18:40Z</time>
      </trkpt>
      <trkpt lat="43.66334" lon="2.43504">
        <ele>410.8</ele>
        <time>2019-08-27T14:18:43Z</time>
      </trkpt>
      <trkpt lat="43.66336" lon="2.43488">
        <ele>411</ele>
        <time>2019-08-27T14:18:46Z</time>
      </trkpt>
      <trkpt lat="43.66338" lon="2.43473">
        <ele>411.1</ele>
        <time>2019-08-27T14:18:49Z</time>
      </trkpt>
      <trkpt lat="43.66342" lon="2.43458">
        <ele>411.1</ele>
        <time>2019-08-27T14:18:52Z</time>
      </trkpt>
      <trkpt lat="43.66345" lon="2.43446">
        <ele>410.9</ele>
        <time>2019-08-27T14:18:55Z</time>
      </trkpt>
      <trkpt lat="43.6635" lon="2.43434">
        <ele>410.6</ele>
        <time>2019-08-27T14:18:58Z</time>
      </trkpt>
      <trkpt lat="43.66354" lon="2.43422">
        <ele>410.1</ele>
        <time>2019-08-27T14:19:01Z</time>
      </trkpt>
      <trkpt lat="43.66359" lon="2.43409">
        <ele>409.6</ele>
        <time>2019-08-27T14:19:04Z</time>
      </trkpt>
      <trkpt lat="43.66363" lon="2.43397">
        <ele>409.1</ele>
        <time>2019-08-27T14:19:07Z</time>
      </trkpt>
      <trkpt lat="43.66367" lon="2.43383">
        <ele>408.6</ele>
        <time>2019-08-27T14:19:10Z</time>
      </trkpt>
      <trkpt lat="43.66372" lon="2.43373">
        <ele>408.2</ele>
        <time>2019-08-27T14:19:13Z</time>
      </trkpt>
      <trkpt lat="43.66377" lon="2.43359">
        <ele>407.7</ele>
        <time>2019-08-27T14:19:16Z</time>
      </trkpt>
      <trkpt lat="43.66382" lon="2.43345">
        <ele>407.4</ele>
        <time>2019-08-27T14:19:19Z</time>
      </trkpt>
      <trkpt lat="43.66386" lon="2.43329">
        <ele>407.2</ele>
        <time>2019-08-27T14:19:22Z</time>
      </trkpt>
      <trkpt lat="43.66391" lon="2.43313">
        <ele>407</ele>
        <time>2019-08-27T14:19:25Z</time>
      </trkpt>
      <trkpt lat="43.66396" lon="2.43296">
        <ele>406.9</ele>
        <time>2019-08-27T14:19:28Z</time>
      </trkpt>
      <trkpt lat="43.66397" lon="2.43278">
        <ele>406.9</ele>
        <time>2019-08-27T14:19:31Z</time>
      </trkpt>
      <trkpt lat="43.664" lon="2.43263">
        <ele>406.8</ele>
        <time>2019-08-27T14:19:34Z</time>
      </trkpt>
      <trkpt lat="43.66404" lon="2.43245">
        <ele>406.8</ele>
        <time>2019-08-27T14:19:37Z</time>
      </trkpt>
      <trkpt lat="43.6641" lon="2.4323">
        <ele>406.8</ele>
        <time>2019-08-27T14:19:40Z</time>
      </trkpt>
      <trkpt lat="43.66418" lon="2.43218">
        <ele>406.7</ele>
        <time>2019-08-27T14:19:44Z</time>
      </trkpt>
      <trkpt lat="43.66425" lon="2.43203">
        <ele>406.6</ele>
        <time>2019-08-27T14:19:47Z</time>
      </trkpt>
      <trkpt lat="43.66429" lon="2.43191">
        <ele>406.4</ele>
        <time>2019-08-27T14:19:49Z</time>
      </trkpt>
      <trkpt lat="43.66434" lon="2.43176">
        <ele>406</ele>
        <time>2019-08-27T14:19:52Z</time>
      </trkpt>
      <trkpt lat="43.66436" lon="2.43163">
        <ele>405.7</ele>
        <time>2019-08-27T14:19:54Z</time>
      </trkpt>
      <trkpt lat="43.66444" lon="2.43151">
        <ele>405.2</ele>
        <time>2019-08-27T14:19:57Z</time>
      </trkpt>
      <trkpt lat="43.66452" lon="2.43138">
        <ele>404.5</ele>
        <time>2019-08-27T14:20:00Z</time>
      </trkpt>
      <trkpt lat="43.66459" lon="2.43124">
        <ele>403.7</ele>
        <time>2019-08-27T14:20:03Z</time>
      </trkpt>
      <trkpt lat="43.66462" lon="2.43112">
        <ele>403.3</ele>
        <time>2019-08-27T14:20:05Z</time>
      </trkpt>
      <trkpt lat="43.66468" lon="2.43099">
        <ele>402.7</ele>
        <time>2019-08-27T14:20:08Z</time>
      </trkpt>
      <trkpt lat="43.66474" lon="2.43087">
        <ele>402.1</ele>
        <time>2019-08-27T14:20:11Z</time>
      </trkpt>
      <trkpt lat="43.66482" lon="2.43078">
        <ele>401.5</ele>
        <time>2019-08-27T14:20:14Z</time>
      </trkpt>
      <trkpt lat="43.66487" lon="2.43063">
        <ele>400.8</ele>
        <time>2019-08-27T14:20:17Z</time>
      </trkpt>
      <trkpt lat="43.66492" lon="2.4305">
        <ele>400.2</ele>
        <time>2019-08-27T14:20:20Z</time>
      </trkpt>
      <trkpt lat="43.66494" lon="2.43034">
        <ele>399.6</ele>
        <time>2019-08-27T14:20:23Z</time>
      </trkpt>
      <trkpt lat="43.66494" lon="2.43022">
        <ele>399.2</ele>
        <time>2019-08-27T14:20:25Z</time>
      </trkpt>
      <trkpt lat="43.66494" lon="2.43009">
        <ele>398.9</ele>
        <time>2019-08-27T14:20:27Z</time>
      </trkpt>
      <trkpt lat="43.66493" lon="2.42995">
        <ele>398.1</ele>
        <time>2019-08-27T14:20:29Z</time>
      </trkpt>
      <trkpt lat="43.6649" lon="2.42979">
        <ele>397.1</ele>
        <time>2019-08-27T14:20:31Z</time>
      </trkpt>
      <trkpt lat="43.6649" lon="2.42966">
        <ele>396.8</ele>
        <time>2019-08-27T14:20:33Z</time>
      </trkpt>
      <trkpt lat="43.6649" lon="2.42949">
        <ele>396.6</ele>
        <time>2019-08-27T14:20:36Z</time>
      </trkpt>
      <trkpt lat="43.6649" lon="2.42932">
        <ele>396.6</ele>
        <time>2019-08-27T14:20:39Z</time>
      </trkpt>
      <trkpt lat="43.66493" lon="2.42919">
        <ele>396.6</ele>
        <time>2019-08-27T14:20:41Z</time>
      </trkpt>
      <trkpt lat="43.66492" lon="2.42904">
        <ele>396.7</ele>
        <time>2019-08-27T14:20:43Z</time>
      </trkpt>
      <trkpt lat="43.66493" lon="2.42887">
        <ele>396.8</ele>
        <time>2019-08-27T14:20:46Z</time>
      </trkpt>
      <trkpt lat="43.66493" lon="2.42873">
        <ele>396.9</ele>
        <time>2019-08-27T14:20:48Z</time>
      </trkpt>
      <trkpt lat="43.66493" lon="2.42859">
        <ele>397</ele>
        <time>2019-08-27T14:20:50Z</time>
      </trkpt>
      <trkpt lat="43.66494" lon="2.42846">
        <ele>397.1</ele>
        <time>2019-08-27T14:20:52Z</time>
      </trkpt>
      <trkpt lat="43.66495" lon="2.42832">
        <ele>397.2</ele>
        <time>2019-08-27T14:20:54Z</time>
      </trkpt>
      <trkpt lat="43.66496" lon="2.4282">
        <ele>397.3</ele>
        <time>2019-08-27T14:20:56Z</time>
      </trkpt>
      <trkpt lat="43.66498" lon="2.42806">
        <ele>397.5</ele>
        <time>2019-08-27T14:20:59Z</time>
      </trkpt>
      <trkpt lat="43.665" lon="2.42794">
        <ele>397.5</ele>
        <time>2019-08-27T14:21:01Z</time>
      </trkpt>
      <trkpt lat="43.66502" lon="2.42775">
        <ele>397.5</ele>
        <time>2019-08-27T14:21:04Z</time>
      </trkpt>
      <trkpt lat="43.66504" lon="2.42761">
        <ele>397.5</ele>
        <time>2019-08-27T14:21:06Z</time>
      </trkpt>
      <trkpt lat="43.66505" lon="2.42742">
        <ele>397.6</ele>
        <time>2019-08-27T14:21:09Z</time>
      </trkpt>
      <trkpt lat="43.66504" lon="2.42728">
        <ele>397.9</ele>
        <time>2019-08-27T14:21:11Z</time>
      </trkpt>
      <trkpt lat="43.66504" lon="2.42715">
        <ele>398</ele>
        <time>2019-08-27T14:21:13Z</time>
      </trkpt>
      <trkpt lat="43.66504" lon="2.42702">
        <ele>398</ele>
        <time>2019-08-27T14:21:15Z</time>
      </trkpt>
      <trkpt lat="43.66506" lon="2.42686">
        <ele>398</ele>
        <time>2019-08-27T14:21:18Z</time>
      </trkpt>
      <trkpt lat="43.66508" lon="2.42668">
        <ele>398</ele>
        <time>2019-08-27T14:21:21Z</time>
      </trkpt>
      <trkpt lat="43.66512" lon="2.42653">
        <ele>397.9</ele>
        <time>2019-08-27T14:21:24Z</time>
      </trkpt>
      <trkpt lat="43.66515" lon="2.42636">
        <ele>397.8</ele>
        <time>2019-08-27T14:21:27Z</time>
      </trkpt>
      <trkpt lat="43.66518" lon="2.42618">
        <ele>397.6</ele>
        <time>2019-08-27T14:21:30Z</time>
      </trkpt>
      <trkpt lat="43.66519" lon="2.42604">
        <ele>396.9</ele>
        <time>2019-08-27T14:21:32Z</time>
      </trkpt>
      <trkpt lat="43.66519" lon="2.4259">
        <ele>396.6</ele>
        <time>2019-08-27T14:21:34Z</time>
      </trkpt>
      <trkpt lat="43.66523" lon="2.42577">
        <ele>396.4</ele>
        <time>2019-08-27T14:21:36Z</time>
      </trkpt>
      <trkpt lat="43.66526" lon="2.42563">
        <ele>396.3</ele>
        <time>2019-08-27T14:21:38Z</time>
      </trkpt>
      <trkpt lat="43.66527" lon="2.4255">
        <ele>396.1</ele>
        <time>2019-08-27T14:21:40Z</time>
      </trkpt>
      <trkpt lat="43.66529" lon="2.42531">
        <ele>395.9</ele>
        <time>2019-08-27T14:21:43Z</time>
      </trkpt>
      <trkpt lat="43.66531" lon="2.42515">
        <ele>395.7</ele>
        <time>2019-08-27T14:21:46Z</time>
      </trkpt>
      <trkpt lat="43.6653" lon="2.425">
        <ele>395.5</ele>
        <time>2019-08-27T14:21:49Z</time>
      </trkpt>
      <trkpt lat="43.6653" lon="2.42483">
        <ele>395.2</ele>
        <time>2019-08-27T14:21:52Z</time>
      </trkpt>
      <trkpt lat="43.66531" lon="2.42465">
        <ele>394.9</ele>
        <time>2019-08-27T14:21:55Z</time>
      </trkpt>
      <trkpt lat="43.66531" lon="2.42452">
        <ele>394.7</ele>
        <time>2019-08-27T14:21:57Z</time>
      </trkpt>
      <trkpt lat="43.66531" lon="2.42435">
        <ele>394.3</ele>
        <time>2019-08-27T14:22:00Z</time>
      </trkpt>
      <trkpt lat="43.66531" lon="2.42417">
        <ele>394</ele>
        <time>2019-08-27T14:22:03Z</time>
      </trkpt>
      <trkpt lat="43.66531" lon="2.42405">
        <ele>393.9</ele>
        <time>2019-08-27T14:22:05Z</time>
      </trkpt>
      <trkpt lat="43.66532" lon="2.42389">
        <ele>393.9</ele>
        <time>2019-08-27T14:22:08Z</time>
      </trkpt>
      <trkpt lat="43.66532" lon="2.42375">
        <ele>394.2</ele>
        <time>2019-08-27T14:22:11Z</time>
      </trkpt>
      <trkpt lat="43.66534" lon="2.42358">
        <ele>394.3</ele>
        <time>2019-08-27T14:22:14Z</time>
      </trkpt>
      <trkpt lat="43.66536" lon="2.42342">
        <ele>394.2</ele>
        <time>2019-08-27T14:22:17Z</time>
      </trkpt>
      <trkpt lat="43.66538" lon="2.42325">
        <ele>393.9</ele>
        <time>2019-08-27T14:22:20Z</time>
      </trkpt>
      <trkpt lat="43.66539" lon="2.4231">
        <ele>393.7</ele>
        <time>2019-08-27T14:22:23Z</time>
      </trkpt>
      <trkpt lat="43.6654" lon="2.42295">
        <ele>393.4</ele>
        <time>2019-08-27T14:22:26Z</time>
      </trkpt>
      <trkpt lat="43.6654" lon="2.42283">
        <ele>392.5</ele>
        <time>2019-08-27T14:22:28Z</time>
      </trkpt>
      <trkpt lat="43.66541" lon="2.42268">
        <ele>392.2</ele>
        <time>2019-08-27T14:22:30Z</time>
      </trkpt>
      <trkpt lat="43.66543" lon="2.42252">
        <ele>391.8</ele>
        <time>2019-08-27T14:22:33Z</time>
      </trkpt>
      <trkpt lat="43.66546" lon="2.42238">
        <ele>391.4</ele>
        <time>2019-08-27T14:22:36Z</time>
      </trkpt>
      <trkpt lat="43.66548" lon="2.42222">
        <ele>391.2</ele>
        <time>2019-08-27T14:22:38Z</time>
      </trkpt>
      <trkpt lat="43.6655" lon="2.42209">
        <ele>390.9</ele>
        <time>2019-08-27T14:22:40Z</time>
      </trkpt>
      <trkpt lat="43.6655" lon="2.42195">
        <ele>390.6</ele>
        <time>2019-08-27T14:22:42Z</time>
      </trkpt>
      <trkpt lat="43.66551" lon="2.4218">
        <ele>390.4</ele>
        <time>2019-08-27T14:22:44Z</time>
      </trkpt>
      <trkpt lat="43.66553" lon="2.42165">
        <ele>390</ele>
        <time>2019-08-27T14:22:47Z</time>
      </trkpt>
      <trkpt lat="43.66555" lon="2.42146">
        <ele>389.6</ele>
        <time>2019-08-27T14:22:50Z</time>
      </trkpt>
      <trkpt lat="43.66554" lon="2.42128">
        <ele>389</ele>
        <time>2019-08-27T14:22:52Z</time>
      </trkpt>
      <trkpt lat="43.66555" lon="2.42115">
        <ele>388.7</ele>
        <time>2019-08-27T14:22:54Z</time>
      </trkpt>
      <trkpt lat="43.66556" lon="2.42101">
        <ele>387.6</ele>
        <time>2019-08-27T14:22:56Z</time>
      </trkpt>
      <trkpt lat="43.66557" lon="2.42087">
        <ele>387.2</ele>
        <time>2019-08-27T14:22:58Z</time>
      </trkpt>
      <trkpt lat="43.66558" lon="2.42068">
        <ele>386.1</ele>
        <time>2019-08-27T14:23:01Z</time>
      </trkpt>
      <trkpt lat="43.66558" lon="2.42053">
        <ele>385.5</ele>
        <time>2019-08-27T14:23:03Z</time>
      </trkpt>
      <trkpt lat="43.66557" lon="2.42041">
        <ele>384.7</ele>
        <time>2019-08-27T14:23:05Z</time>
      </trkpt>
      <trkpt lat="43.66555" lon="2.42028">
        <ele>384</ele>
        <time>2019-08-27T14:23:07Z</time>
      </trkpt>
      <trkpt lat="43.66556" lon="2.4201">
        <ele>383.2</ele>
        <time>2019-08-27T14:23:10Z</time>
      </trkpt>
      <trkpt lat="43.66556" lon="2.41997">
        <ele>382.9</ele>
        <time>2019-08-27T14:23:12Z</time>
      </trkpt>
      <trkpt lat="43.66557" lon="2.4198">
        <ele>382.7</ele>
        <time>2019-08-27T14:23:15Z</time>
      </trkpt>
      <trkpt lat="43.66556" lon="2.41961">
        <ele>382.6</ele>
        <time>2019-08-27T14:23:18Z</time>
      </trkpt>
      <trkpt lat="43.66555" lon="2.41945">
        <ele>382.8</ele>
        <time>2019-08-27T14:23:21Z</time>
      </trkpt>
      <trkpt lat="43.66555" lon="2.41932">
        <ele>382.9</ele>
        <time>2019-08-27T14:23:23Z</time>
      </trkpt>
      <trkpt lat="43.66556" lon="2.41916">
        <ele>382.9</ele>
        <time>2019-08-27T14:23:26Z</time>
      </trkpt>
      <trkpt lat="43.66556" lon="2.41902">
        <ele>382.6</ele>
        <time>2019-08-27T14:23:28Z</time>
      </trkpt>
      <trkpt lat="43.66558" lon="2.41883">
        <ele>381.8</ele>
        <time>2019-08-27T14:23:31Z</time>
      </trkpt>
      <trkpt lat="43.66558" lon="2.41865">
        <ele>380.3</ele>
        <time>2019-08-27T14:23:34Z</time>
      </trkpt>
      <trkpt lat="43.66561" lon="2.41851">
        <ele>379.6</ele>
        <time>2019-08-27T14:23:37Z</time>
      </trkpt>
      <trkpt lat="43.66561" lon="2.41834">
        <ele>378.5</ele>
        <time>2019-08-27T14:23:40Z</time>
      </trkpt>
      <trkpt lat="43.66563" lon="2.41818">
        <ele>378</ele>
        <time>2019-08-27T14:23:43Z</time>
      </trkpt>
      <trkpt lat="43.66563" lon="2.41802">
        <ele>377.7</ele>
        <time>2019-08-27T14:23:46Z</time>
      </trkpt>
      <trkpt lat="43.66565" lon="2.41786">
        <ele>377.4</ele>
        <time>2019-08-27T14:23:49Z</time>
      </trkpt>
      <trkpt lat="43.66567" lon="2.4177">
        <ele>377</ele>
        <time>2019-08-27T14:23:52Z</time>
      </trkpt>
      <trkpt lat="43.66568" lon="2.41757">
        <ele>376.5</ele>
        <time>2019-08-27T14:23:55Z</time>
      </trkpt>
      <trkpt lat="43.66569" lon="2.41744">
        <ele>375.8</ele>
        <time>2019-08-27T14:23:59Z</time>
      </trkpt>
      <trkpt lat="43.66572" lon="2.41732">
        <ele>375.1</ele>
        <time>2019-08-27T14:24:03Z</time>
      </trkpt>
      <trkpt lat="43.66572" lon="2.41717">
        <ele>374.6</ele>
        <time>2019-08-27T14:24:06Z</time>
      </trkpt>
      <trkpt lat="43.66572" lon="2.41703">
        <ele>374.3</ele>
        <time>2019-08-27T14:24:09Z</time>
      </trkpt>
      <trkpt lat="43.66575" lon="2.41688">
        <ele>374</ele>
        <time>2019-08-27T14:24:13Z</time>
      </trkpt>
      <trkpt lat="43.66576" lon="2.41675">
        <ele>373.9</ele>
        <time>2019-08-27T14:24:16Z</time>
      </trkpt>
      <trkpt lat="43.6658" lon="2.41663">
        <ele>373.7</ele>
        <time>2019-08-27T14:24:19Z</time>
      </trkpt>
      <trkpt lat="43.66583" lon="2.41651">
        <ele>373.4</ele>
        <time>2019-08-27T14:24:22Z</time>
      </trkpt>
      <trkpt lat="43.66593" lon="2.41638">
        <ele>372.9</ele>
        <time>2019-08-27T14:24:25Z</time>
      </trkpt>
      <trkpt lat="43.66601" lon="2.4163">
        <ele>369.3</ele>
        <time>2019-08-27T14:24:27Z</time>
      </trkpt>
      <trkpt lat="43.66608" lon="2.4162">
        <ele>366.6</ele>
        <time>2019-08-27T14:24:29Z</time>
      </trkpt>
      <trkpt lat="43.66616" lon="2.41611">
        <ele>365.8</ele>
        <time>2019-08-27T14:24:31Z</time>
      </trkpt>
      <trkpt lat="43.66624" lon="2.416">
        <ele>365.3</ele>
        <time>2019-08-27T14:24:34Z</time>
      </trkpt>
      <trkpt lat="43.66632" lon="2.4159">
        <ele>365.2</ele>
        <time>2019-08-27T14:24:38Z</time>
      </trkpt>
      <trkpt lat="43.6664" lon="2.41581">
        <ele>365.2</ele>
        <time>2019-08-27T14:24:42Z</time>
      </trkpt>
      <trkpt lat="43.66648" lon="2.41573">
        <ele>365.1</ele>
        <time>2019-08-27T14:24:49Z</time>
      </trkpt>
      <trkpt lat="43.66656" lon="2.41565">
        <ele>365</ele>
        <time>2019-08-27T14:24:53Z</time>
      </trkpt>
      <trkpt lat="43.66665" lon="2.41559">
        <ele>364.6</ele>
        <time>2019-08-27T14:24:56Z</time>
      </trkpt>
      <trkpt lat="43.66676" lon="2.41551">
        <ele>364.4</ele>
        <time>2019-08-27T14:25:00Z</time>
      </trkpt>
      <trkpt lat="43.66684" lon="2.41543">
        <ele>364.2</ele>
        <time>2019-08-27T14:25:03Z</time>
      </trkpt>
      <trkpt lat="43.66692" lon="2.41533">
        <ele>363.1</ele>
        <time>2019-08-27T14:25:06Z</time>
      </trkpt>
      <trkpt lat="43.66701" lon="2.41529">
        <ele>361.4</ele>
        <time>2019-08-27T14:25:08Z</time>
      </trkpt>
      <trkpt lat="43.66712" lon="2.41518">
        <ele>359.9</ele>
        <time>2019-08-27T14:25:11Z</time>
      </trkpt>
      <trkpt lat="43.66723" lon="2.41512">
        <ele>358.4</ele>
        <time>2019-08-27T14:25:14Z</time>
      </trkpt>
      <trkpt lat="43.6673" lon="2.415">
        <ele>357.1</ele>
        <time>2019-08-27T14:25:16Z</time>
      </trkpt>
      <trkpt lat="43.66739" lon="2.41493">
        <ele>355.9</ele>
        <time>2019-08-27T14:25:32Z</time>
      </trkpt>
      <trkpt lat="43.66746" lon="2.41486">
        <ele>355.7</ele>
        <time>2019-08-27T14:25:35Z</time>
      </trkpt>
      <trkpt lat="43.66756" lon="2.41479">
        <ele>355.5</ele>
        <time>2019-08-27T14:25:38Z</time>
      </trkpt>
      <trkpt lat="43.66762" lon="2.4147">
        <ele>354.9</ele>
        <time>2019-08-27T14:25:54Z</time>
      </trkpt>
      <trkpt lat="43.66765" lon="2.41458">
        <ele>355.6</ele>
        <time>2019-08-27T14:26:27Z</time>
      </trkpt>
      <trkpt lat="43.66776" lon="2.41452">
        <ele>356.9</ele>
        <time>2019-08-27T14:26:31Z</time>
      </trkpt>
      <trkpt lat="43.66787" lon="2.41442">
        <ele>358.3</ele>
        <time>2019-08-27T14:26:34Z</time>
      </trkpt>
      <trkpt lat="43.66794" lon="2.41434">
        <ele>358.3</ele>
        <time>2019-08-27T14:26:36Z</time>
      </trkpt>
      <trkpt lat="43.668" lon="2.41425">
        <ele>357.4</ele>
        <time>2019-08-27T14:26:38Z</time>
      </trkpt>
      <trkpt lat="43.66803" lon="2.4141">
        <ele>356.2</ele>
        <time>2019-08-27T14:26:40Z</time>
      </trkpt>
      <trkpt lat="43.66809" lon="2.41399">
        <ele>355.3</ele>
        <time>2019-08-27T14:26:42Z</time>
      </trkpt>
      <trkpt lat="43.66817" lon="2.41388">
        <ele>354.3</ele>
        <time>2019-08-27T14:26:44Z</time>
      </trkpt>
      <trkpt lat="43.66824" lon="2.41379">
        <ele>353.9</ele>
        <time>2019-08-27T14:26:46Z</time>
      </trkpt>
      <trkpt lat="43.66831" lon="2.41371">
        <ele>352.9</ele>
        <time>2019-08-27T14:26:48Z</time>
      </trkpt>
      <trkpt lat="43.6684" lon="2.41359">
        <ele>351.1</ele>
        <time>2019-08-27T14:26:50Z</time>
      </trkpt>
      <trkpt lat="43.66847" lon="2.41344">
        <ele>350.2</ele>
        <time>2019-08-27T14:26:52Z</time>
      </trkpt>
      <trkpt lat="43.66854" lon="2.41332">
        <ele>349.4</ele>
        <time>2019-08-27T14:26:54Z</time>
      </trkpt>
      <trkpt lat="43.66862" lon="2.41316">
        <ele>348.2</ele>
        <time>2019-08-27T14:26:56Z</time>
      </trkpt>
      <trkpt lat="43.66869" lon="2.41302">
        <ele>347</ele>
        <time>2019-08-27T14:26:58Z</time>
      </trkpt>
      <trkpt lat="43.66874" lon="2.4129">
        <ele>346</ele>
        <time>2019-08-27T14:27:00Z</time>
      </trkpt>
      <trkpt lat="43.66878" lon="2.41273">
        <ele>344.8</ele>
        <time>2019-08-27T14:27:02Z</time>
      </trkpt>
      <trkpt lat="43.66882" lon="2.41257">
        <ele>344.2</ele>
        <time>2019-08-27T14:27:04Z</time>
      </trkpt>
      <trkpt lat="43.66886" lon="2.41242">
        <ele>343.9</ele>
        <time>2019-08-27T14:27:06Z</time>
      </trkpt>
      <trkpt lat="43.66892" lon="2.41229">
        <ele>343.9</ele>
        <time>2019-08-27T14:27:08Z</time>
      </trkpt>
      <trkpt lat="43.66896" lon="2.41212">
        <ele>344.6</ele>
        <time>2019-08-27T14:27:10Z</time>
      </trkpt>
      <trkpt lat="43.66899" lon="2.41192">
        <ele>345.8</ele>
        <time>2019-08-27T14:27:12Z</time>
      </trkpt>
      <trkpt lat="43.66903" lon="2.4117">
        <ele>347.1</ele>
        <time>2019-08-27T14:27:14Z</time>
      </trkpt>
      <trkpt lat="43.66905" lon="2.41156">
        <ele>347.7</ele>
        <time>2019-08-27T14:27:15Z</time>
      </trkpt>
      <trkpt lat="43.66908" lon="2.41134">
        <ele>349.6</ele>
        <time>2019-08-27T14:27:17Z</time>
      </trkpt>
      <trkpt lat="43.6691" lon="2.41111">
        <ele>351.2</ele>
        <time>2019-08-27T14:27:19Z</time>
      </trkpt>
      <trkpt lat="43.66911" lon="2.4109">
        <ele>351.8</ele>
        <time>2019-08-27T14:27:21Z</time>
      </trkpt>
      <trkpt lat="43.66912" lon="2.41072">
        <ele>352.2</ele>
        <time>2019-08-27T14:27:23Z</time>
      </trkpt>
      <trkpt lat="43.66913" lon="2.41052">
        <ele>352.2</ele>
        <time>2019-08-27T14:27:25Z</time>
      </trkpt>
      <trkpt lat="43.66913" lon="2.41031">
        <ele>352</ele>
        <time>2019-08-27T14:27:27Z</time>
      </trkpt>
      <trkpt lat="43.66912" lon="2.4101">
        <ele>351.9</ele>
        <time>2019-08-27T14:27:29Z</time>
      </trkpt>
      <trkpt lat="43.6691" lon="2.40989">
        <ele>351.9</ele>
        <time>2019-08-27T14:27:31Z</time>
      </trkpt>
      <trkpt lat="43.66907" lon="2.40969">
        <ele>352.5</ele>
        <time>2019-08-27T14:27:33Z</time>
      </trkpt>
      <trkpt lat="43.66906" lon="2.40948">
        <ele>353</ele>
        <time>2019-08-27T14:27:35Z</time>
      </trkpt>
      <trkpt lat="43.66905" lon="2.40928">
        <ele>353.2</ele>
        <time>2019-08-27T14:27:37Z</time>
      </trkpt>
      <trkpt lat="43.66907" lon="2.40904">
        <ele>354</ele>
        <time>2019-08-27T14:27:39Z</time>
      </trkpt>
      <trkpt lat="43.66913" lon="2.40881">
        <ele>354.3</ele>
        <time>2019-08-27T14:27:41Z</time>
      </trkpt>
      <trkpt lat="43.66919" lon="2.40861">
        <ele>354.2</ele>
        <time>2019-08-27T14:27:43Z</time>
      </trkpt>
      <trkpt lat="43.66928" lon="2.40839">
        <ele>352.2</ele>
        <time>2019-08-27T14:27:45Z</time>
      </trkpt>
      <trkpt lat="43.66937" lon="2.40825">
        <ele>349.4</ele>
        <time>2019-08-27T14:27:47Z</time>
      </trkpt>
      <trkpt lat="43.6695" lon="2.40818">
        <ele>346.6</ele>
        <time>2019-08-27T14:27:49Z</time>
      </trkpt>
      <trkpt lat="43.66967" lon="2.40813">
        <ele>344.2</ele>
        <time>2019-08-27T14:27:51Z</time>
      </trkpt>
      <trkpt lat="43.66981" lon="2.4081">
        <ele>342.1</ele>
        <time>2019-08-27T14:27:53Z</time>
      </trkpt>
      <trkpt lat="43.66995" lon="2.40811">
        <ele>339.5</ele>
        <time>2019-08-27T14:27:55Z</time>
      </trkpt>
      <trkpt lat="43.67008" lon="2.40808">
        <ele>336.9</ele>
        <time>2019-08-27T14:27:57Z</time>
      </trkpt>
      <trkpt lat="43.6702" lon="2.40807">
        <ele>334.1</ele>
        <time>2019-08-27T14:27:59Z</time>
      </trkpt>
      <trkpt lat="43.67033" lon="2.40804">
        <ele>331.4</ele>
        <time>2019-08-27T14:28:01Z</time>
      </trkpt>
      <trkpt lat="43.6705" lon="2.40797">
        <ele>329.5</ele>
        <time>2019-08-27T14:28:03Z</time>
      </trkpt>
      <trkpt lat="43.6706" lon="2.40795">
        <ele>328.9</ele>
        <time>2019-08-27T14:28:04Z</time>
      </trkpt>
      <trkpt lat="43.67074" lon="2.40792">
        <ele>328</ele>
        <time>2019-08-27T14:28:06Z</time>
      </trkpt>
      <trkpt lat="43.67093" lon="2.40789">
        <ele>327.6</ele>
        <time>2019-08-27T14:28:08Z</time>
      </trkpt>
      <trkpt lat="43.67103" lon="2.40788">
        <ele>327.6</ele>
        <time>2019-08-27T14:28:09Z</time>
      </trkpt>
      <trkpt lat="43.67119" lon="2.40785">
        <ele>327.8</ele>
        <time>2019-08-27T14:28:11Z</time>
      </trkpt>
      <trkpt lat="43.67135" lon="2.40782">
        <ele>327.9</ele>
        <time>2019-08-27T14:28:13Z</time>
      </trkpt>
      <trkpt lat="43.67151" lon="2.40777">
        <ele>327.9</ele>
        <time>2019-08-27T14:28:15Z</time>
      </trkpt>
      <trkpt lat="43.67166" lon="2.40772">
        <ele>327.8</ele>
        <time>2019-08-27T14:28:17Z</time>
      </trkpt>
      <trkpt lat="43.67183" lon="2.40765">
        <ele>327.8</ele>
        <time>2019-08-27T14:28:19Z</time>
      </trkpt>
      <trkpt lat="43.67197" lon="2.40758">
        <ele>327.8</ele>
        <time>2019-08-27T14:28:21Z</time>
      </trkpt>
      <trkpt lat="43.67214" lon="2.40748">
        <ele>327.6</ele>
        <time>2019-08-27T14:28:23Z</time>
      </trkpt>
      <trkpt lat="43.67228" lon="2.40739">
        <ele>327.6</ele>
        <time>2019-08-27T14:28:25Z</time>
      </trkpt>
      <trkpt lat="43.67242" lon="2.40732">
        <ele>327.9</ele>
        <time>2019-08-27T14:28:27Z</time>
      </trkpt>
      <trkpt lat="43.67256" lon="2.40723">
        <ele>328.1</ele>
        <time>2019-08-27T14:28:29Z</time>
      </trkpt>
      <trkpt lat="43.67274" lon="2.40707">
        <ele>328.1</ele>
        <time>2019-08-27T14:28:32Z</time>
      </trkpt>
      <trkpt lat="43.67286" lon="2.40698">
        <ele>327.7</ele>
        <time>2019-08-27T14:28:34Z</time>
      </trkpt>
      <trkpt lat="43.673" lon="2.40694">
        <ele>327</ele>
        <time>2019-08-27T14:28:36Z</time>
      </trkpt>
      <trkpt lat="43.67314" lon="2.40692">
        <ele>325.6</ele>
        <time>2019-08-27T14:28:38Z</time>
      </trkpt>
      <trkpt lat="43.67324" lon="2.40687">
        <ele>323.2</ele>
        <time>2019-08-27T14:28:40Z</time>
      </trkpt>
      <trkpt lat="43.67334" lon="2.40683">
        <ele>319.4</ele>
        <time>2019-08-27T14:28:42Z</time>
      </trkpt>
      <trkpt lat="43.67343" lon="2.40677">
        <ele>314.5</ele>
        <time>2019-08-27T14:28:44Z</time>
      </trkpt>
      <trkpt lat="43.67357" lon="2.40672">
        <ele>309.4</ele>
        <time>2019-08-27T14:28:46Z</time>
      </trkpt>
      <trkpt lat="43.67367" lon="2.4067">
        <ele>307.1</ele>
        <time>2019-08-27T14:28:47Z</time>
      </trkpt>
      <trkpt lat="43.67377" lon="2.40664">
        <ele>305.4</ele>
        <time>2019-08-27T14:28:48Z</time>
      </trkpt>
      <trkpt lat="43.67387" lon="2.40659">
        <ele>304.2</ele>
        <time>2019-08-27T14:28:49Z</time>
      </trkpt>
      <trkpt lat="43.67397" lon="2.40655">
        <ele>303.6</ele>
        <time>2019-08-27T14:28:50Z</time>
      </trkpt>
      <trkpt lat="43.67406" lon="2.4065">
        <ele>303.5</ele>
        <time>2019-08-27T14:28:51Z</time>
      </trkpt>
      <trkpt lat="43.67422" lon="2.40641">
        <ele>304</ele>
        <time>2019-08-27T14:28:53Z</time>
      </trkpt>
      <trkpt lat="43.67439" lon="2.40636">
        <ele>305.1</ele>
        <time>2019-08-27T14:28:55Z</time>
      </trkpt>
      <trkpt lat="43.67455" lon="2.40627">
        <ele>306.9</ele>
        <time>2019-08-27T14:28:57Z</time>
      </trkpt>
      <trkpt lat="43.67471" lon="2.4062">
        <ele>308.8</ele>
        <time>2019-08-27T14:28:59Z</time>
      </trkpt>
      <trkpt lat="43.67487" lon="2.40613">
        <ele>310.7</ele>
        <time>2019-08-27T14:29:01Z</time>
      </trkpt>
      <trkpt lat="43.67503" lon="2.40608">
        <ele>312.1</ele>
        <time>2019-08-27T14:29:03Z</time>
      </trkpt>
      <trkpt lat="43.67518" lon="2.40601">
        <ele>313.1</ele>
        <time>2019-08-27T14:29:05Z</time>
      </trkpt>
      <trkpt lat="43.67529" lon="2.40596">
        <ele>313.3</ele>
        <time>2019-08-27T14:29:07Z</time>
      </trkpt>
      <trkpt lat="43.67542" lon="2.40596">
        <ele>312.5</ele>
        <time>2019-08-27T14:29:09Z</time>
      </trkpt>
      <trkpt lat="43.6756" lon="2.40596">
        <ele>311.8</ele>
        <time>2019-08-27T14:29:11Z</time>
      </trkpt>
      <trkpt lat="43.67576" lon="2.40598">
        <ele>311.6</ele>
        <time>2019-08-27T14:29:13Z</time>
      </trkpt>
      <trkpt lat="43.67591" lon="2.40604">
        <ele>310.9</ele>
        <time>2019-08-27T14:29:15Z</time>
      </trkpt>
      <trkpt lat="43.67607" lon="2.40608">
        <ele>310.2</ele>
        <time>2019-08-27T14:29:17Z</time>
      </trkpt>
      <trkpt lat="43.67622" lon="2.40613">
        <ele>310</ele>
        <time>2019-08-27T14:29:19Z</time>
      </trkpt>
      <trkpt lat="43.67631" lon="2.40616">
        <ele>309.8</ele>
        <time>2019-08-27T14:29:25Z</time>
      </trkpt>
      <trkpt lat="43.67619" lon="2.40613">
        <ele>309.5</ele>
        <time>2019-08-27T14:29:32Z</time>
      </trkpt>
      <trkpt lat="43.67608" lon="2.40607">
        <ele>309.6</ele>
        <time>2019-08-27T14:29:35Z</time>
      </trkpt>
      <trkpt lat="43.67596" lon="2.40602">
        <ele>311</ele>
        <time>2019-08-27T14:29:38Z</time>
      </trkpt>
      <trkpt lat="43.67584" lon="2.40599">
        <ele>312</ele>
        <time>2019-08-27T14:29:41Z</time>
      </trkpt>
      <trkpt lat="43.67571" lon="2.40595">
        <ele>312.3</ele>
        <time>2019-08-27T14:29:44Z</time>
      </trkpt>
      <trkpt lat="43.6756" lon="2.40601">
        <ele>312.5</ele>
        <time>2019-08-27T14:29:47Z</time>
      </trkpt>
      <trkpt lat="43.67563" lon="2.40614">
        <ele>312.6</ele>
        <time>2019-08-27T14:29:50Z</time>
      </trkpt>
      <trkpt lat="43.67571" lon="2.40622">
        <ele>313</ele>
        <time>2019-08-27T14:29:56Z</time>
      </trkpt>
      <trkpt lat="43.6758" lon="2.40628">
        <ele>313.5</ele>
        <time>2019-08-27T14:30:01Z</time>
      </trkpt>
      <trkpt lat="43.6759" lon="2.40633">
        <ele>314.1</ele>
        <time>2019-08-27T14:30:07Z</time>
      </trkpt>
      <trkpt lat="43.67597" lon="2.40642">
        <ele>314.7</ele>
        <time>2019-08-27T14:30:12Z</time>
      </trkpt>
      <trkpt lat="43.67605" lon="2.40651">
        <ele>315.7</ele>
        <time>2019-08-27T14:30:21Z</time>
      </trkpt>
      <trkpt lat="43.67621" lon="2.40658">
        <ele>316.5</ele>
        <time>2019-08-27T14:30:28Z</time>
      </trkpt>
      <trkpt lat="43.67631" lon="2.4066">
        <ele>317.1</ele>
        <time>2019-08-27T14:30:32Z</time>
      </trkpt>
      <trkpt lat="43.67642" lon="2.4066">
        <ele>317.9</ele>
        <time>2019-08-27T14:30:36Z</time>
      </trkpt>
      <trkpt lat="43.67651" lon="2.40661">
        <ele>319.2</ele>
        <time>2019-08-27T14:30:41Z</time>
      </trkpt>
      <trkpt lat="43.67657" lon="2.40671">
        <ele>320.3</ele>
        <time>2019-08-27T14:30:46Z</time>
      </trkpt>
      <trkpt lat="43.67666" lon="2.40683">
        <ele>322.4</ele>
        <time>2019-08-27T14:31:00Z</time>
      </trkpt>
      <trkpt lat="43.67661" lon="2.40706">
        <ele>325.2</ele>
        <time>2019-08-27T14:31:18Z</time>
      </trkpt>
      <trkpt lat="43.67661" lon="2.40719">
        <ele>326.7</ele>
        <time>2019-08-27T14:31:29Z</time>
      </trkpt>
      <trkpt lat="43.67659" lon="2.40733">
        <ele>328.6</ele>
        <time>2019-08-27T14:31:41Z</time>
      </trkpt>
      <trkpt lat="43.67656" lon="2.40746">
        <ele>330.5</ele>
        <time>2019-08-27T14:31:51Z</time>
      </trkpt>
      <trkpt lat="43.67653" lon="2.40759">
        <ele>332.2</ele>
        <time>2019-08-27T14:32:00Z</time>
      </trkpt>
      <trkpt lat="43.6765" lon="2.40771">
        <ele>335.6</ele>
        <time>2019-08-27T14:32:15Z</time>
      </trkpt>
      <trkpt lat="43.67643" lon="2.40761">
        <ele>337.9</ele>
        <time>2019-08-27T14:32:26Z</time>
      </trkpt>
      <trkpt lat="43.67635" lon="2.40754">
        <ele>340.4</ele>
        <time>2019-08-27T14:32:39Z</time>
      </trkpt>
      <trkpt lat="43.67623" lon="2.40752">
        <ele>343</ele>
        <time>2019-08-27T14:33:09Z</time>
      </trkpt>
      <trkpt lat="43.67614" lon="2.40753">
        <ele>344</ele>
        <time>2019-08-27T14:33:15Z</time>
      </trkpt>
      <trkpt lat="43.67604" lon="2.40758">
        <ele>344.9</ele>
        <time>2019-08-27T14:33:21Z</time>
      </trkpt>
      <trkpt lat="43.67594" lon="2.40757">
        <ele>345.8</ele>
        <time>2019-08-27T14:33:28Z</time>
      </trkpt>
      <trkpt lat="43.67585" lon="2.40751">
        <ele>346.9</ele>
        <time>2019-08-27T14:33:36Z</time>
      </trkpt>
      <trkpt lat="43.67576" lon="2.40745">
        <ele>347.9</ele>
        <time>2019-08-27T14:33:44Z</time>
      </trkpt>
      <trkpt lat="43.67567" lon="2.40743">
        <ele>348.8</ele>
        <time>2019-08-27T14:33:51Z</time>
      </trkpt>
      <trkpt lat="43.67554" lon="2.40749">
        <ele>350.6</ele>
        <time>2019-08-27T14:34:04Z</time>
      </trkpt>
      <trkpt lat="43.67544" lon="2.4075">
        <ele>353.5</ele>
        <time>2019-08-27T14:34:22Z</time>
      </trkpt>
      <trkpt lat="43.67534" lon="2.40749">
        <ele>354.2</ele>
        <time>2019-08-27T14:34:27Z</time>
      </trkpt>
      <trkpt lat="43.67524" lon="2.40749">
        <ele>355.7</ele>
        <time>2019-08-27T14:34:36Z</time>
      </trkpt>
      <trkpt lat="43.67515" lon="2.40748">
        <ele>357.8</ele>
        <time>2019-08-27T14:34:45Z</time>
      </trkpt>
      <trkpt lat="43.67505" lon="2.4075">
        <ele>359.8</ele>
        <time>2019-08-27T14:34:52Z</time>
      </trkpt>
      <trkpt lat="43.67499" lon="2.40759">
        <ele>361.8</ele>
        <time>2019-08-27T14:35:01Z</time>
      </trkpt>
      <trkpt lat="43.67508" lon="2.40758">
        <ele>364.8</ele>
        <time>2019-08-27T14:35:14Z</time>
      </trkpt>
      <trkpt lat="43.67517" lon="2.4076">
        <ele>366.5</ele>
        <time>2019-08-27T14:35:33Z</time>
      </trkpt>
      <trkpt lat="43.67524" lon="2.40769">
        <ele>367</ele>
        <time>2019-08-27T14:35:42Z</time>
      </trkpt>
      <trkpt lat="43.67532" lon="2.40775">
        <ele>366.9</ele>
        <time>2019-08-27T14:35:50Z</time>
      </trkpt>
      <trkpt lat="43.67538" lon="2.40784">
        <ele>367.4</ele>
        <time>2019-08-27T14:35:58Z</time>
      </trkpt>
      <trkpt lat="43.67543" lon="2.40795">
        <ele>368.7</ele>
        <time>2019-08-27T14:36:10Z</time>
      </trkpt>
      <trkpt lat="43.67534" lon="2.40799">
        <ele>370.7</ele>
        <time>2019-08-27T14:36:24Z</time>
      </trkpt>
      <trkpt lat="43.67524" lon="2.40798">
        <ele>372.9</ele>
        <time>2019-08-27T14:36:34Z</time>
      </trkpt>
      <trkpt lat="43.67515" lon="2.40794">
        <ele>376.6</ele>
        <time>2019-08-27T14:37:01Z</time>
      </trkpt>
      <trkpt lat="43.67505" lon="2.40793">
        <ele>379.3</ele>
        <time>2019-08-27T14:37:11Z</time>
      </trkpt>
      <trkpt lat="43.67496" lon="2.40797">
        <ele>383.2</ele>
        <time>2019-08-27T14:37:22Z</time>
      </trkpt>
      <trkpt lat="43.67501" lon="2.40806">
        <ele>388.3</ele>
        <time>2019-08-27T14:37:44Z</time>
      </trkpt>
      <trkpt lat="43.6751" lon="2.40811">
        <ele>389.6</ele>
        <time>2019-08-27T14:37:50Z</time>
      </trkpt>
      <trkpt lat="43.67519" lon="2.40812">
        <ele>392.3</ele>
        <time>2019-08-27T14:38:08Z</time>
      </trkpt>
      <trkpt lat="43.67524" lon="2.40825">
        <ele>392.8</ele>
        <time>2019-08-27T14:38:14Z</time>
      </trkpt>
      <trkpt lat="43.67528" lon="2.40837">
        <ele>392.8</ele>
        <time>2019-08-27T14:38:24Z</time>
      </trkpt>
      <trkpt lat="43.67533" lon="2.40847">
        <ele>393.7</ele>
        <time>2019-08-27T14:38:36Z</time>
      </trkpt>
      <trkpt lat="43.67524" lon="2.40848">
        <ele>395</ele>
        <time>2019-08-27T14:38:49Z</time>
      </trkpt>
      <trkpt lat="43.67515" lon="2.40842">
        <ele>396.2</ele>
        <time>2019-08-27T14:39:05Z</time>
      </trkpt>
      <trkpt lat="43.67506" lon="2.40839">
        <ele>396.6</ele>
        <time>2019-08-27T14:39:13Z</time>
      </trkpt>
      <trkpt lat="43.67497" lon="2.40842">
        <ele>396.5</ele>
        <time>2019-08-27T14:39:20Z</time>
      </trkpt>
      <trkpt lat="43.67488" lon="2.40844">
        <ele>397</ele>
        <time>2019-08-27T14:39:27Z</time>
      </trkpt>
      <trkpt lat="43.67477" lon="2.40843">
        <ele>397.8</ele>
        <time>2019-08-27T14:39:33Z</time>
      </trkpt>
      <trkpt lat="43.67468" lon="2.40839">
        <ele>398.5</ele>
        <time>2019-08-27T14:39:39Z</time>
      </trkpt>
      <trkpt lat="43.67459" lon="2.40837">
        <ele>399.7</ele>
        <time>2019-08-27T14:39:46Z</time>
      </trkpt>
      <trkpt lat="43.67449" lon="2.4084">
        <ele>400.9</ele>
        <time>2019-08-27T14:39:54Z</time>
      </trkpt>
      <trkpt lat="43.6744" lon="2.40844">
        <ele>401.3</ele>
        <time>2019-08-27T14:40:00Z</time>
      </trkpt>
      <trkpt lat="43.67431" lon="2.40847">
        <ele>401.7</ele>
        <time>2019-08-27T14:40:06Z</time>
      </trkpt>
      <trkpt lat="43.67422" lon="2.40853">
        <ele>402</ele>
        <time>2019-08-27T14:40:12Z</time>
      </trkpt>
      <trkpt lat="43.67414" lon="2.40861">
        <ele>402.6</ele>
        <time>2019-08-27T14:40:19Z</time>
      </trkpt>
      <trkpt lat="43.67423" lon="2.40859">
        <ele>408.1</ele>
        <time>2019-08-27T14:40:47Z</time>
      </trkpt>
      <trkpt lat="43.67434" lon="2.40859">
        <ele>410.5</ele>
        <time>2019-08-27T14:40:55Z</time>
      </trkpt>
      <trkpt lat="43.67445" lon="2.4086">
        <ele>412.2</ele>
        <time>2019-08-27T14:41:02Z</time>
      </trkpt>
      <trkpt lat="43.67454" lon="2.40865">
        <ele>413.4</ele>
        <time>2019-08-27T14:41:07Z</time>
      </trkpt>
      <trkpt lat="43.67463" lon="2.40868">
        <ele>414.7</ele>
        <time>2019-08-27T14:41:14Z</time>
      </trkpt>
      <trkpt lat="43.67474" lon="2.4087">
        <ele>416</ele>
        <time>2019-08-27T14:41:21Z</time>
      </trkpt>
      <trkpt lat="43.67483" lon="2.40873">
        <ele>416.7</ele>
        <time>2019-08-27T14:41:26Z</time>
      </trkpt>
      <trkpt lat="43.67493" lon="2.4088">
        <ele>417.6</ele>
        <time>2019-08-27T14:41:35Z</time>
      </trkpt>
      <trkpt lat="43.675" lon="2.40888">
        <ele>418</ele>
        <time>2019-08-27T14:41:41Z</time>
      </trkpt>
      <trkpt lat="43.67506" lon="2.40898">
        <ele>418.2</ele>
        <time>2019-08-27T14:41:47Z</time>
      </trkpt>
      <trkpt lat="43.67511" lon="2.4091">
        <ele>418.2</ele>
        <time>2019-08-27T14:41:53Z</time>
      </trkpt>
      <trkpt lat="43.67516" lon="2.40921">
        <ele>418.1</ele>
        <time>2019-08-27T14:41:59Z</time>
      </trkpt>
      <trkpt lat="43.67521" lon="2.40932">
        <ele>418.1</ele>
        <time>2019-08-27T14:42:03Z</time>
      </trkpt>
      <trkpt lat="43.67527" lon="2.40942">
        <ele>417.8</ele>
        <time>2019-08-27T14:42:06Z</time>
      </trkpt>
      <trkpt lat="43.67533" lon="2.40952">
        <ele>417.2</ele>
        <time>2019-08-27T14:42:11Z</time>
      </trkpt>
      <trkpt lat="43.67538" lon="2.40964">
        <ele>416.7</ele>
        <time>2019-08-27T14:42:16Z</time>
      </trkpt>
      <trkpt lat="43.67541" lon="2.40976">
        <ele>416.7</ele>
        <time>2019-08-27T14:42:22Z</time>
      </trkpt>
      <trkpt lat="43.6754" lon="2.40989">
        <ele>418.6</ele>
        <time>2019-08-27T14:43:02Z</time>
      </trkpt>
      <trkpt lat="43.67537" lon="2.41002">
        <ele>419.6</ele>
        <time>2019-08-27T14:43:09Z</time>
      </trkpt>
      <trkpt lat="43.67537" lon="2.41015">
        <ele>420.7</ele>
        <time>2019-08-27T14:43:16Z</time>
      </trkpt>
      <trkpt lat="43.67538" lon="2.41028">
        <ele>422.1</ele>
        <time>2019-08-27T14:43:24Z</time>
      </trkpt>
      <trkpt lat="43.67542" lon="2.41041">
        <ele>422.7</ele>
        <time>2019-08-27T14:43:31Z</time>
      </trkpt>
      <trkpt lat="43.67547" lon="2.41053">
        <ele>423.2</ele>
        <time>2019-08-27T14:43:38Z</time>
      </trkpt>
      <trkpt lat="43.67551" lon="2.41065">
        <ele>423.7</ele>
        <time>2019-08-27T14:43:44Z</time>
      </trkpt>
      <trkpt lat="43.67559" lon="2.41076">
        <ele>424.1</ele>
        <time>2019-08-27T14:43:49Z</time>
      </trkpt>
      <trkpt lat="43.67566" lon="2.41084">
        <ele>424.5</ele>
        <time>2019-08-27T14:43:53Z</time>
      </trkpt>
      <trkpt lat="43.67573" lon="2.41094">
        <ele>425</ele>
        <time>2019-08-27T14:43:57Z</time>
      </trkpt>
      <trkpt lat="43.6758" lon="2.41104">
        <ele>425.7</ele>
        <time>2019-08-27T14:44:02Z</time>
      </trkpt>
      <trkpt lat="43.67586" lon="2.41115">
        <ele>426.3</ele>
        <time>2019-08-27T14:44:07Z</time>
      </trkpt>
      <trkpt lat="43.6759" lon="2.41128">
        <ele>427.4</ele>
        <time>2019-08-27T14:44:14Z</time>
      </trkpt>
      <trkpt lat="43.67593" lon="2.4114">
        <ele>428.6</ele>
        <time>2019-08-27T14:44:20Z</time>
      </trkpt>
      <trkpt lat="43.67597" lon="2.41153">
        <ele>430.3</ele>
        <time>2019-08-27T14:44:28Z</time>
      </trkpt>
      <trkpt lat="43.67601" lon="2.41165">
        <ele>432.9</ele>
        <time>2019-08-27T14:44:41Z</time>
      </trkpt>
      <trkpt lat="43.67607" lon="2.41174">
        <ele>435.8</ele>
        <time>2019-08-27T14:44:52Z</time>
      </trkpt>
      <trkpt lat="43.67615" lon="2.41183">
        <ele>438.9</ele>
        <time>2019-08-27T14:45:04Z</time>
      </trkpt>
      <trkpt lat="43.67619" lon="2.41194">
        <ele>441.3</ele>
        <time>2019-08-27T14:45:15Z</time>
      </trkpt>
      <trkpt lat="43.6761" lon="2.41198">
        <ele>443.9</ele>
        <time>2019-08-27T14:45:31Z</time>
      </trkpt>
      <trkpt lat="43.67601" lon="2.41195">
        <ele>444.8</ele>
        <time>2019-08-27T14:45:41Z</time>
      </trkpt>
      <trkpt lat="43.67593" lon="2.41197">
        <ele>446.1</ele>
        <time>2019-08-27T14:45:56Z</time>
      </trkpt>
      <trkpt lat="43.67587" lon="2.41207">
        <ele>446.5</ele>
        <time>2019-08-27T14:46:06Z</time>
      </trkpt>
      <trkpt lat="43.6758" lon="2.41216">
        <ele>446.9</ele>
        <time>2019-08-27T14:46:14Z</time>
      </trkpt>
      <trkpt lat="43.67573" lon="2.41226">
        <ele>448</ele>
        <time>2019-08-27T14:46:23Z</time>
      </trkpt>
      <trkpt lat="43.67569" lon="2.41238">
        <ele>449.7</ele>
        <time>2019-08-27T14:46:43Z</time>
      </trkpt>
      <trkpt lat="43.67563" lon="2.41249">
        <ele>450.8</ele>
        <time>2019-08-27T14:46:51Z</time>
      </trkpt>
      <trkpt lat="43.67558" lon="2.41263">
        <ele>451.6</ele>
        <time>2019-08-27T14:46:58Z</time>
      </trkpt>
      <trkpt lat="43.67553" lon="2.41275">
        <ele>452.7</ele>
        <time>2019-08-27T14:47:04Z</time>
      </trkpt>
      <trkpt lat="43.67549" lon="2.41288">
        <ele>454</ele>
        <time>2019-08-27T14:47:11Z</time>
      </trkpt>
      <trkpt lat="43.67544" lon="2.41299">
        <ele>454.9</ele>
        <time>2019-08-27T14:47:18Z</time>
      </trkpt>
      <trkpt lat="43.67539" lon="2.41309">
        <ele>455.2</ele>
        <time>2019-08-27T14:47:23Z</time>
      </trkpt>
      <trkpt lat="43.67535" lon="2.41321">
        <ele>455.7</ele>
        <time>2019-08-27T14:47:28Z</time>
      </trkpt>
      <trkpt lat="43.67534" lon="2.41335">
        <ele>457.1</ele>
        <time>2019-08-27T14:47:36Z</time>
      </trkpt>
      <trkpt lat="43.67539" lon="2.41347">
        <ele>457.8</ele>
        <time>2019-08-27T14:47:42Z</time>
      </trkpt>
      <trkpt lat="43.6753" lon="2.41351">
        <ele>458</ele>
        <time>2019-08-27T14:47:51Z</time>
      </trkpt>
      <trkpt lat="43.67521" lon="2.41355">
        <ele>457.7</ele>
        <time>2019-08-27T14:47:56Z</time>
      </trkpt>
      <trkpt lat="43.67511" lon="2.41361">
        <ele>457.4</ele>
        <time>2019-08-27T14:47:59Z</time>
      </trkpt>
      <trkpt lat="43.67501" lon="2.41365">
        <ele>457.2</ele>
        <time>2019-08-27T14:48:02Z</time>
      </trkpt>
      <trkpt lat="43.67491" lon="2.4137">
        <ele>456.9</ele>
        <time>2019-08-27T14:48:05Z</time>
      </trkpt>
      <trkpt lat="43.6748" lon="2.41373">
        <ele>456.6</ele>
        <time>2019-08-27T14:48:08Z</time>
      </trkpt>
      <trkpt lat="43.67469" lon="2.41373">
        <ele>456.3</ele>
        <time>2019-08-27T14:48:12Z</time>
      </trkpt>
      <trkpt lat="43.6746" lon="2.41369">
        <ele>456.1</ele>
        <time>2019-08-27T14:48:15Z</time>
      </trkpt>
      <trkpt lat="43.6745" lon="2.41364">
        <ele>455.8</ele>
        <time>2019-08-27T14:48:18Z</time>
      </trkpt>
      <trkpt lat="43.6744" lon="2.41357">
        <ele>455.6</ele>
        <time>2019-08-27T14:48:21Z</time>
      </trkpt>
      <trkpt lat="43.67431" lon="2.41356">
        <ele>455.6</ele>
        <time>2019-08-27T14:48:25Z</time>
      </trkpt>
      <trkpt lat="43.6742" lon="2.41355">
        <ele>455.9</ele>
        <time>2019-08-27T14:48:29Z</time>
      </trkpt>
      <trkpt lat="43.67411" lon="2.41355">
        <ele>456</ele>
        <time>2019-08-27T14:48:32Z</time>
      </trkpt>
      <trkpt lat="43.67401" lon="2.41356">
        <ele>456.1</ele>
        <time>2019-08-27T14:48:35Z</time>
      </trkpt>
      <trkpt lat="43.6739" lon="2.41357">
        <ele>456.2</ele>
        <time>2019-08-27T14:48:38Z</time>
      </trkpt>
      <trkpt lat="43.67377" lon="2.41358">
        <ele>456.4</ele>
        <time>2019-08-27T14:48:41Z</time>
      </trkpt>
      <trkpt lat="43.67367" lon="2.4136">
        <ele>456.6</ele>
        <time>2019-08-27T14:48:44Z</time>
      </trkpt>
      <trkpt lat="43.67357" lon="2.41364">
        <ele>456.7</ele>
        <time>2019-08-27T14:48:48Z</time>
      </trkpt>
      <trkpt lat="43.67347" lon="2.41368">
        <ele>456.8</ele>
        <time>2019-08-27T14:48:51Z</time>
      </trkpt>
      <trkpt lat="43.67335" lon="2.41376">
        <ele>457.2</ele>
        <time>2019-08-27T14:48:54Z</time>
      </trkpt>
      <trkpt lat="43.67324" lon="2.41385">
        <ele>457.3</ele>
        <time>2019-08-27T14:48:57Z</time>
      </trkpt>
      <trkpt lat="43.67314" lon="2.41393">
        <ele>457.3</ele>
        <time>2019-08-27T14:49:00Z</time>
      </trkpt>
      <trkpt lat="43.67303" lon="2.414">
        <ele>456.9</ele>
        <time>2019-08-27T14:49:03Z</time>
      </trkpt>
      <trkpt lat="43.67292" lon="2.41407">
        <ele>456.3</ele>
        <time>2019-08-27T14:49:06Z</time>
      </trkpt>
      <trkpt lat="43.6728" lon="2.41414">
        <ele>455.3</ele>
        <time>2019-08-27T14:49:09Z</time>
      </trkpt>
      <trkpt lat="43.67271" lon="2.41418">
        <ele>455</ele>
        <time>2019-08-27T14:49:11Z</time>
      </trkpt>
      <trkpt lat="43.67263" lon="2.41423">
        <ele>455.2</ele>
        <time>2019-08-27T14:49:13Z</time>
      </trkpt>
      <trkpt lat="43.6725" lon="2.41425">
        <ele>455.6</ele>
        <time>2019-08-27T14:49:16Z</time>
      </trkpt>
      <trkpt lat="43.67237" lon="2.4143">
        <ele>455.8</ele>
        <time>2019-08-27T14:49:19Z</time>
      </trkpt>
      <trkpt lat="43.67227" lon="2.41434">
        <ele>455.8</ele>
        <time>2019-08-27T14:49:22Z</time>
      </trkpt>
      <trkpt lat="43.67215" lon="2.4144">
        <ele>455.8</ele>
        <time>2019-08-27T14:49:25Z</time>
      </trkpt>
      <trkpt lat="43.67207" lon="2.41448">
        <ele>455.7</ele>
        <time>2019-08-27T14:49:27Z</time>
      </trkpt>
      <trkpt lat="43.67199" lon="2.41459">
        <ele>455.6</ele>
        <time>2019-08-27T14:49:29Z</time>
      </trkpt>
      <trkpt lat="43.67193" lon="2.41475">
        <ele>455.1</ele>
        <time>2019-08-27T14:49:31Z</time>
      </trkpt>
      <trkpt lat="43.67187" lon="2.4149">
        <ele>454.2</ele>
        <time>2019-08-27T14:49:33Z</time>
      </trkpt>
      <trkpt lat="43.67181" lon="2.41506">
        <ele>453.4</ele>
        <time>2019-08-27T14:49:35Z</time>
      </trkpt>
      <trkpt lat="43.6718" lon="2.41525">
        <ele>452.6</ele>
        <time>2019-08-27T14:49:37Z</time>
      </trkpt>
      <trkpt lat="43.67182" lon="2.41543">
        <ele>452</ele>
        <time>2019-08-27T14:49:39Z</time>
      </trkpt>
      <trkpt lat="43.67183" lon="2.41559">
        <ele>451.6</ele>
        <time>2019-08-27T14:49:41Z</time>
      </trkpt>
      <trkpt lat="43.67183" lon="2.41572">
        <ele>451.3</ele>
        <time>2019-08-27T14:49:43Z</time>
      </trkpt>
      <trkpt lat="43.6718" lon="2.41586">
        <ele>451</ele>
        <time>2019-08-27T14:49:46Z</time>
      </trkpt>
      <trkpt lat="43.67177" lon="2.41599">
        <ele>450.9</ele>
        <time>2019-08-27T14:49:49Z</time>
      </trkpt>
      <trkpt lat="43.67174" lon="2.41611">
        <ele>450.8</ele>
        <time>2019-08-27T14:49:54Z</time>
      </trkpt>
      <trkpt lat="43.67174" lon="2.41626">
        <ele>450.8</ele>
        <time>2019-08-27T14:50:00Z</time>
      </trkpt>
      <trkpt lat="43.67176" lon="2.4164">
        <ele>451</ele>
        <time>2019-08-27T14:50:05Z</time>
      </trkpt>
      <trkpt lat="43.67177" lon="2.41655">
        <ele>451.3</ele>
        <time>2019-08-27T14:50:11Z</time>
      </trkpt>
      <trkpt lat="43.67177" lon="2.41668">
        <ele>451.8</ele>
        <time>2019-08-27T14:50:17Z</time>
      </trkpt>
      <trkpt lat="43.67177" lon="2.4168">
        <ele>452.5</ele>
        <time>2019-08-27T14:50:24Z</time>
      </trkpt>
      <trkpt lat="43.67176" lon="2.41694">
        <ele>453.2</ele>
        <time>2019-08-27T14:50:31Z</time>
      </trkpt>
      <trkpt lat="43.67177" lon="2.41708">
        <ele>453.9</ele>
        <time>2019-08-27T14:50:38Z</time>
      </trkpt>
      <trkpt lat="43.67177" lon="2.41721">
        <ele>454.6</ele>
        <time>2019-08-27T14:50:45Z</time>
      </trkpt>
      <trkpt lat="43.67179" lon="2.41734">
        <ele>455.4</ele>
        <time>2019-08-27T14:50:52Z</time>
      </trkpt>
      <trkpt lat="43.67179" lon="2.41747">
        <ele>456.4</ele>
        <time>2019-08-27T14:50:59Z</time>
      </trkpt>
      <trkpt lat="43.6718" lon="2.41761">
        <ele>457.4</ele>
        <time>2019-08-27T14:51:06Z</time>
      </trkpt>
      <trkpt lat="43.67181" lon="2.41776">
        <ele>458.6</ele>
        <time>2019-08-27T14:51:14Z</time>
      </trkpt>
      <trkpt lat="43.6718" lon="2.41789">
        <ele>459.6</ele>
        <time>2019-08-27T14:51:21Z</time>
      </trkpt>
      <trkpt lat="43.67185" lon="2.41801">
        <ele>460.8</ele>
        <time>2019-08-27T14:51:28Z</time>
      </trkpt>
      <trkpt lat="43.67193" lon="2.41808">
        <ele>461.9</ele>
        <time>2019-08-27T14:51:35Z</time>
      </trkpt>
      <trkpt lat="43.67202" lon="2.41813">
        <ele>463.2</ele>
        <time>2019-08-27T14:51:43Z</time>
      </trkpt>
      <trkpt lat="43.67211" lon="2.41818">
        <ele>464.2</ele>
        <time>2019-08-27T14:51:50Z</time>
      </trkpt>
      <trkpt lat="43.67221" lon="2.41823">
        <ele>465.2</ele>
        <time>2019-08-27T14:51:57Z</time>
      </trkpt>
      <trkpt lat="43.67221" lon="2.41836">
        <ele>466.4</ele>
        <time>2019-08-27T14:52:06Z</time>
      </trkpt>
      <trkpt lat="43.67212" lon="2.41834">
        <ele>467.4</ele>
        <time>2019-08-27T14:52:13Z</time>
      </trkpt>
      <trkpt lat="43.67203" lon="2.41839">
        <ele>468.6</ele>
        <time>2019-08-27T14:52:21Z</time>
      </trkpt>
      <trkpt lat="43.67196" lon="2.41848">
        <ele>469.6</ele>
        <time>2019-08-27T14:52:27Z</time>
      </trkpt>
      <trkpt lat="43.67191" lon="2.4186">
        <ele>470.9</ele>
        <time>2019-08-27T14:52:34Z</time>
      </trkpt>
      <trkpt lat="43.67193" lon="2.41873">
        <ele>472.1</ele>
        <time>2019-08-27T14:52:40Z</time>
      </trkpt>
      <trkpt lat="43.67198" lon="2.41883">
        <ele>473.2</ele>
        <time>2019-08-27T14:52:46Z</time>
      </trkpt>
      <trkpt lat="43.67203" lon="2.41895">
        <ele>474.3</ele>
        <time>2019-08-27T14:52:53Z</time>
      </trkpt>
      <trkpt lat="43.67208" lon="2.41908">
        <ele>475.4</ele>
        <time>2019-08-27T14:53:00Z</time>
      </trkpt>
      <trkpt lat="43.67213" lon="2.41921">
        <ele>476.5</ele>
        <time>2019-08-27T14:53:07Z</time>
      </trkpt>
      <trkpt lat="43.67214" lon="2.41933">
        <ele>477.5</ele>
        <time>2019-08-27T14:53:13Z</time>
      </trkpt>
      <trkpt lat="43.67216" lon="2.41946">
        <ele>478.5</ele>
        <time>2019-08-27T14:53:19Z</time>
      </trkpt>
      <trkpt lat="43.6722" lon="2.41957">
        <ele>479.6</ele>
        <time>2019-08-27T14:53:26Z</time>
      </trkpt>
      <trkpt lat="43.67225" lon="2.41968">
        <ele>481.5</ele>
        <time>2019-08-27T14:53:49Z</time>
      </trkpt>
      <trkpt lat="43.67231" lon="2.41979">
        <ele>482.5</ele>
        <time>2019-08-27T14:53:55Z</time>
      </trkpt>
      <trkpt lat="43.67236" lon="2.41991">
        <ele>483.6</ele>
        <time>2019-08-27T14:54:02Z</time>
      </trkpt>
      <trkpt lat="43.67241" lon="2.42001">
        <ele>485.3</ele>
        <time>2019-08-27T14:54:11Z</time>
      </trkpt>
      <trkpt lat="43.67246" lon="2.42013">
        <ele>487</ele>
        <time>2019-08-27T14:54:20Z</time>
      </trkpt>
      <trkpt lat="43.67252" lon="2.42024">
        <ele>488.5</ele>
        <time>2019-08-27T14:54:28Z</time>
      </trkpt>
      <trkpt lat="43.67257" lon="2.42036">
        <ele>489.8</ele>
        <time>2019-08-27T14:54:35Z</time>
      </trkpt>
      <trkpt lat="43.67263" lon="2.42048">
        <ele>491</ele>
        <time>2019-08-27T14:54:41Z</time>
      </trkpt>
      <trkpt lat="43.67264" lon="2.42061">
        <ele>492.1</ele>
        <time>2019-08-27T14:54:46Z</time>
      </trkpt>
      <trkpt lat="43.67266" lon="2.42074">
        <ele>493.1</ele>
        <time>2019-08-27T14:54:50Z</time>
      </trkpt>
      <trkpt lat="43.67272" lon="2.42086">
        <ele>494.8</ele>
        <time>2019-08-27T14:54:55Z</time>
      </trkpt>
      <trkpt lat="43.67278" lon="2.42096">
        <ele>496.2</ele>
        <time>2019-08-27T14:54:59Z</time>
      </trkpt>
      <trkpt lat="43.67282" lon="2.42111">
        <ele>497.8</ele>
        <time>2019-08-27T14:55:04Z</time>
      </trkpt>
      <trkpt lat="43.67288" lon="2.42125">
        <ele>499</ele>
        <time>2019-08-27T14:55:08Z</time>
      </trkpt>
      <trkpt lat="43.67291" lon="2.42137">
        <ele>500.2</ele>
        <time>2019-08-27T14:55:12Z</time>
      </trkpt>
      <trkpt lat="43.67296" lon="2.4215">
        <ele>501.9</ele>
        <time>2019-08-27T14:55:18Z</time>
      </trkpt>
      <trkpt lat="43.67299" lon="2.42161">
        <ele>503.5</ele>
        <time>2019-08-27T14:55:24Z</time>
      </trkpt>
      <trkpt lat="43.67304" lon="2.42173">
        <ele>504.6</ele>
        <time>2019-08-27T14:55:29Z</time>
      </trkpt>
      <trkpt lat="43.67307" lon="2.42187">
        <ele>505.2</ele>
        <time>2019-08-27T14:55:33Z</time>
      </trkpt>
      <trkpt lat="43.67308" lon="2.42201">
        <ele>505.7</ele>
        <time>2019-08-27T14:55:37Z</time>
      </trkpt>
      <trkpt lat="43.67309" lon="2.42213">
        <ele>506</ele>
        <time>2019-08-27T14:55:42Z</time>
      </trkpt>
      <trkpt lat="43.67309" lon="2.42226">
        <ele>506.2</ele>
        <time>2019-08-27T14:55:45Z</time>
      </trkpt>
      <trkpt lat="43.67308" lon="2.4224">
        <ele>506.4</ele>
        <time>2019-08-27T14:55:51Z</time>
      </trkpt>
      <trkpt lat="43.67306" lon="2.42255">
        <ele>506.5</ele>
        <time>2019-08-27T14:55:56Z</time>
      </trkpt>
      <trkpt lat="43.67305" lon="2.42269">
        <ele>506.9</ele>
        <time>2019-08-27T14:56:01Z</time>
      </trkpt>
      <trkpt lat="43.67303" lon="2.42285">
        <ele>507.6</ele>
        <time>2019-08-27T14:56:05Z</time>
      </trkpt>
      <trkpt lat="43.67302" lon="2.42299">
        <ele>508.5</ele>
        <time>2019-08-27T14:56:09Z</time>
      </trkpt>
      <trkpt lat="43.67304" lon="2.42312">
        <ele>509.5</ele>
        <time>2019-08-27T14:56:13Z</time>
      </trkpt>
      <trkpt lat="43.67308" lon="2.42324">
        <ele>510.4</ele>
        <time>2019-08-27T14:56:17Z</time>
      </trkpt>
      <trkpt lat="43.67315" lon="2.42334">
        <ele>512.1</ele>
        <time>2019-08-27T14:56:24Z</time>
      </trkpt>
      <trkpt lat="43.67324" lon="2.42341">
        <ele>513.3</ele>
        <time>2019-08-27T14:56:29Z</time>
      </trkpt>
      <trkpt lat="43.67333" lon="2.42343">
        <ele>515.3</ele>
        <time>2019-08-27T14:56:38Z</time>
      </trkpt>
      <trkpt lat="43.67328" lon="2.42354">
        <ele>516.6</ele>
        <time>2019-08-27T14:56:49Z</time>
      </trkpt>
      <trkpt lat="43.67333" lon="2.42366">
        <ele>516.5</ele>
        <time>2019-08-27T14:57:04Z</time>
      </trkpt>
      <trkpt lat="43.67338" lon="2.42377">
        <ele>516.8</ele>
        <time>2019-08-27T14:57:09Z</time>
      </trkpt>
      <trkpt lat="43.67345" lon="2.42388">
        <ele>517.5</ele>
        <time>2019-08-27T14:57:17Z</time>
      </trkpt>
      <trkpt lat="43.67353" lon="2.42395">
        <ele>518</ele>
        <time>2019-08-27T14:57:23Z</time>
      </trkpt>
      <trkpt lat="43.67359" lon="2.42405">
        <ele>519</ele>
        <time>2019-08-27T14:57:31Z</time>
      </trkpt>
      <trkpt lat="43.67365" lon="2.42415">
        <ele>519.9</ele>
        <time>2019-08-27T14:57:38Z</time>
      </trkpt>
      <trkpt lat="43.67371" lon="2.42426">
        <ele>520.9</ele>
        <time>2019-08-27T14:57:48Z</time>
      </trkpt>
      <trkpt lat="43.6737" lon="2.42438">
        <ele>522.1</ele>
        <time>2019-08-27T14:57:58Z</time>
      </trkpt>
      <trkpt lat="43.67366" lon="2.42451">
        <ele>523.4</ele>
        <time>2019-08-27T14:58:06Z</time>
      </trkpt>
      <trkpt lat="43.67359" lon="2.42459">
        <ele>526.2</ele>
        <time>2019-08-27T14:58:17Z</time>
      </trkpt>
      <trkpt lat="43.67353" lon="2.42469">
        <ele>530</ele>
        <time>2019-08-27T14:58:31Z</time>
      </trkpt>
      <trkpt lat="43.6735" lon="2.42482">
        <ele>533.1</ele>
        <time>2019-08-27T14:59:16Z</time>
      </trkpt>
      <trkpt lat="43.6735" lon="2.42495">
        <ele>533.4</ele>
        <time>2019-08-27T14:59:19Z</time>
      </trkpt>
      <trkpt lat="43.67346" lon="2.42506">
        <ele>533.4</ele>
        <time>2019-08-27T14:59:22Z</time>
      </trkpt>
      <trkpt lat="43.67345" lon="2.42522">
        <ele>533.3</ele>
        <time>2019-08-27T14:59:26Z</time>
      </trkpt>
      <trkpt lat="43.67344" lon="2.42535">
        <ele>533.4</ele>
        <time>2019-08-27T14:59:30Z</time>
      </trkpt>
      <trkpt lat="43.67341" lon="2.42551">
        <ele>533.6</ele>
        <time>2019-08-27T14:59:34Z</time>
      </trkpt>
      <trkpt lat="43.67347" lon="2.42565">
        <ele>534.3</ele>
        <time>2019-08-27T14:59:39Z</time>
      </trkpt>
      <trkpt lat="43.67354" lon="2.42576">
        <ele>534.8</ele>
        <time>2019-08-27T14:59:42Z</time>
      </trkpt>
      <trkpt lat="43.6736" lon="2.42586">
        <ele>535.2</ele>
        <time>2019-08-27T14:59:45Z</time>
      </trkpt>
      <trkpt lat="43.67368" lon="2.42595">
        <ele>535.7</ele>
        <time>2019-08-27T14:59:49Z</time>
      </trkpt>
      <trkpt lat="43.67375" lon="2.42604">
        <ele>536</ele>
        <time>2019-08-27T14:59:53Z</time>
      </trkpt>
      <trkpt lat="43.67383" lon="2.42615">
        <ele>536.3</ele>
        <time>2019-08-27T14:59:58Z</time>
      </trkpt>
      <trkpt lat="43.6739" lon="2.42622">
        <ele>536.8</ele>
        <time>2019-08-27T15:00:02Z</time>
      </trkpt>
      <trkpt lat="43.67398" lon="2.42632">
        <ele>537.6</ele>
        <time>2019-08-27T15:00:07Z</time>
      </trkpt>
      <trkpt lat="43.67406" lon="2.42641">
        <ele>538.5</ele>
        <time>2019-08-27T15:00:11Z</time>
      </trkpt>
      <trkpt lat="43.67416" lon="2.4265">
        <ele>539.5</ele>
        <time>2019-08-27T15:00:15Z</time>
      </trkpt>
      <trkpt lat="43.67424" lon="2.42655">
        <ele>540.4</ele>
        <time>2019-08-27T15:00:18Z</time>
      </trkpt>
      <trkpt lat="43.67434" lon="2.42657">
        <ele>541.3</ele>
        <time>2019-08-27T15:00:22Z</time>
      </trkpt>
      <trkpt lat="43.67444" lon="2.42658">
        <ele>542.1</ele>
        <time>2019-08-27T15:00:27Z</time>
      </trkpt>
      <trkpt lat="43.67455" lon="2.4266">
        <ele>542.6</ele>
        <time>2019-08-27T15:00:32Z</time>
      </trkpt>
      <trkpt lat="43.67465" lon="2.42662">
        <ele>543.2</ele>
        <time>2019-08-27T15:00:37Z</time>
      </trkpt>
      <trkpt lat="43.67474" lon="2.4266">
        <ele>544.2</ele>
        <time>2019-08-27T15:00:44Z</time>
      </trkpt>
      <trkpt lat="43.67483" lon="2.42663">
        <ele>545.3</ele>
        <time>2019-08-27T15:00:50Z</time>
      </trkpt>
      <trkpt lat="43.67493" lon="2.42668">
        <ele>545.7</ele>
        <time>2019-08-27T15:00:56Z</time>
      </trkpt>
      <trkpt lat="43.67502" lon="2.42673">
        <ele>545.8</ele>
        <time>2019-08-27T15:01:01Z</time>
      </trkpt>
      <trkpt lat="43.67511" lon="2.42671">
        <ele>546.1</ele>
        <time>2019-08-27T15:01:08Z</time>
      </trkpt>
      <trkpt lat="43.6752" lon="2.42675">
        <ele>546.7</ele>
        <time>2019-08-27T15:01:15Z</time>
      </trkpt>
      <trkpt lat="43.6753" lon="2.4268">
        <ele>547.5</ele>
        <time>2019-08-27T15:01:21Z</time>
      </trkpt>
      <trkpt lat="43.67538" lon="2.42686">
        <ele>548.4</ele>
        <time>2019-08-27T15:01:29Z</time>
      </trkpt>
      <trkpt lat="43.67546" lon="2.4269">
        <ele>549.1</ele>
        <time>2019-08-27T15:01:35Z</time>
      </trkpt>
      <trkpt lat="43.67553" lon="2.42701">
        <ele>549.8</ele>
        <time>2019-08-27T15:01:43Z</time>
      </trkpt>
      <trkpt lat="43.67561" lon="2.42711">
        <ele>550.1</ele>
        <time>2019-08-27T15:01:49Z</time>
      </trkpt>
      <trkpt lat="43.67566" lon="2.42722">
        <ele>550.3</ele>
        <time>2019-08-27T15:01:55Z</time>
      </trkpt>
      <trkpt lat="43.67571" lon="2.42733">
        <ele>550.3</ele>
        <time>2019-08-27T15:02:02Z</time>
      </trkpt>
      <trkpt lat="43.67575" lon="2.42747">
        <ele>550.6</ele>
        <time>2019-08-27T15:02:07Z</time>
      </trkpt>
      <trkpt lat="43.67577" lon="2.4276">
        <ele>551.3</ele>
        <time>2019-08-27T15:02:14Z</time>
      </trkpt>
      <trkpt lat="43.67577" lon="2.42773">
        <ele>552.1</ele>
        <time>2019-08-27T15:02:20Z</time>
      </trkpt>
      <trkpt lat="43.67578" lon="2.42786">
        <ele>552.8</ele>
        <time>2019-08-27T15:02:25Z</time>
      </trkpt>
      <trkpt lat="43.67579" lon="2.42799">
        <ele>553.3</ele>
        <time>2019-08-27T15:02:30Z</time>
      </trkpt>
      <trkpt lat="43.67579" lon="2.42812">
        <ele>554.1</ele>
        <time>2019-08-27T15:02:35Z</time>
      </trkpt>
      <trkpt lat="43.6758" lon="2.42826">
        <ele>554.6</ele>
        <time>2019-08-27T15:02:38Z</time>
      </trkpt>
      <trkpt lat="43.67579" lon="2.42841">
        <ele>555.4</ele>
        <time>2019-08-27T15:02:42Z</time>
      </trkpt>
      <trkpt lat="43.6758" lon="2.42856">
        <ele>556.3</ele>
        <time>2019-08-27T15:02:46Z</time>
      </trkpt>
      <trkpt lat="43.67583" lon="2.42869">
        <ele>556.7</ele>
        <time>2019-08-27T15:02:49Z</time>
      </trkpt>
      <trkpt lat="43.67585" lon="2.42881">
        <ele>557.1</ele>
        <time>2019-08-27T15:02:54Z</time>
      </trkpt>
      <trkpt lat="43.67585" lon="2.42895">
        <ele>557.5</ele>
        <time>2019-08-27T15:02:58Z</time>
      </trkpt>
      <trkpt lat="43.67583" lon="2.42909">
        <ele>558.5</ele>
        <time>2019-08-27T15:03:04Z</time>
      </trkpt>
      <trkpt lat="43.67577" lon="2.4292">
        <ele>559.9</ele>
        <time>2019-08-27T15:03:11Z</time>
      </trkpt>
      <trkpt lat="43.67578" lon="2.42936">
        <ele>560.9</ele>
        <time>2019-08-27T15:03:16Z</time>
      </trkpt>
      <trkpt lat="43.6758" lon="2.42952">
        <ele>561.9</ele>
        <time>2019-08-27T15:03:20Z</time>
      </trkpt>
      <trkpt lat="43.6758" lon="2.42964">
        <ele>563</ele>
        <time>2019-08-27T15:03:24Z</time>
      </trkpt>
      <trkpt lat="43.67574" lon="2.42977">
        <ele>564</ele>
        <time>2019-08-27T15:03:29Z</time>
      </trkpt>
      <trkpt lat="43.67573" lon="2.42991">
        <ele>564.8</ele>
        <time>2019-08-27T15:03:34Z</time>
      </trkpt>
      <trkpt lat="43.67571" lon="2.43003">
        <ele>565.3</ele>
        <time>2019-08-27T15:03:40Z</time>
      </trkpt>
      <trkpt lat="43.67565" lon="2.43017">
        <ele>565.7</ele>
        <time>2019-08-27T15:03:48Z</time>
      </trkpt>
      <trkpt lat="43.67562" lon="2.43029">
        <ele>566.3</ele>
        <time>2019-08-27T15:03:53Z</time>
      </trkpt>
      <trkpt lat="43.67561" lon="2.43043">
        <ele>567.5</ele>
        <time>2019-08-27T15:03:59Z</time>
      </trkpt>
      <trkpt lat="43.67555" lon="2.43053">
        <ele>569</ele>
        <time>2019-08-27T15:04:05Z</time>
      </trkpt>
      <trkpt lat="43.67557" lon="2.43065">
        <ele>570.1</ele>
        <time>2019-08-27T15:04:10Z</time>
      </trkpt>
      <trkpt lat="43.67567" lon="2.43072">
        <ele>571.1</ele>
        <time>2019-08-27T15:04:16Z</time>
      </trkpt>
      <trkpt lat="43.67576" lon="2.43076">
        <ele>571.8</ele>
        <time>2019-08-27T15:04:22Z</time>
      </trkpt>
      <trkpt lat="43.67585" lon="2.43073">
        <ele>572.2</ele>
        <time>2019-08-27T15:04:28Z</time>
      </trkpt>
      <trkpt lat="43.67595" lon="2.43069">
        <ele>572.3</ele>
        <time>2019-08-27T15:04:33Z</time>
      </trkpt>
      <trkpt lat="43.67603" lon="2.43061">
        <ele>572.4</ele>
        <time>2019-08-27T15:04:37Z</time>
      </trkpt>
      <trkpt lat="43.67611" lon="2.43054">
        <ele>572.5</ele>
        <time>2019-08-27T15:04:40Z</time>
      </trkpt>
      <trkpt lat="43.67621" lon="2.43048">
        <ele>572.8</ele>
        <time>2019-08-27T15:04:46Z</time>
      </trkpt>
      <trkpt lat="43.67629" lon="2.4304">
        <ele>573.1</ele>
        <time>2019-08-27T15:04:50Z</time>
      </trkpt>
      <trkpt lat="43.67637" lon="2.43031">
        <ele>573.5</ele>
        <time>2019-08-27T15:04:55Z</time>
      </trkpt>
      <trkpt lat="43.67645" lon="2.43025">
        <ele>573.9</ele>
        <time>2019-08-27T15:05:14Z</time>
      </trkpt>
      <trkpt lat="43.67651" lon="2.43013">
        <ele>574.6</ele>
        <time>2019-08-27T15:05:24Z</time>
      </trkpt>
      <trkpt lat="43.67658" lon="2.43002">
        <ele>574.6</ele>
        <time>2019-08-27T15:05:27Z</time>
      </trkpt>
      <trkpt lat="43.67664" lon="2.42991">
        <ele>574.4</ele>
        <time>2019-08-27T15:05:30Z</time>
      </trkpt>
      <trkpt lat="43.67671" lon="2.42978">
        <ele>574</ele>
        <time>2019-08-27T15:05:33Z</time>
      </trkpt>
      <trkpt lat="43.67677" lon="2.42966">
        <ele>570</ele>
        <time>2019-08-27T15:05:36Z</time>
      </trkpt>
      <trkpt lat="43.67686" lon="2.42953">
        <ele>567.9</ele>
        <time>2019-08-27T15:05:39Z</time>
      </trkpt>
      <trkpt lat="43.67695" lon="2.42939">
        <ele>566.9</ele>
        <time>2019-08-27T15:05:42Z</time>
      </trkpt>
      <trkpt lat="43.67703" lon="2.42928">
        <ele>566.1</ele>
        <time>2019-08-27T15:05:45Z</time>
      </trkpt>
      <trkpt lat="43.6771" lon="2.42913">
        <ele>565.4</ele>
        <time>2019-08-27T15:05:48Z</time>
      </trkpt>
      <trkpt lat="43.67717" lon="2.42901">
        <ele>564.7</ele>
        <time>2019-08-27T15:05:51Z</time>
      </trkpt>
      <trkpt lat="43.67724" lon="2.4289">
        <ele>563.9</ele>
        <time>2019-08-27T15:05:54Z</time>
      </trkpt>
      <trkpt lat="43.6773" lon="2.42875">
        <ele>563.3</ele>
        <time>2019-08-27T15:05:57Z</time>
      </trkpt>
      <trkpt lat="43.67738" lon="2.42863">
        <ele>562.7</ele>
        <time>2019-08-27T15:06:00Z</time>
      </trkpt>
      <trkpt lat="43.67744" lon="2.42854">
        <ele>562</ele>
        <time>2019-08-27T15:06:03Z</time>
      </trkpt>
      <trkpt lat="43.67752" lon="2.42843">
        <ele>561</ele>
        <time>2019-08-27T15:06:06Z</time>
      </trkpt>
      <trkpt lat="43.67759" lon="2.42834">
        <ele>559.9</ele>
        <time>2019-08-27T15:06:09Z</time>
      </trkpt>
      <trkpt lat="43.67765" lon="2.42822">
        <ele>556.2</ele>
        <time>2019-08-27T15:06:11Z</time>
      </trkpt>
      <trkpt lat="43.67772" lon="2.4281">
        <ele>555</ele>
        <time>2019-08-27T15:06:13Z</time>
      </trkpt>
      <trkpt lat="43.67781" lon="2.42797">
        <ele>553.6</ele>
        <time>2019-08-27T15:06:16Z</time>
      </trkpt>
      <trkpt lat="43.67785" lon="2.42782">
        <ele>550.4</ele>
        <time>2019-08-27T15:06:18Z</time>
      </trkpt>
      <trkpt lat="43.6779" lon="2.42767">
        <ele>546.1</ele>
        <time>2019-08-27T15:06:20Z</time>
      </trkpt>
      <trkpt lat="43.67795" lon="2.42753">
        <ele>541.2</ele>
        <time>2019-08-27T15:06:22Z</time>
      </trkpt>
      <trkpt lat="43.67799" lon="2.4274">
        <ele>539.5</ele>
        <time>2019-08-27T15:06:24Z</time>
      </trkpt>
      <trkpt lat="43.67805" lon="2.42725">
        <ele>537.9</ele>
        <time>2019-08-27T15:06:27Z</time>
      </trkpt>
      <trkpt lat="43.67811" lon="2.42715">
        <ele>532</ele>
        <time>2019-08-27T15:06:29Z</time>
      </trkpt>
      <trkpt lat="43.67818" lon="2.42702">
        <ele>527.2</ele>
        <time>2019-08-27T15:06:31Z</time>
      </trkpt>
      <trkpt lat="43.67823" lon="2.42692">
        <ele>523.8</ele>
        <time>2019-08-27T15:06:33Z</time>
      </trkpt>
      <trkpt lat="43.6783" lon="2.42683">
        <ele>518.5</ele>
        <time>2019-08-27T15:06:35Z</time>
      </trkpt>
      <trkpt lat="43.67837" lon="2.42671">
        <ele>516.5</ele>
        <time>2019-08-27T15:06:37Z</time>
      </trkpt>
      <trkpt lat="43.67846" lon="2.42658">
        <ele>515</ele>
        <time>2019-08-27T15:06:40Z</time>
      </trkpt>
      <trkpt lat="43.67854" lon="2.42649">
        <ele>514.3</ele>
        <time>2019-08-27T15:06:42Z</time>
      </trkpt>
      <trkpt lat="43.67862" lon="2.42639">
        <ele>513.2</ele>
        <time>2019-08-27T15:06:45Z</time>
      </trkpt>
      <trkpt lat="43.67867" lon="2.42629">
        <ele>510.5</ele>
        <time>2019-08-27T15:06:47Z</time>
      </trkpt>
      <trkpt lat="43.67877" lon="2.42617">
        <ele>507.9</ele>
        <time>2019-08-27T15:06:50Z</time>
      </trkpt>
      <trkpt lat="43.67889" lon="2.4261">
        <ele>505.1</ele>
        <time>2019-08-27T15:06:53Z</time>
      </trkpt>
      <trkpt lat="43.67898" lon="2.42602">
        <ele>503</ele>
        <time>2019-08-27T15:06:55Z</time>
      </trkpt>
      <trkpt lat="43.67906" lon="2.42593">
        <ele>498.9</ele>
        <time>2019-08-27T15:06:57Z</time>
      </trkpt>
      <trkpt lat="43.67919" lon="2.42584">
        <ele>495.5</ele>
        <time>2019-08-27T15:06:59Z</time>
      </trkpt>
      <trkpt lat="43.67936" lon="2.42578">
        <ele>493.8</ele>
        <time>2019-08-27T15:07:01Z</time>
      </trkpt>
      <trkpt lat="43.67949" lon="2.42567">
        <ele>494.2</ele>
        <time>2019-08-27T15:07:03Z</time>
      </trkpt>
      <trkpt lat="43.67961" lon="2.42557">
        <ele>495.9</ele>
        <time>2019-08-27T15:07:05Z</time>
      </trkpt>
      <trkpt lat="43.67971" lon="2.42549">
        <ele>498.4</ele>
        <time>2019-08-27T15:07:07Z</time>
      </trkpt>
      <trkpt lat="43.67981" lon="2.4254">
        <ele>500.8</ele>
        <time>2019-08-27T15:07:09Z</time>
      </trkpt>
      <trkpt lat="43.6799" lon="2.42535">
        <ele>502.6</ele>
        <time>2019-08-27T15:07:11Z</time>
      </trkpt>
      <trkpt lat="43.67997" lon="2.42527">
        <ele>503.4</ele>
        <time>2019-08-27T15:07:14Z</time>
      </trkpt>
      <trkpt lat="43.68001" lon="2.42515">
        <ele>504.3</ele>
        <time>2019-08-27T15:07:18Z</time>
      </trkpt>
      <trkpt lat="43.68002" lon="2.42502">
        <ele>504.9</ele>
        <time>2019-08-27T15:07:21Z</time>
      </trkpt>
      <trkpt lat="43.68002" lon="2.42486">
        <ele>506.4</ele>
        <time>2019-08-27T15:07:25Z</time>
      </trkpt>
      <trkpt lat="43.67998" lon="2.42466">
        <ele>508.8</ele>
        <time>2019-08-27T15:07:28Z</time>
      </trkpt>
      <trkpt lat="43.67991" lon="2.42452">
        <ele>510</ele>
        <time>2019-08-27T15:07:30Z</time>
      </trkpt>
      <trkpt lat="43.67983" lon="2.42443">
        <ele>510.6</ele>
        <time>2019-08-27T15:07:32Z</time>
      </trkpt>
      <trkpt lat="43.67975" lon="2.42433">
        <ele>510.3</ele>
        <time>2019-08-27T15:07:34Z</time>
      </trkpt>
      <trkpt lat="43.67965" lon="2.42417">
        <ele>509</ele>
        <time>2019-08-27T15:07:36Z</time>
      </trkpt>
      <trkpt lat="43.67957" lon="2.42398">
        <ele>507.1</ele>
        <time>2019-08-27T15:07:38Z</time>
      </trkpt>
      <trkpt lat="43.67957" lon="2.42385">
        <ele>506</ele>
        <time>2019-08-27T15:07:39Z</time>
      </trkpt>
      <trkpt lat="43.6796" lon="2.42361">
        <ele>503.8</ele>
        <time>2019-08-27T15:07:41Z</time>
      </trkpt>
      <trkpt lat="43.67962" lon="2.42349">
        <ele>502.8</ele>
        <time>2019-08-27T15:07:42Z</time>
      </trkpt>
      <trkpt lat="43.67964" lon="2.42337">
        <ele>501.9</ele>
        <time>2019-08-27T15:07:43Z</time>
      </trkpt>
      <trkpt lat="43.67966" lon="2.42325">
        <ele>500.9</ele>
        <time>2019-08-27T15:07:44Z</time>
      </trkpt>
      <trkpt lat="43.67969" lon="2.42312">
        <ele>500</ele>
        <time>2019-08-27T15:07:45Z</time>
      </trkpt>
      <trkpt lat="43.67971" lon="2.423">
        <ele>499.1</ele>
        <time>2019-08-27T15:07:46Z</time>
      </trkpt>
      <trkpt lat="43.67976" lon="2.42279">
        <ele>497.5</ele>
        <time>2019-08-27T15:07:48Z</time>
      </trkpt>
      <trkpt lat="43.67984" lon="2.42259">
        <ele>496.1</ele>
        <time>2019-08-27T15:07:50Z</time>
      </trkpt>
      <trkpt lat="43.6799" lon="2.42242">
        <ele>495.4</ele>
        <time>2019-08-27T15:07:52Z</time>
      </trkpt>
      <trkpt lat="43.67995" lon="2.42227">
        <ele>495.3</ele>
        <time>2019-08-27T15:07:55Z</time>
      </trkpt>
      <trkpt lat="43.68" lon="2.42217">
        <ele>495.3</ele>
        <time>2019-08-27T15:07:58Z</time>
      </trkpt>
      <trkpt lat="43.68006" lon="2.42206">
        <ele>495.6</ele>
        <time>2019-08-27T15:08:01Z</time>
      </trkpt>
      <trkpt lat="43.68013" lon="2.42193">
        <ele>496.1</ele>
        <time>2019-08-27T15:08:05Z</time>
      </trkpt>
      <trkpt lat="43.68021" lon="2.42181">
        <ele>496.8</ele>
        <time>2019-08-27T15:08:09Z</time>
      </trkpt>
      <trkpt lat="43.68028" lon="2.42168">
        <ele>497.2</ele>
        <time>2019-08-27T15:08:13Z</time>
      </trkpt>
      <trkpt lat="43.68036" lon="2.42158">
        <ele>497.5</ele>
        <time>2019-08-27T15:08:17Z</time>
      </trkpt>
      <trkpt lat="43.68043" lon="2.42147">
        <ele>497.9</ele>
        <time>2019-08-27T15:08:21Z</time>
      </trkpt>
      <trkpt lat="43.68049" lon="2.42134">
        <ele>498.3</ele>
        <time>2019-08-27T15:08:25Z</time>
      </trkpt>
      <trkpt lat="43.68055" lon="2.42121">
        <ele>498.9</ele>
        <time>2019-08-27T15:08:29Z</time>
      </trkpt>
      <trkpt lat="43.68063" lon="2.42109">
        <ele>499.5</ele>
        <time>2019-08-27T15:08:33Z</time>
      </trkpt>
      <trkpt lat="43.6807" lon="2.42101">
        <ele>500.2</ele>
        <time>2019-08-27T15:08:37Z</time>
      </trkpt>
      <trkpt lat="43.68077" lon="2.42092">
        <ele>500.8</ele>
        <time>2019-08-27T15:08:41Z</time>
      </trkpt>
      <trkpt lat="43.68085" lon="2.42083">
        <ele>501.4</ele>
        <time>2019-08-27T15:08:45Z</time>
      </trkpt>
      <trkpt lat="43.68095" lon="2.42074">
        <ele>501.8</ele>
        <time>2019-08-27T15:08:49Z</time>
      </trkpt>
      <trkpt lat="43.68104" lon="2.42067">
        <ele>502.1</ele>
        <time>2019-08-27T15:08:52Z</time>
      </trkpt>
      <trkpt lat="43.68114" lon="2.42061">
        <ele>502.3</ele>
        <time>2019-08-27T15:08:56Z</time>
      </trkpt>
      <trkpt lat="43.68125" lon="2.42057">
        <ele>502.4</ele>
        <time>2019-08-27T15:09:00Z</time>
      </trkpt>
      <trkpt lat="43.68137" lon="2.42052">
        <ele>502.5</ele>
        <time>2019-08-27T15:09:04Z</time>
      </trkpt>
      <trkpt lat="43.68146" lon="2.4205">
        <ele>502.5</ele>
        <time>2019-08-27T15:09:07Z</time>
      </trkpt>
      <trkpt lat="43.68159" lon="2.42048">
        <ele>502.9</ele>
        <time>2019-08-27T15:09:21Z</time>
      </trkpt>
      <trkpt lat="43.6817" lon="2.42049">
        <ele>503.2</ele>
        <time>2019-08-27T15:09:26Z</time>
      </trkpt>
      <trkpt lat="43.68181" lon="2.42051">
        <ele>503.4</ele>
        <time>2019-08-27T15:09:31Z</time>
      </trkpt>
      <trkpt lat="43.68189" lon="2.42058">
        <ele>503.7</ele>
        <time>2019-08-27T15:09:35Z</time>
      </trkpt>
      <trkpt lat="43.68198" lon="2.42063">
        <ele>503.9</ele>
        <time>2019-08-27T15:09:38Z</time>
      </trkpt>
      <trkpt lat="43.6821" lon="2.42064">
        <ele>504</ele>
        <time>2019-08-27T15:09:41Z</time>
      </trkpt>
      <trkpt lat="43.68218" lon="2.42069">
        <ele>504.3</ele>
        <time>2019-08-27T15:09:43Z</time>
      </trkpt>
      <trkpt lat="43.68228" lon="2.42074">
        <ele>504.5</ele>
        <time>2019-08-27T15:09:45Z</time>
      </trkpt>
      <trkpt lat="43.68235" lon="2.42082">
        <ele>504.5</ele>
        <time>2019-08-27T15:09:47Z</time>
      </trkpt>
      <trkpt lat="43.68243" lon="2.42091">
        <ele>504.3</ele>
        <time>2019-08-27T15:09:49Z</time>
      </trkpt>
      <trkpt lat="43.6825" lon="2.421">
        <ele>504.1</ele>
        <time>2019-08-27T15:09:52Z</time>
      </trkpt>
      <trkpt lat="43.68259" lon="2.42106">
        <ele>504</ele>
        <time>2019-08-27T15:09:55Z</time>
      </trkpt>
      <trkpt lat="43.68268" lon="2.4211">
        <ele>503.9</ele>
        <time>2019-08-27T15:09:57Z</time>
      </trkpt>
      <trkpt lat="43.6828" lon="2.42116">
        <ele>503.7</ele>
        <time>2019-08-27T15:10:00Z</time>
      </trkpt>
      <trkpt lat="43.68289" lon="2.42121">
        <ele>503.5</ele>
        <time>2019-08-27T15:10:03Z</time>
      </trkpt>
      <trkpt lat="43.68301" lon="2.42121">
        <ele>502.5</ele>
        <time>2019-08-27T15:10:07Z</time>
      </trkpt>
      <trkpt lat="43.68312" lon="2.42117">
        <ele>502.4</ele>
        <time>2019-08-27T15:10:10Z</time>
      </trkpt>
      <trkpt lat="43.68323" lon="2.42115">
        <ele>502.4</ele>
        <time>2019-08-27T15:10:13Z</time>
      </trkpt>
      <trkpt lat="43.68333" lon="2.42112">
        <ele>502.5</ele>
        <time>2019-08-27T15:10:16Z</time>
      </trkpt>
      <trkpt lat="43.68346" lon="2.4211">
        <ele>502.5</ele>
        <time>2019-08-27T15:10:19Z</time>
      </trkpt>
      <trkpt lat="43.68357" lon="2.42108">
        <ele>502.4</ele>
        <time>2019-08-27T15:10:22Z</time>
      </trkpt>
      <trkpt lat="43.68368" lon="2.42106">
        <ele>502.4</ele>
        <time>2019-08-27T15:10:25Z</time>
      </trkpt>
      <trkpt lat="43.68379" lon="2.42104">
        <ele>502.4</ele>
        <time>2019-08-27T15:10:28Z</time>
      </trkpt>
      <trkpt lat="43.6839" lon="2.42102">
        <ele>502.1</ele>
        <time>2019-08-27T15:10:31Z</time>
      </trkpt>
      <trkpt lat="43.68404" lon="2.42097">
        <ele>501.5</ele>
        <time>2019-08-27T15:10:34Z</time>
      </trkpt>
      <trkpt lat="43.68415" lon="2.42096">
        <ele>501.5</ele>
        <time>2019-08-27T15:10:37Z</time>
      </trkpt>
      <trkpt lat="43.68426" lon="2.42095">
        <ele>501.4</ele>
        <time>2019-08-27T15:10:40Z</time>
      </trkpt>
      <trkpt lat="43.68436" lon="2.42106">
        <ele>501.2</ele>
        <time>2019-08-27T15:10:43Z</time>
      </trkpt>
      <trkpt lat="43.68445" lon="2.42107">
        <ele>501.1</ele>
        <time>2019-08-27T15:10:45Z</time>
      </trkpt>
      <trkpt lat="43.68458" lon="2.4211">
        <ele>501</ele>
        <time>2019-08-27T15:10:48Z</time>
      </trkpt>
      <trkpt lat="43.68467" lon="2.42112">
        <ele>501</ele>
        <time>2019-08-27T15:10:50Z</time>
      </trkpt>
      <trkpt lat="43.68477" lon="2.42116">
        <ele>500.9</ele>
        <time>2019-08-27T15:10:53Z</time>
      </trkpt>
      <trkpt lat="43.68488" lon="2.42121">
        <ele>501</ele>
        <time>2019-08-27T15:10:57Z</time>
      </trkpt>
      <trkpt lat="43.68498" lon="2.4212">
        <ele>501</ele>
        <time>2019-08-27T15:11:00Z</time>
      </trkpt>
      <trkpt lat="43.6851" lon="2.42119">
        <ele>500.8</ele>
        <time>2019-08-27T15:11:04Z</time>
      </trkpt>
      <trkpt lat="43.68522" lon="2.42115">
        <ele>499.2</ele>
        <time>2019-08-27T15:11:07Z</time>
      </trkpt>
      <trkpt lat="43.68534" lon="2.42115">
        <ele>498.3</ele>
        <time>2019-08-27T15:11:10Z</time>
      </trkpt>
      <trkpt lat="43.68546" lon="2.42116">
        <ele>497.8</ele>
        <time>2019-08-27T15:11:13Z</time>
      </trkpt>
      <trkpt lat="43.6856" lon="2.42119">
        <ele>496.2</ele>
        <time>2019-08-27T15:11:41Z</time>
      </trkpt>
      <trkpt lat="43.68571" lon="2.42119">
        <ele>495.3</ele>
        <time>2019-08-27T15:11:48Z</time>
      </trkpt>
      <trkpt lat="43.68582" lon="2.42121">
        <ele>495.1</ele>
        <time>2019-08-27T15:11:50Z</time>
      </trkpt>
      <trkpt lat="43.68592" lon="2.42128">
        <ele>494.9</ele>
        <time>2019-08-27T15:11:53Z</time>
      </trkpt>
      <trkpt lat="43.68599" lon="2.4214">
        <ele>494.8</ele>
        <time>2019-08-27T15:11:57Z</time>
      </trkpt>
      <trkpt lat="43.68602" lon="2.42154">
        <ele>494.7</ele>
        <time>2019-08-27T15:12:01Z</time>
      </trkpt>
      <trkpt lat="43.68603" lon="2.42166">
        <ele>494.7</ele>
        <time>2019-08-27T15:12:06Z</time>
      </trkpt>
      <trkpt lat="43.68605" lon="2.4218">
        <ele>495.1</ele>
        <time>2019-08-27T15:12:19Z</time>
      </trkpt>
      <trkpt lat="43.68605" lon="2.42194">
        <ele>495.5</ele>
        <time>2019-08-27T15:12:28Z</time>
      </trkpt>
      <trkpt lat="43.68603" lon="2.42207">
        <ele>496.2</ele>
        <time>2019-08-27T15:12:39Z</time>
      </trkpt>
      <trkpt lat="43.68596" lon="2.42217">
        <ele>497.6</ele>
        <time>2019-08-27T15:12:53Z</time>
      </trkpt>
      <trkpt lat="43.68597" lon="2.42205">
        <ele>501.1</ele>
        <time>2019-08-27T15:13:22Z</time>
      </trkpt>
      <trkpt lat="43.686" lon="2.42191">
        <ele>501.6</ele>
        <time>2019-08-27T15:13:26Z</time>
      </trkpt>
      <trkpt lat="43.68602" lon="2.42176">
        <ele>502</ele>
        <time>2019-08-27T15:13:30Z</time>
      </trkpt>
      <trkpt lat="43.68602" lon="2.4216">
        <ele>502.2</ele>
        <time>2019-08-27T15:13:34Z</time>
      </trkpt>
      <trkpt lat="43.68599" lon="2.42146">
        <ele>502.2</ele>
        <time>2019-08-27T15:13:37Z</time>
      </trkpt>
      <trkpt lat="43.68594" lon="2.42132">
        <ele>502.1</ele>
        <time>2019-08-27T15:13:41Z</time>
      </trkpt>
      <trkpt lat="43.68588" lon="2.42121">
        <ele>501.9</ele>
        <time>2019-08-27T15:13:44Z</time>
      </trkpt>
      <trkpt lat="43.68579" lon="2.42116">
        <ele>501.6</ele>
        <time>2019-08-27T15:13:47Z</time>
      </trkpt>
      <trkpt lat="43.68568" lon="2.42115">
        <ele>501.3</ele>
        <time>2019-08-27T15:13:51Z</time>
      </trkpt>
      <trkpt lat="43.68557" lon="2.42115">
        <ele>501.2</ele>
        <time>2019-08-27T15:13:55Z</time>
      </trkpt>
      <trkpt lat="43.68548" lon="2.42118">
        <ele>501.3</ele>
        <time>2019-08-27T15:13:59Z</time>
      </trkpt>
      <trkpt lat="43.68536" lon="2.42119">
        <ele>501.4</ele>
        <time>2019-08-27T15:14:03Z</time>
      </trkpt>
      <trkpt lat="43.68526" lon="2.42122">
        <ele>501.5</ele>
        <time>2019-08-27T15:14:06Z</time>
      </trkpt>
      <trkpt lat="43.68517" lon="2.42123">
        <ele>501.5</ele>
        <time>2019-08-27T15:14:08Z</time>
      </trkpt>
      <trkpt lat="43.68505" lon="2.42124">
        <ele>501.5</ele>
        <time>2019-08-27T15:14:11Z</time>
      </trkpt>
      <trkpt lat="43.68496" lon="2.42121">
        <ele>501.3</ele>
        <time>2019-08-27T15:14:14Z</time>
      </trkpt>
      <trkpt lat="43.68485" lon="2.42118">
        <ele>499.9</ele>
        <time>2019-08-27T15:14:17Z</time>
      </trkpt>
      <trkpt lat="43.68476" lon="2.42114">
        <ele>499.4</ele>
        <time>2019-08-27T15:14:19Z</time>
      </trkpt>
      <trkpt lat="43.68467" lon="2.4211">
        <ele>498.1</ele>
        <time>2019-08-27T15:14:21Z</time>
      </trkpt>
      <trkpt lat="43.68455" lon="2.42103">
        <ele>496.8</ele>
        <time>2019-08-27T15:14:23Z</time>
      </trkpt>
      <trkpt lat="43.68443" lon="2.42101">
        <ele>496.1</ele>
        <time>2019-08-27T15:14:25Z</time>
      </trkpt>
      <trkpt lat="43.68431" lon="2.421">
        <ele>495.8</ele>
        <time>2019-08-27T15:14:27Z</time>
      </trkpt>
      <trkpt lat="43.68421" lon="2.42101">
        <ele>495.7</ele>
        <time>2019-08-27T15:14:29Z</time>
      </trkpt>
      <trkpt lat="43.68409" lon="2.42102">
        <ele>495.4</ele>
        <time>2019-08-27T15:14:32Z</time>
      </trkpt>
      <trkpt lat="43.68396" lon="2.42104">
        <ele>495.1</ele>
        <time>2019-08-27T15:14:35Z</time>
      </trkpt>
      <trkpt lat="43.68386" lon="2.42106">
        <ele>494.9</ele>
        <time>2019-08-27T15:14:37Z</time>
      </trkpt>
      <trkpt lat="43.68375" lon="2.42108">
        <ele>494.7</ele>
        <time>2019-08-27T15:14:40Z</time>
      </trkpt>
      <trkpt lat="43.68363" lon="2.4211">
        <ele>494.7</ele>
        <time>2019-08-27T15:14:43Z</time>
      </trkpt>
      <trkpt lat="43.68351" lon="2.42112">
        <ele>494.7</ele>
        <time>2019-08-27T15:14:46Z</time>
      </trkpt>
      <trkpt lat="43.68339" lon="2.42114">
        <ele>494.8</ele>
        <time>2019-08-27T15:14:49Z</time>
      </trkpt>
      <trkpt lat="43.68327" lon="2.42116">
        <ele>494.8</ele>
        <time>2019-08-27T15:14:52Z</time>
      </trkpt>
      <trkpt lat="43.68317" lon="2.42118">
        <ele>494.5</ele>
        <time>2019-08-27T15:14:54Z</time>
      </trkpt>
      <trkpt lat="43.68307" lon="2.42121">
        <ele>494.4</ele>
        <time>2019-08-27T15:14:56Z</time>
      </trkpt>
      <trkpt lat="43.68295" lon="2.42122">
        <ele>495.1</ele>
        <time>2019-08-27T15:14:59Z</time>
      </trkpt>
      <trkpt lat="43.68285" lon="2.42114">
        <ele>496.5</ele>
        <time>2019-08-27T15:15:02Z</time>
      </trkpt>
      <trkpt lat="43.68269" lon="2.421">
        <ele>497</ele>
        <time>2019-08-27T15:15:07Z</time>
      </trkpt>
      <trkpt lat="43.68258" lon="2.42091">
        <ele>497.3</ele>
        <time>2019-08-27T15:15:10Z</time>
      </trkpt>
      <trkpt lat="43.68251" lon="2.42084">
        <ele>497.4</ele>
        <time>2019-08-27T15:15:12Z</time>
      </trkpt>
      <trkpt lat="43.68242" lon="2.42076">
        <ele>497.4</ele>
        <time>2019-08-27T15:15:14Z</time>
      </trkpt>
      <trkpt lat="43.68231" lon="2.42069">
        <ele>497.3</ele>
        <time>2019-08-27T15:15:17Z</time>
      </trkpt>
      <trkpt lat="43.68222" lon="2.42065">
        <ele>497.3</ele>
        <time>2019-08-27T15:15:20Z</time>
      </trkpt>
      <trkpt lat="43.68213" lon="2.42061">
        <ele>497.3</ele>
        <time>2019-08-27T15:15:23Z</time>
      </trkpt>
      <trkpt lat="43.68202" lon="2.42057">
        <ele>497.4</ele>
        <time>2019-08-27T15:15:26Z</time>
      </trkpt>
      <trkpt lat="43.68192" lon="2.42055">
        <ele>497.5</ele>
        <time>2019-08-27T15:15:29Z</time>
      </trkpt>
      <trkpt lat="43.68182" lon="2.42052">
        <ele>497.6</ele>
        <time>2019-08-27T15:15:32Z</time>
      </trkpt>
      <trkpt lat="43.68172" lon="2.42049">
        <ele>497.9</ele>
        <time>2019-08-27T15:15:35Z</time>
      </trkpt>
      <trkpt lat="43.68163" lon="2.42047">
        <ele>498.2</ele>
        <time>2019-08-27T15:15:38Z</time>
      </trkpt>
      <trkpt lat="43.68152" lon="2.4205">
        <ele>498.5</ele>
        <time>2019-08-27T15:15:41Z</time>
      </trkpt>
      <trkpt lat="43.6814" lon="2.42054">
        <ele>498.7</ele>
        <time>2019-08-27T15:15:44Z</time>
      </trkpt>
      <trkpt lat="43.68128" lon="2.42058">
        <ele>499</ele>
        <time>2019-08-27T15:15:47Z</time>
      </trkpt>
      <trkpt lat="43.68116" lon="2.42063">
        <ele>499.3</ele>
        <time>2019-08-27T15:15:50Z</time>
      </trkpt>
      <trkpt lat="43.68105" lon="2.4207">
        <ele>499.5</ele>
        <time>2019-08-27T15:15:53Z</time>
      </trkpt>
      <trkpt lat="43.68096" lon="2.42077">
        <ele>499.5</ele>
        <time>2019-08-27T15:15:56Z</time>
      </trkpt>
      <trkpt lat="43.68087" lon="2.42086">
        <ele>499.5</ele>
        <time>2019-08-27T15:15:59Z</time>
      </trkpt>
      <trkpt lat="43.68079" lon="2.42093">
        <ele>499.4</ele>
        <time>2019-08-27T15:16:01Z</time>
      </trkpt>
      <trkpt lat="43.68071" lon="2.42103">
        <ele>499.3</ele>
        <time>2019-08-27T15:16:03Z</time>
      </trkpt>
      <trkpt lat="43.68061" lon="2.42112">
        <ele>499</ele>
        <time>2019-08-27T15:16:06Z</time>
      </trkpt>
      <trkpt lat="43.68053" lon="2.42123">
        <ele>498.5</ele>
        <time>2019-08-27T15:16:09Z</time>
      </trkpt>
      <trkpt lat="43.68046" lon="2.42131">
        <ele>497.6</ele>
        <time>2019-08-27T15:16:12Z</time>
      </trkpt>
      <trkpt lat="43.68041" lon="2.42143">
        <ele>497.1</ele>
        <time>2019-08-27T15:16:16Z</time>
      </trkpt>
      <trkpt lat="43.68033" lon="2.42152">
        <ele>497.5</ele>
        <time>2019-08-27T15:16:45Z</time>
      </trkpt>
      <trkpt lat="43.68027" lon="2.42162">
        <ele>497.8</ele>
        <time>2019-08-27T15:16:49Z</time>
      </trkpt>
      <trkpt lat="43.6802" lon="2.42176">
        <ele>497.7</ele>
        <time>2019-08-27T15:16:52Z</time>
      </trkpt>
      <trkpt lat="43.68012" lon="2.42188">
        <ele>495</ele>
        <time>2019-08-27T15:16:55Z</time>
      </trkpt>
      <trkpt lat="43.68006" lon="2.42204">
        <ele>492.6</ele>
        <time>2019-08-27T15:16:57Z</time>
      </trkpt>
      <trkpt lat="43.68" lon="2.42214">
        <ele>491.9</ele>
        <time>2019-08-27T15:16:59Z</time>
      </trkpt>
      <trkpt lat="43.67996" lon="2.42226">
        <ele>491.4</ele>
        <time>2019-08-27T15:17:01Z</time>
      </trkpt>
      <trkpt lat="43.67991" lon="2.42239">
        <ele>491</ele>
        <time>2019-08-27T15:17:05Z</time>
      </trkpt>
      <trkpt lat="43.67983" lon="2.42247">
        <ele>490.8</ele>
        <time>2019-08-27T15:17:18Z</time>
      </trkpt>
      <trkpt lat="43.67986" lon="2.42234">
        <ele>490.6</ele>
        <time>2019-08-27T15:17:27Z</time>
      </trkpt>
      <trkpt lat="43.67988" lon="2.42219">
        <ele>490.5</ele>
        <time>2019-08-27T15:17:31Z</time>
      </trkpt>
      <trkpt lat="43.6799" lon="2.42205">
        <ele>490.3</ele>
        <time>2019-08-27T15:17:34Z</time>
      </trkpt>
      <trkpt lat="43.67992" lon="2.42189">
        <ele>490.1</ele>
        <time>2019-08-27T15:17:37Z</time>
      </trkpt>
      <trkpt lat="43.67996" lon="2.42172">
        <ele>489</ele>
        <time>2019-08-27T15:17:40Z</time>
      </trkpt>
      <trkpt lat="43.68" lon="2.42159">
        <ele>488.4</ele>
        <time>2019-08-27T15:17:42Z</time>
      </trkpt>
      <trkpt lat="43.68001" lon="2.42146">
        <ele>488</ele>
        <time>2019-08-27T15:17:44Z</time>
      </trkpt>
      <trkpt lat="43.68006" lon="2.42128">
        <ele>487.2</ele>
        <time>2019-08-27T15:17:47Z</time>
      </trkpt>
      <trkpt lat="43.68011" lon="2.42116">
        <ele>486.5</ele>
        <time>2019-08-27T15:17:50Z</time>
      </trkpt>
      <trkpt lat="43.68018" lon="2.42103">
        <ele>484.7</ele>
        <time>2019-08-27T15:17:52Z</time>
      </trkpt>
      <trkpt lat="43.68025" lon="2.4209">
        <ele>482.9</ele>
        <time>2019-08-27T15:17:54Z</time>
      </trkpt>
      <trkpt lat="43.68031" lon="2.4208">
        <ele>481.6</ele>
        <time>2019-08-27T15:17:56Z</time>
      </trkpt>
      <trkpt lat="43.68039" lon="2.42072">
        <ele>480.3</ele>
        <time>2019-08-27T15:17:58Z</time>
      </trkpt>
      <trkpt lat="43.68047" lon="2.42063">
        <ele>479</ele>
        <time>2019-08-27T15:18:00Z</time>
      </trkpt>
      <trkpt lat="43.68055" lon="2.42053">
        <ele>478</ele>
        <time>2019-08-27T15:18:02Z</time>
      </trkpt>
      <trkpt lat="43.68062" lon="2.42045">
        <ele>477.3</ele>
        <time>2019-08-27T15:18:04Z</time>
      </trkpt>
      <trkpt lat="43.68074" lon="2.42039">
        <ele>476.2</ele>
        <time>2019-08-27T15:18:07Z</time>
      </trkpt>
      <trkpt lat="43.68082" lon="2.42033">
        <ele>475.7</ele>
        <time>2019-08-27T15:18:09Z</time>
      </trkpt>
      <trkpt lat="43.68093" lon="2.42023">
        <ele>475.3</ele>
        <time>2019-08-27T15:18:12Z</time>
      </trkpt>
      <trkpt lat="43.68104" lon="2.42014">
        <ele>475.4</ele>
        <time>2019-08-27T15:18:15Z</time>
      </trkpt>
      <trkpt lat="43.68113" lon="2.42009">
        <ele>476.2</ele>
        <time>2019-08-27T15:18:17Z</time>
      </trkpt>
      <trkpt lat="43.68123" lon="2.42003">
        <ele>476.4</ele>
        <time>2019-08-27T15:18:20Z</time>
      </trkpt>
      <trkpt lat="43.68133" lon="2.41998">
        <ele>476.3</ele>
        <time>2019-08-27T15:18:22Z</time>
      </trkpt>
      <trkpt lat="43.68144" lon="2.41994">
        <ele>476.2</ele>
        <time>2019-08-27T15:18:25Z</time>
      </trkpt>
      <trkpt lat="43.68154" lon="2.4199">
        <ele>476</ele>
        <time>2019-08-27T15:18:28Z</time>
      </trkpt>
      <trkpt lat="43.68165" lon="2.41987">
        <ele>475.3</ele>
        <time>2019-08-27T15:18:31Z</time>
      </trkpt>
      <trkpt lat="43.68175" lon="2.41987">
        <ele>474.3</ele>
        <time>2019-08-27T15:18:33Z</time>
      </trkpt>
      <trkpt lat="43.68184" lon="2.41987">
        <ele>473.9</ele>
        <time>2019-08-27T15:18:35Z</time>
      </trkpt>
      <trkpt lat="43.68196" lon="2.41989">
        <ele>474</ele>
        <time>2019-08-27T15:18:38Z</time>
      </trkpt>
      <trkpt lat="43.68209" lon="2.41993">
        <ele>474</ele>
        <time>2019-08-27T15:18:41Z</time>
      </trkpt>
      <trkpt lat="43.68222" lon="2.41996">
        <ele>473.9</ele>
        <time>2019-08-27T15:18:44Z</time>
      </trkpt>
      <trkpt lat="43.68233" lon="2.42002">
        <ele>473.2</ele>
        <time>2019-08-27T15:18:47Z</time>
      </trkpt>
      <trkpt lat="43.68245" lon="2.42007">
        <ele>472.1</ele>
        <time>2019-08-27T15:18:50Z</time>
      </trkpt>
      <trkpt lat="43.68254" lon="2.42012">
        <ele>470.9</ele>
        <time>2019-08-27T15:18:52Z</time>
      </trkpt>
      <trkpt lat="43.68264" lon="2.42018">
        <ele>469.8</ele>
        <time>2019-08-27T15:18:55Z</time>
      </trkpt>
      <trkpt lat="43.68273" lon="2.42023">
        <ele>469.5</ele>
        <time>2019-08-27T15:18:57Z</time>
      </trkpt>
      <trkpt lat="43.68283" lon="2.42028">
        <ele>470.1</ele>
        <time>2019-08-27T15:18:59Z</time>
      </trkpt>
      <trkpt lat="43.68293" lon="2.42034">
        <ele>470.8</ele>
        <time>2019-08-27T15:19:01Z</time>
      </trkpt>
      <trkpt lat="43.68303" lon="2.42041">
        <ele>471.7</ele>
        <time>2019-08-27T15:19:03Z</time>
      </trkpt>
      <trkpt lat="43.68312" lon="2.42047">
        <ele>472.3</ele>
        <time>2019-08-27T15:19:05Z</time>
      </trkpt>
      <trkpt lat="43.68321" lon="2.42053">
        <ele>472.7</ele>
        <time>2019-08-27T15:19:08Z</time>
      </trkpt>
      <trkpt lat="43.6833" lon="2.42054">
        <ele>473.1</ele>
        <time>2019-08-27T15:19:11Z</time>
      </trkpt>
      <trkpt lat="43.68341" lon="2.42053">
        <ele>473.4</ele>
        <time>2019-08-27T15:19:14Z</time>
      </trkpt>
      <trkpt lat="43.68354" lon="2.42052">
        <ele>473.6</ele>
        <time>2019-08-27T15:19:17Z</time>
      </trkpt>
      <trkpt lat="43.68364" lon="2.4205">
        <ele>473.6</ele>
        <time>2019-08-27T15:19:20Z</time>
      </trkpt>
      <trkpt lat="43.68374" lon="2.42047">
        <ele>473.5</ele>
        <time>2019-08-27T15:19:23Z</time>
      </trkpt>
      <trkpt lat="43.68385" lon="2.42044">
        <ele>473.1</ele>
        <time>2019-08-27T15:19:26Z</time>
      </trkpt>
      <trkpt lat="43.68395" lon="2.42041">
        <ele>472.2</ele>
        <time>2019-08-27T15:19:28Z</time>
      </trkpt>
      <trkpt lat="43.68405" lon="2.4204">
        <ele>471.3</ele>
        <time>2019-08-27T15:19:30Z</time>
      </trkpt>
      <trkpt lat="43.68418" lon="2.42039">
        <ele>470.5</ele>
        <time>2019-08-27T15:19:33Z</time>
      </trkpt>
      <trkpt lat="43.6843" lon="2.4204">
        <ele>468.7</ele>
        <time>2019-08-27T15:19:35Z</time>
      </trkpt>
      <trkpt lat="43.68442" lon="2.42038">
        <ele>466.5</ele>
        <time>2019-08-27T15:19:37Z</time>
      </trkpt>
      <trkpt lat="43.68455" lon="2.4204">
        <ele>464.9</ele>
        <time>2019-08-27T15:19:39Z</time>
      </trkpt>
      <trkpt lat="43.68467" lon="2.42038">
        <ele>463.3</ele>
        <time>2019-08-27T15:19:41Z</time>
      </trkpt>
      <trkpt lat="43.68478" lon="2.42038">
        <ele>461.8</ele>
        <time>2019-08-27T15:19:43Z</time>
      </trkpt>
      <trkpt lat="43.68489" lon="2.42043">
        <ele>459.2</ele>
        <time>2019-08-27T15:19:46Z</time>
      </trkpt>
      <trkpt lat="43.68504" lon="2.42035">
        <ele>456.5</ele>
        <time>2019-08-27T15:19:48Z</time>
      </trkpt>
      <trkpt lat="43.68522" lon="2.4203">
        <ele>453.3</ele>
        <time>2019-08-27T15:19:50Z</time>
      </trkpt>
      <trkpt lat="43.68532" lon="2.42028">
        <ele>451.6</ele>
        <time>2019-08-27T15:19:51Z</time>
      </trkpt>
      <trkpt lat="43.68542" lon="2.42025">
        <ele>450.3</ele>
        <time>2019-08-27T15:19:52Z</time>
      </trkpt>
      <trkpt lat="43.68559" lon="2.4202">
        <ele>448.6</ele>
        <time>2019-08-27T15:19:54Z</time>
      </trkpt>
      <trkpt lat="43.68574" lon="2.42011">
        <ele>447.8</ele>
        <time>2019-08-27T15:19:56Z</time>
      </trkpt>
      <trkpt lat="43.68586" lon="2.42005">
        <ele>447.4</ele>
        <time>2019-08-27T15:19:58Z</time>
      </trkpt>
      <trkpt lat="43.686" lon="2.41998">
        <ele>447.3</ele>
        <time>2019-08-27T15:20:00Z</time>
      </trkpt>
      <trkpt lat="43.68611" lon="2.41991">
        <ele>447.3</ele>
        <time>2019-08-27T15:20:02Z</time>
      </trkpt>
      <trkpt lat="43.68624" lon="2.41983">
        <ele>447.6</ele>
        <time>2019-08-27T15:20:04Z</time>
      </trkpt>
      <trkpt lat="43.68638" lon="2.41975">
        <ele>448.4</ele>
        <time>2019-08-27T15:20:06Z</time>
      </trkpt>
      <trkpt lat="43.68651" lon="2.41965">
        <ele>448.9</ele>
        <time>2019-08-27T15:20:08Z</time>
      </trkpt>
      <trkpt lat="43.68662" lon="2.41958">
        <ele>449.1</ele>
        <time>2019-08-27T15:20:11Z</time>
      </trkpt>
      <trkpt lat="43.68674" lon="2.41951">
        <ele>448.8</ele>
        <time>2019-08-27T15:20:14Z</time>
      </trkpt>
      <trkpt lat="43.68686" lon="2.41947">
        <ele>448.1</ele>
        <time>2019-08-27T15:20:17Z</time>
      </trkpt>
      <trkpt lat="43.68696" lon="2.41948">
        <ele>447.9</ele>
        <time>2019-08-27T15:20:20Z</time>
      </trkpt>
      <trkpt lat="43.68706" lon="2.41957">
        <ele>448</ele>
        <time>2019-08-27T15:20:24Z</time>
      </trkpt>
      <trkpt lat="43.68714" lon="2.41966">
        <ele>448</ele>
        <time>2019-08-27T15:20:27Z</time>
      </trkpt>
      <trkpt lat="43.6872" lon="2.41976">
        <ele>447.9</ele>
        <time>2019-08-27T15:20:30Z</time>
      </trkpt>
      <trkpt lat="43.6873" lon="2.41984">
        <ele>447.6</ele>
        <time>2019-08-27T15:20:36Z</time>
      </trkpt>
      <trkpt lat="43.68734" lon="2.4197">
        <ele>446.9</ele>
        <time>2019-08-27T15:20:40Z</time>
      </trkpt>
      <trkpt lat="43.6873" lon="2.41954">
        <ele>446.2</ele>
        <time>2019-08-27T15:20:44Z</time>
      </trkpt>
      <trkpt lat="43.68725" lon="2.4194">
        <ele>445.6</ele>
        <time>2019-08-27T15:20:48Z</time>
      </trkpt>
      <trkpt lat="43.68732" lon="2.41931">
        <ele>444.9</ele>
        <time>2019-08-27T15:20:53Z</time>
      </trkpt>
      <trkpt lat="43.68721" lon="2.4193">
        <ele>442.5</ele>
        <time>2019-08-27T15:21:36Z</time>
      </trkpt>
      <trkpt lat="43.68714" lon="2.41922">
        <ele>442</ele>
        <time>2019-08-27T15:21:41Z</time>
      </trkpt>
      <trkpt lat="43.68708" lon="2.41909">
        <ele>441.6</ele>
        <time>2019-08-27T15:21:45Z</time>
      </trkpt>
      <trkpt lat="43.687" lon="2.41901">
        <ele>441.2</ele>
        <time>2019-08-27T15:21:49Z</time>
      </trkpt>
      <trkpt lat="43.68705" lon="2.41915">
        <ele>439.8</ele>
        <time>2019-08-27T15:22:24Z</time>
      </trkpt>
      <trkpt lat="43.68712" lon="2.41928">
        <ele>439.6</ele>
        <time>2019-08-27T15:22:29Z</time>
      </trkpt>
      <trkpt lat="43.6872" lon="2.41935">
        <ele>438.7</ele>
        <time>2019-08-27T15:22:32Z</time>
      </trkpt>
      <trkpt lat="43.68726" lon="2.41947">
        <ele>437.1</ele>
        <time>2019-08-27T15:22:34Z</time>
      </trkpt>
      <trkpt lat="43.68731" lon="2.41959">
        <ele>436.3</ele>
        <time>2019-08-27T15:22:37Z</time>
      </trkpt>
      <trkpt lat="43.68734" lon="2.41973">
        <ele>435.9</ele>
        <time>2019-08-27T15:22:41Z</time>
      </trkpt>
      <trkpt lat="43.68731" lon="2.41985">
        <ele>435.6</ele>
        <time>2019-08-27T15:22:46Z</time>
      </trkpt>
      <trkpt lat="43.68732" lon="2.42">
        <ele>435.6</ele>
        <time>2019-08-27T15:22:52Z</time>
      </trkpt>
      <trkpt lat="43.68741" lon="2.42011">
        <ele>435.7</ele>
        <time>2019-08-27T15:22:57Z</time>
      </trkpt>
      <trkpt lat="43.68751" lon="2.42025">
        <ele>435.9</ele>
        <time>2019-08-27T15:23:00Z</time>
      </trkpt>
      <trkpt lat="43.68755" lon="2.42036">
        <ele>435.7</ele>
        <time>2019-08-27T15:23:02Z</time>
      </trkpt>
      <trkpt lat="43.68758" lon="2.42047">
        <ele>435.4</ele>
        <time>2019-08-27T15:23:04Z</time>
      </trkpt>
      <trkpt lat="43.68759" lon="2.42061">
        <ele>435</ele>
        <time>2019-08-27T15:23:06Z</time>
      </trkpt>
      <trkpt lat="43.68761" lon="2.42074">
        <ele>434.8</ele>
        <time>2019-08-27T15:23:09Z</time>
      </trkpt>
      <trkpt lat="43.68763" lon="2.42091">
        <ele>434.7</ele>
        <time>2019-08-27T15:23:12Z</time>
      </trkpt>
      <trkpt lat="43.68766" lon="2.42107">
        <ele>434.6</ele>
        <time>2019-08-27T15:23:15Z</time>
      </trkpt>
      <trkpt lat="43.68766" lon="2.4212">
        <ele>434.6</ele>
        <time>2019-08-27T15:23:17Z</time>
      </trkpt>
      <trkpt lat="43.68765" lon="2.42138">
        <ele>434.7</ele>
        <time>2019-08-27T15:23:20Z</time>
      </trkpt>
      <trkpt lat="43.68765" lon="2.42153">
        <ele>434.6</ele>
        <time>2019-08-27T15:23:23Z</time>
      </trkpt>
      <trkpt lat="43.68769" lon="2.42168">
        <ele>434.4</ele>
        <time>2019-08-27T15:23:26Z</time>
      </trkpt>
      <trkpt lat="43.68778" lon="2.42176">
        <ele>433.7</ele>
        <time>2019-08-27T15:23:32Z</time>
      </trkpt>
      <trkpt lat="43.68786" lon="2.42185">
        <ele>433.2</ele>
        <time>2019-08-27T15:23:35Z</time>
      </trkpt>
      <trkpt lat="43.68794" lon="2.42193">
        <ele>432.8</ele>
        <time>2019-08-27T15:23:38Z</time>
      </trkpt>
      <trkpt lat="43.68802" lon="2.422">
        <ele>432.2</ele>
        <time>2019-08-27T15:23:42Z</time>
      </trkpt>
      <trkpt lat="43.68809" lon="2.42212">
        <ele>431.5</ele>
        <time>2019-08-27T15:23:46Z</time>
      </trkpt>
      <trkpt lat="43.68816" lon="2.42224">
        <ele>429.7</ele>
        <time>2019-08-27T15:23:49Z</time>
      </trkpt>
      <trkpt lat="43.68823" lon="2.42238">
        <ele>425.7</ele>
        <time>2019-08-27T15:23:52Z</time>
      </trkpt>
      <trkpt lat="43.6883" lon="2.4225">
        <ele>424.6</ele>
        <time>2019-08-27T15:23:55Z</time>
      </trkpt>
      <trkpt lat="43.68834" lon="2.42262">
        <ele>423.9</ele>
        <time>2019-08-27T15:23:58Z</time>
      </trkpt>
      <trkpt lat="43.68836" lon="2.42277">
        <ele>423</ele>
        <time>2019-08-27T15:24:02Z</time>
      </trkpt>
      <trkpt lat="43.68835" lon="2.4229">
        <ele>422.3</ele>
        <time>2019-08-27T15:24:05Z</time>
      </trkpt>
      <trkpt lat="43.6883" lon="2.42306">
        <ele>417</ele>
        <time>2019-08-27T15:24:08Z</time>
      </trkpt>
      <trkpt lat="43.68826" lon="2.42318">
        <ele>415.7</ele>
        <time>2019-08-27T15:24:10Z</time>
      </trkpt>
      <trkpt lat="43.68822" lon="2.42329">
        <ele>414.8</ele>
        <time>2019-08-27T15:24:13Z</time>
      </trkpt>
      <trkpt lat="43.6882" lon="2.42346">
        <ele>414.1</ele>
        <time>2019-08-27T15:24:17Z</time>
      </trkpt>
      <trkpt lat="43.68821" lon="2.42359">
        <ele>413.7</ele>
        <time>2019-08-27T15:24:20Z</time>
      </trkpt>
      <trkpt lat="43.6883" lon="2.42369">
        <ele>412.3</ele>
        <time>2019-08-27T15:24:23Z</time>
      </trkpt>
      <trkpt lat="43.68839" lon="2.42374">
        <ele>409.8</ele>
        <time>2019-08-27T15:24:25Z</time>
      </trkpt>
      <trkpt lat="43.68848" lon="2.42382">
        <ele>407.5</ele>
        <time>2019-08-27T15:24:27Z</time>
      </trkpt>
      <trkpt lat="43.68856" lon="2.42387">
        <ele>405.5</ele>
        <time>2019-08-27T15:24:29Z</time>
      </trkpt>
      <trkpt lat="43.68867" lon="2.42394">
        <ele>403.1</ele>
        <time>2019-08-27T15:24:32Z</time>
      </trkpt>
      <trkpt lat="43.68876" lon="2.42399">
        <ele>402.4</ele>
        <time>2019-08-27T15:24:35Z</time>
      </trkpt>
      <trkpt lat="43.68885" lon="2.4239">
        <ele>401.2</ele>
        <time>2019-08-27T15:24:38Z</time>
      </trkpt>
      <trkpt lat="43.68897" lon="2.42381">
        <ele>399.9</ele>
        <time>2019-08-27T15:24:40Z</time>
      </trkpt>
      <trkpt lat="43.6891" lon="2.42377">
        <ele>398.6</ele>
        <time>2019-08-27T15:24:42Z</time>
      </trkpt>
      <trkpt lat="43.68921" lon="2.42372">
        <ele>397.1</ele>
        <time>2019-08-27T15:24:44Z</time>
      </trkpt>
      <trkpt lat="43.68931" lon="2.42369">
        <ele>395.6</ele>
        <time>2019-08-27T15:24:46Z</time>
      </trkpt>
      <trkpt lat="43.68944" lon="2.42364">
        <ele>393.4</ele>
        <time>2019-08-27T15:24:49Z</time>
      </trkpt>
      <trkpt lat="43.68956" lon="2.42372">
        <ele>391.5</ele>
        <time>2019-08-27T15:24:52Z</time>
      </trkpt>
      <trkpt lat="43.68964" lon="2.42383">
        <ele>390.2</ele>
        <time>2019-08-27T15:24:54Z</time>
      </trkpt>
      <trkpt lat="43.68972" lon="2.42396">
        <ele>389</ele>
        <time>2019-08-27T15:24:56Z</time>
      </trkpt>
      <trkpt lat="43.6898" lon="2.4241">
        <ele>387.9</ele>
        <time>2019-08-27T15:24:58Z</time>
      </trkpt>
      <trkpt lat="43.68989" lon="2.42424">
        <ele>386.9</ele>
        <time>2019-08-27T15:25:00Z</time>
      </trkpt>
      <trkpt lat="43.68999" lon="2.42439">
        <ele>386.1</ele>
        <time>2019-08-27T15:25:02Z</time>
      </trkpt>
      <trkpt lat="43.69008" lon="2.42454">
        <ele>385.4</ele>
        <time>2019-08-27T15:25:04Z</time>
      </trkpt>
      <trkpt lat="43.69017" lon="2.4247">
        <ele>384.8</ele>
        <time>2019-08-27T15:25:06Z</time>
      </trkpt>
      <trkpt lat="43.69027" lon="2.42485">
        <ele>384.2</ele>
        <time>2019-08-27T15:25:08Z</time>
      </trkpt>
      <trkpt lat="43.69037" lon="2.42501">
        <ele>383.7</ele>
        <time>2019-08-27T15:25:10Z</time>
      </trkpt>
      <trkpt lat="43.69047" lon="2.42517">
        <ele>383.2</ele>
        <time>2019-08-27T15:25:12Z</time>
      </trkpt>
      <trkpt lat="43.69057" lon="2.42533">
        <ele>382.7</ele>
        <time>2019-08-27T15:25:14Z</time>
      </trkpt>
      <trkpt lat="43.69067" lon="2.42551">
        <ele>382.3</ele>
        <time>2019-08-27T15:25:16Z</time>
      </trkpt>
      <trkpt lat="43.69078" lon="2.42568">
        <ele>381.7</ele>
        <time>2019-08-27T15:25:18Z</time>
      </trkpt>
      <trkpt lat="43.69089" lon="2.42586">
        <ele>381.2</ele>
        <time>2019-08-27T15:25:20Z</time>
      </trkpt>
      <trkpt lat="43.69101" lon="2.42603">
        <ele>380.8</ele>
        <time>2019-08-27T15:25:22Z</time>
      </trkpt>
      <trkpt lat="43.69113" lon="2.42618">
        <ele>380.4</ele>
        <time>2019-08-27T15:25:24Z</time>
      </trkpt>
      <trkpt lat="43.69128" lon="2.42629">
        <ele>380</ele>
        <time>2019-08-27T15:25:26Z</time>
      </trkpt>
      <trkpt lat="43.69142" lon="2.42637">
        <ele>379.6</ele>
        <time>2019-08-27T15:25:28Z</time>
      </trkpt>
      <trkpt lat="43.69157" lon="2.42639">
        <ele>379.2</ele>
        <time>2019-08-27T15:25:30Z</time>
      </trkpt>
      <trkpt lat="43.69172" lon="2.42634">
        <ele>378.7</ele>
        <time>2019-08-27T15:25:32Z</time>
      </trkpt>
      <trkpt lat="43.69185" lon="2.42628">
        <ele>378.2</ele>
        <time>2019-08-27T15:25:34Z</time>
      </trkpt>
      <trkpt lat="43.69198" lon="2.42623">
        <ele>377.6</ele>
        <time>2019-08-27T15:25:36Z</time>
      </trkpt>
      <trkpt lat="43.6921" lon="2.42617">
        <ele>377.1</ele>
        <time>2019-08-27T15:25:38Z</time>
      </trkpt>
      <trkpt lat="43.69223" lon="2.42616">
        <ele>376.5</ele>
        <time>2019-08-27T15:25:40Z</time>
      </trkpt>
      <trkpt lat="43.69235" lon="2.42613">
        <ele>375.8</ele>
        <time>2019-08-27T15:25:42Z</time>
      </trkpt>
      <trkpt lat="43.69247" lon="2.42608">
        <ele>375.4</ele>
        <time>2019-08-27T15:25:44Z</time>
      </trkpt>
      <trkpt lat="43.69258" lon="2.42602">
        <ele>375.5</ele>
        <time>2019-08-27T15:25:46Z</time>
      </trkpt>
      <trkpt lat="43.69268" lon="2.42597">
        <ele>375.6</ele>
        <time>2019-08-27T15:25:48Z</time>
      </trkpt>
      <trkpt lat="43.69277" lon="2.42592">
        <ele>375.9</ele>
        <time>2019-08-27T15:25:50Z</time>
      </trkpt>
      <trkpt lat="43.69287" lon="2.42583">
        <ele>376</ele>
        <time>2019-08-27T15:25:53Z</time>
      </trkpt>
      <trkpt lat="43.69292" lon="2.42573">
        <ele>376</ele>
        <time>2019-08-27T15:25:56Z</time>
      </trkpt>
      <trkpt lat="43.69296" lon="2.42564">
        <ele>375.2</ele>
        <time>2019-08-27T15:26:53Z</time>
      </trkpt>
    </trkseg>
  </trk>
</gpx>